<?xml version="1.0" encoding="UTF-8" standalone="no" ?>
<gpx xmlns="http://www.topografix.com/GPX/1/1" xmlns:xsi="http://www.w3.org/2001/XMLSchema-instance" xsi:schemaLocation="http://www.topografix.com/GPX/1/1 http://www.topografix.com/GPX/1/1/gpx.xsd" version="1.1" creator="VisuGPX - https://www.visugpx.com">
  <metadata>
    <name>Croix du Berger</name>
    <desc><![CDATA[Au départ du lac de St Guerin]]></desc>
  </metadata>
  <wpt lat="45.62285" lon="6.60889">
    <ele>2253.703369</ele>
    <name><![CDATA[Croix du Berger]]></name>
    <type><![CDATA[user]]></type>
  </wpt>
  <trk>
    <name><![CDATA[Croix du Berger_2021-06-24]]></name>
    <trkseg>
      <trkpt lat="45.6511" lon="6.58124">
        <ele>1583.91</ele>
        <time>2021-06-24T06:58:52Z</time>
      </trkpt>
      <trkpt lat="45.6511" lon="6.58122">
        <ele>1583.91</ele>
        <time>2021-06-24T06:59:10Z</time>
      </trkpt>
      <trkpt lat="45.65111" lon="6.5812">
        <ele>1578.62</ele>
        <time>2021-06-24T06:59:28Z</time>
      </trkpt>
      <trkpt lat="45.65112" lon="6.5812">
        <ele>1578.62</ele>
        <time>2021-06-24T06:59:29Z</time>
      </trkpt>
      <trkpt lat="45.65109" lon="6.58121">
        <ele>1578.14</ele>
        <time>2021-06-24T06:59:48Z</time>
      </trkpt>
      <trkpt lat="45.65112" lon="6.58125">
        <ele>1579.1</ele>
        <time>2021-06-24T07:00:14Z</time>
      </trkpt>
      <trkpt lat="45.6511" lon="6.58124">
        <ele>1577.66</ele>
        <time>2021-06-24T07:00:25Z</time>
      </trkpt>
      <trkpt lat="45.65108" lon="6.58123">
        <ele>1577.18</ele>
        <time>2021-06-24T07:00:54Z</time>
      </trkpt>
      <trkpt lat="45.65107" lon="6.58126">
        <ele>1579.58</ele>
        <time>2021-06-24T07:01:12Z</time>
      </trkpt>
      <trkpt lat="45.65108" lon="6.58126">
        <ele>1578.62</ele>
        <time>2021-06-24T07:01:16Z</time>
      </trkpt>
      <trkpt lat="45.65109" lon="6.58121">
        <ele>1578.62</ele>
        <time>2021-06-24T07:01:32Z</time>
      </trkpt>
      <trkpt lat="45.65111" lon="6.58123">
        <ele>1579.58</ele>
        <time>2021-06-24T07:01:48Z</time>
      </trkpt>
      <trkpt lat="45.6511" lon="6.58121">
        <ele>1579.58</ele>
        <time>2021-06-24T07:01:58Z</time>
      </trkpt>
      <trkpt lat="45.65108" lon="6.58116">
        <ele>1579.58</ele>
        <time>2021-06-24T07:02:10Z</time>
      </trkpt>
      <trkpt lat="45.65108" lon="6.58116">
        <ele>1579.58</ele>
        <time>2021-06-24T07:02:23Z</time>
      </trkpt>
      <trkpt lat="45.65104" lon="6.58115">
        <ele>1579.58</ele>
        <time>2021-06-24T07:02:42Z</time>
      </trkpt>
      <trkpt lat="45.651" lon="6.58115">
        <ele>1579.58</ele>
        <time>2021-06-24T07:02:58Z</time>
      </trkpt>
      <trkpt lat="45.65098" lon="6.58115">
        <ele>1579.58</ele>
        <time>2021-06-24T07:03:14Z</time>
      </trkpt>
      <trkpt lat="45.65096" lon="6.58116">
        <ele>1578.62</ele>
        <time>2021-06-24T07:03:30Z</time>
      </trkpt>
      <trkpt lat="45.65099" lon="6.58112">
        <ele>1578.62</ele>
        <time>2021-06-24T07:03:41Z</time>
      </trkpt>
      <trkpt lat="45.65098" lon="6.58113">
        <ele>1578.62</ele>
        <time>2021-06-24T07:03:51Z</time>
      </trkpt>
      <trkpt lat="45.651" lon="6.58117">
        <ele>1578.62</ele>
        <time>2021-06-24T07:04:15Z</time>
      </trkpt>
      <trkpt lat="45.65097" lon="6.58132">
        <ele>1577.66</ele>
        <time>2021-06-24T07:04:29Z</time>
      </trkpt>
      <trkpt lat="45.65098" lon="6.58132">
        <ele>1577.18</ele>
        <time>2021-06-24T07:04:42Z</time>
      </trkpt>
      <trkpt lat="45.651" lon="6.58137">
        <ele>1577.18</ele>
        <time>2021-06-24T07:05:02Z</time>
      </trkpt>
      <trkpt lat="45.65098" lon="6.58143">
        <ele>1577.18</ele>
        <time>2021-06-24T07:05:13Z</time>
      </trkpt>
      <trkpt lat="45.65099" lon="6.58145">
        <ele>1576.22</ele>
        <time>2021-06-24T07:05:19Z</time>
      </trkpt>
      <trkpt lat="45.65105" lon="6.58165">
        <ele>1576.22</ele>
        <time>2021-06-24T07:05:33Z</time>
      </trkpt>
      <trkpt lat="45.65108" lon="6.58178">
        <ele>1575.26</ele>
        <time>2021-06-24T07:05:42Z</time>
      </trkpt>
      <trkpt lat="45.65111" lon="6.58194">
        <ele>1574.3</ele>
        <time>2021-06-24T07:05:53Z</time>
      </trkpt>
      <trkpt lat="45.65111" lon="6.58197">
        <ele>1574.3</ele>
        <time>2021-06-24T07:05:55Z</time>
      </trkpt>
      <trkpt lat="45.65112" lon="6.58201">
        <ele>1574.3</ele>
        <time>2021-06-24T07:05:57Z</time>
      </trkpt>
      <trkpt lat="45.65114" lon="6.58212">
        <ele>1573.33</ele>
        <time>2021-06-24T07:06:05Z</time>
      </trkpt>
      <trkpt lat="45.65114" lon="6.58217">
        <ele>1573.33</ele>
        <time>2021-06-24T07:06:08Z</time>
      </trkpt>
      <trkpt lat="45.65117" lon="6.58239">
        <ele>1571.89</ele>
        <time>2021-06-24T07:06:23Z</time>
      </trkpt>
      <trkpt lat="45.65117" lon="6.58249">
        <ele>1571.89</ele>
        <time>2021-06-24T07:06:29Z</time>
      </trkpt>
      <trkpt lat="45.65115" lon="6.58255">
        <ele>1571.41</ele>
        <time>2021-06-24T07:06:34Z</time>
      </trkpt>
      <trkpt lat="45.65109" lon="6.58253">
        <ele>1570.93</ele>
        <time>2021-06-24T07:06:48Z</time>
      </trkpt>
      <trkpt lat="45.65108" lon="6.58262">
        <ele>1570.93</ele>
        <time>2021-06-24T07:07:03Z</time>
      </trkpt>
      <trkpt lat="45.65105" lon="6.58269">
        <ele>1570.93</ele>
        <time>2021-06-24T07:07:16Z</time>
      </trkpt>
      <trkpt lat="45.65105" lon="6.5827">
        <ele>1570.93</ele>
        <time>2021-06-24T07:07:37Z</time>
      </trkpt>
      <trkpt lat="45.65104" lon="6.58275">
        <ele>1570.93</ele>
        <time>2021-06-24T07:07:43Z</time>
      </trkpt>
      <trkpt lat="45.65103" lon="6.58277">
        <ele>1570.93</ele>
        <time>2021-06-24T07:07:45Z</time>
      </trkpt>
      <trkpt lat="45.65098" lon="6.58295">
        <ele>1570.93</ele>
        <time>2021-06-24T07:07:59Z</time>
      </trkpt>
      <trkpt lat="45.65096" lon="6.58302">
        <ele>1570.93</ele>
        <time>2021-06-24T07:08:05Z</time>
      </trkpt>
      <trkpt lat="45.65095" lon="6.58305">
        <ele>1571.89</ele>
        <time>2021-06-24T07:08:07Z</time>
      </trkpt>
      <trkpt lat="45.65089" lon="6.58318">
        <ele>1572.85</ele>
        <time>2021-06-24T07:08:19Z</time>
      </trkpt>
      <trkpt lat="45.65082" lon="6.5833">
        <ele>1572.85</ele>
        <time>2021-06-24T07:08:30Z</time>
      </trkpt>
      <trkpt lat="45.65079" lon="6.58352">
        <ele>1573.82</ele>
        <time>2021-06-24T07:08:44Z</time>
      </trkpt>
      <trkpt lat="45.65079" lon="6.58355">
        <ele>1573.82</ele>
        <time>2021-06-24T07:08:46Z</time>
      </trkpt>
      <trkpt lat="45.65079" lon="6.5836">
        <ele>1573.82</ele>
        <time>2021-06-24T07:08:49Z</time>
      </trkpt>
      <trkpt lat="45.65078" lon="6.58375">
        <ele>1573.82</ele>
        <time>2021-06-24T07:08:57Z</time>
      </trkpt>
      <trkpt lat="45.65076" lon="6.58385">
        <ele>1574.3</ele>
        <time>2021-06-24T07:09:03Z</time>
      </trkpt>
      <trkpt lat="45.65076" lon="6.5839">
        <ele>1574.3</ele>
        <time>2021-06-24T07:09:06Z</time>
      </trkpt>
      <trkpt lat="45.65076" lon="6.58393">
        <ele>1574.3</ele>
        <time>2021-06-24T07:09:08Z</time>
      </trkpt>
      <trkpt lat="45.65075" lon="6.58398">
        <ele>1574.3</ele>
        <time>2021-06-24T07:09:11Z</time>
      </trkpt>
      <trkpt lat="45.65072" lon="6.58406">
        <ele>1574.3</ele>
        <time>2021-06-24T07:09:16Z</time>
      </trkpt>
      <trkpt lat="45.65065" lon="6.58429">
        <ele>1574.78</ele>
        <time>2021-06-24T07:09:31Z</time>
      </trkpt>
      <trkpt lat="45.65054" lon="6.58443">
        <ele>1574.78</ele>
        <time>2021-06-24T07:09:44Z</time>
      </trkpt>
      <trkpt lat="45.65049" lon="6.58439">
        <ele>1574.78</ele>
        <time>2021-06-24T07:09:59Z</time>
      </trkpt>
      <trkpt lat="45.65046" lon="6.58444">
        <ele>1574.3</ele>
        <time>2021-06-24T07:10:10Z</time>
      </trkpt>
      <trkpt lat="45.65028" lon="6.58441">
        <ele>1574.3</ele>
        <time>2021-06-24T07:10:23Z</time>
      </trkpt>
      <trkpt lat="45.65019" lon="6.58435">
        <ele>1574.78</ele>
        <time>2021-06-24T07:10:31Z</time>
      </trkpt>
      <trkpt lat="45.65009" lon="6.58416">
        <ele>1574.78</ele>
        <time>2021-06-24T07:10:48Z</time>
      </trkpt>
      <trkpt lat="45.65004" lon="6.58405">
        <ele>1574.78</ele>
        <time>2021-06-24T07:10:58Z</time>
      </trkpt>
      <trkpt lat="45.64996" lon="6.58396">
        <ele>1573.82</ele>
        <time>2021-06-24T07:11:15Z</time>
      </trkpt>
      <trkpt lat="45.64979" lon="6.58395">
        <ele>1573.33</ele>
        <time>2021-06-24T07:11:28Z</time>
      </trkpt>
      <trkpt lat="45.64958" lon="6.58403">
        <ele>1569.97</ele>
        <time>2021-06-24T07:11:48Z</time>
      </trkpt>
      <trkpt lat="45.64941" lon="6.58405">
        <ele>1567.57</ele>
        <time>2021-06-24T07:12:06Z</time>
      </trkpt>
      <trkpt lat="45.64923" lon="6.58402">
        <ele>1566.61</ele>
        <time>2021-06-24T07:12:24Z</time>
      </trkpt>
      <trkpt lat="45.64923" lon="6.58403">
        <ele>1566.12</ele>
        <time>2021-06-24T07:12:46Z</time>
      </trkpt>
      <trkpt lat="45.64917" lon="6.58402">
        <ele>1565.64</ele>
        <time>2021-06-24T07:13:06Z</time>
      </trkpt>
      <trkpt lat="45.64903" lon="6.58399">
        <ele>1565.16</ele>
        <time>2021-06-24T07:13:20Z</time>
      </trkpt>
      <trkpt lat="45.64888" lon="6.58393">
        <ele>1564.2</ele>
        <time>2021-06-24T07:13:36Z</time>
      </trkpt>
      <trkpt lat="45.64871" lon="6.58391">
        <ele>1561.8</ele>
        <time>2021-06-24T07:13:52Z</time>
      </trkpt>
      <trkpt lat="45.64848" lon="6.58394">
        <ele>1560.36</ele>
        <time>2021-06-24T07:14:10Z</time>
      </trkpt>
      <trkpt lat="45.64839" lon="6.58394">
        <ele>1559.4</ele>
        <time>2021-06-24T07:14:19Z</time>
      </trkpt>
      <trkpt lat="45.64832" lon="6.58396">
        <ele>1558.92</ele>
        <time>2021-06-24T07:14:24Z</time>
      </trkpt>
      <trkpt lat="45.64814" lon="6.58406">
        <ele>1557.47</ele>
        <time>2021-06-24T07:14:41Z</time>
      </trkpt>
      <trkpt lat="45.64799" lon="6.58427">
        <ele>1556.03</ele>
        <time>2021-06-24T07:14:58Z</time>
      </trkpt>
      <trkpt lat="45.64788" lon="6.58446">
        <ele>1556.03</ele>
        <time>2021-06-24T07:15:13Z</time>
      </trkpt>
      <trkpt lat="45.64783" lon="6.58451">
        <ele>1556.03</ele>
        <time>2021-06-24T07:15:19Z</time>
      </trkpt>
      <trkpt lat="45.64771" lon="6.58463">
        <ele>1556.03</ele>
        <time>2021-06-24T07:15:33Z</time>
      </trkpt>
      <trkpt lat="45.64756" lon="6.58473">
        <ele>1555.55</ele>
        <time>2021-06-24T07:15:52Z</time>
      </trkpt>
      <trkpt lat="45.64759" lon="6.58468">
        <ele>1555.55</ele>
        <time>2021-06-24T07:16:10Z</time>
      </trkpt>
      <trkpt lat="45.64761" lon="6.58466">
        <ele>1555.55</ele>
        <time>2021-06-24T07:16:26Z</time>
      </trkpt>
      <trkpt lat="45.64763" lon="6.58474">
        <ele>1555.55</ele>
        <time>2021-06-24T07:16:46Z</time>
      </trkpt>
      <trkpt lat="45.64763" lon="6.58475">
        <ele>1556.99</ele>
        <time>2021-06-24T07:16:48Z</time>
      </trkpt>
      <trkpt lat="45.64763" lon="6.58476">
        <ele>1556.99</ele>
        <time>2021-06-24T07:16:49Z</time>
      </trkpt>
      <trkpt lat="45.64753" lon="6.58484">
        <ele>1556.99</ele>
        <time>2021-06-24T07:17:03Z</time>
      </trkpt>
      <trkpt lat="45.6475" lon="6.58484">
        <ele>1556.99</ele>
        <time>2021-06-24T07:17:06Z</time>
      </trkpt>
      <trkpt lat="45.64747" lon="6.58485">
        <ele>1556.99</ele>
        <time>2021-06-24T07:17:08Z</time>
      </trkpt>
      <trkpt lat="45.64731" lon="6.58485">
        <ele>1557.47</ele>
        <time>2021-06-24T07:17:20Z</time>
      </trkpt>
      <trkpt lat="45.64725" lon="6.58479">
        <ele>1558.43</ele>
        <time>2021-06-24T07:17:31Z</time>
      </trkpt>
      <trkpt lat="45.64716" lon="6.58469">
        <ele>1558.92</ele>
        <time>2021-06-24T07:17:43Z</time>
      </trkpt>
      <trkpt lat="45.64705" lon="6.5846">
        <ele>1558.92</ele>
        <time>2021-06-24T07:17:57Z</time>
      </trkpt>
      <trkpt lat="45.64701" lon="6.58452">
        <ele>1558.92</ele>
        <time>2021-06-24T07:18:03Z</time>
      </trkpt>
      <trkpt lat="45.6469" lon="6.58435">
        <ele>1559.88</ele>
        <time>2021-06-24T07:18:16Z</time>
      </trkpt>
      <trkpt lat="45.64688" lon="6.58433">
        <ele>1559.88</ele>
        <time>2021-06-24T07:18:18Z</time>
      </trkpt>
      <trkpt lat="45.6468" lon="6.58422">
        <ele>1560.36</ele>
        <time>2021-06-24T07:18:28Z</time>
      </trkpt>
      <trkpt lat="45.64668" lon="6.58403">
        <ele>1560.84</ele>
        <time>2021-06-24T07:18:43Z</time>
      </trkpt>
      <trkpt lat="45.64665" lon="6.58398">
        <ele>1560.84</ele>
        <time>2021-06-24T07:18:47Z</time>
      </trkpt>
      <trkpt lat="45.6466" lon="6.58388">
        <ele>1560.84</ele>
        <time>2021-06-24T07:18:54Z</time>
      </trkpt>
      <trkpt lat="45.64658" lon="6.58365">
        <ele>1560.84</ele>
        <time>2021-06-24T07:19:08Z</time>
      </trkpt>
      <trkpt lat="45.64657" lon="6.58351">
        <ele>1560.84</ele>
        <time>2021-06-24T07:19:17Z</time>
      </trkpt>
      <trkpt lat="45.6465" lon="6.58337">
        <ele>1559.4</ele>
        <time>2021-06-24T07:19:27Z</time>
      </trkpt>
      <trkpt lat="45.64649" lon="6.58334">
        <ele>1558.92</ele>
        <time>2021-06-24T07:19:29Z</time>
      </trkpt>
      <trkpt lat="45.64647" lon="6.58333">
        <ele>1558.92</ele>
        <time>2021-06-24T07:19:31Z</time>
      </trkpt>
      <trkpt lat="45.64644" lon="6.58326">
        <ele>1558.43</ele>
        <time>2021-06-24T07:19:36Z</time>
      </trkpt>
      <trkpt lat="45.64637" lon="6.58321">
        <ele>1558.43</ele>
        <time>2021-06-24T07:19:49Z</time>
      </trkpt>
      <trkpt lat="45.64641" lon="6.58323">
        <ele>1558.43</ele>
        <time>2021-06-24T07:20:11Z</time>
      </trkpt>
      <trkpt lat="45.64641" lon="6.5832">
        <ele>1558.43</ele>
        <time>2021-06-24T07:20:44Z</time>
      </trkpt>
      <trkpt lat="45.64638" lon="6.58316">
        <ele>1558.43</ele>
        <time>2021-06-24T07:20:48Z</time>
      </trkpt>
      <trkpt lat="45.64622" lon="6.58329">
        <ele>1557.95</ele>
        <time>2021-06-24T07:21:01Z</time>
      </trkpt>
      <trkpt lat="45.64617" lon="6.58331">
        <ele>1557.95</ele>
        <time>2021-06-24T07:21:05Z</time>
      </trkpt>
      <trkpt lat="45.64604" lon="6.58322">
        <ele>1557.95</ele>
        <time>2021-06-24T07:21:15Z</time>
      </trkpt>
      <trkpt lat="45.64593" lon="6.58314">
        <ele>1559.88</ele>
        <time>2021-06-24T07:21:23Z</time>
      </trkpt>
      <trkpt lat="45.64579" lon="6.5831">
        <ele>1559.88</ele>
        <time>2021-06-24T07:21:35Z</time>
      </trkpt>
      <trkpt lat="45.64574" lon="6.58309">
        <ele>1559.88</ele>
        <time>2021-06-24T07:21:39Z</time>
      </trkpt>
      <trkpt lat="45.64554" lon="6.58302">
        <ele>1560.36</ele>
        <time>2021-06-24T07:21:52Z</time>
      </trkpt>
      <trkpt lat="45.64542" lon="6.583">
        <ele>1559.4</ele>
        <time>2021-06-24T07:22:03Z</time>
      </trkpt>
      <trkpt lat="45.64532" lon="6.583">
        <ele>1558.92</ele>
        <time>2021-06-24T07:22:14Z</time>
      </trkpt>
      <trkpt lat="45.64523" lon="6.58296">
        <ele>1558.43</ele>
        <time>2021-06-24T07:22:26Z</time>
      </trkpt>
      <trkpt lat="45.64497" lon="6.58296">
        <ele>1559.88</ele>
        <time>2021-06-24T07:22:37Z</time>
      </trkpt>
      <trkpt lat="45.64492" lon="6.58299">
        <ele>1560.36</ele>
        <time>2021-06-24T07:22:38Z</time>
      </trkpt>
      <trkpt lat="45.64469" lon="6.58301">
        <ele>1560.84</ele>
        <time>2021-06-24T07:22:51Z</time>
      </trkpt>
      <trkpt lat="45.64458" lon="6.58297">
        <ele>1561.32</ele>
        <time>2021-06-24T07:23:05Z</time>
      </trkpt>
      <trkpt lat="45.64446" lon="6.58294">
        <ele>1561.8</ele>
        <time>2021-06-24T07:23:19Z</time>
      </trkpt>
      <trkpt lat="45.64441" lon="6.58292">
        <ele>1562.28</ele>
        <time>2021-06-24T07:23:22Z</time>
      </trkpt>
      <trkpt lat="45.64428" lon="6.58292">
        <ele>1562.28</ele>
        <time>2021-06-24T07:23:30Z</time>
      </trkpt>
      <trkpt lat="45.64422" lon="6.58291">
        <ele>1562.28</ele>
        <time>2021-06-24T07:23:34Z</time>
      </trkpt>
      <trkpt lat="45.64414" lon="6.58293">
        <ele>1562.76</ele>
        <time>2021-06-24T07:23:46Z</time>
      </trkpt>
      <trkpt lat="45.64409" lon="6.58295">
        <ele>1562.76</ele>
        <time>2021-06-24T07:23:51Z</time>
      </trkpt>
      <trkpt lat="45.64401" lon="6.58301">
        <ele>1562.76</ele>
        <time>2021-06-24T07:24:02Z</time>
      </trkpt>
      <trkpt lat="45.64394" lon="6.58302">
        <ele>1563.72</ele>
        <time>2021-06-24T07:24:08Z</time>
      </trkpt>
      <trkpt lat="45.64383" lon="6.58311">
        <ele>1565.16</ele>
        <time>2021-06-24T07:24:21Z</time>
      </trkpt>
      <trkpt lat="45.64372" lon="6.58317">
        <ele>1566.61</ele>
        <time>2021-06-24T07:24:34Z</time>
      </trkpt>
      <trkpt lat="45.6436" lon="6.58325">
        <ele>1567.57</ele>
        <time>2021-06-24T07:24:49Z</time>
      </trkpt>
      <trkpt lat="45.64342" lon="6.58322">
        <ele>1568.53</ele>
        <time>2021-06-24T07:25:04Z</time>
      </trkpt>
      <trkpt lat="45.64331" lon="6.58313">
        <ele>1569.49</ele>
        <time>2021-06-24T07:25:17Z</time>
      </trkpt>
      <trkpt lat="45.6433" lon="6.58312">
        <ele>1569.49</ele>
        <time>2021-06-24T07:25:18Z</time>
      </trkpt>
      <trkpt lat="45.64312" lon="6.58315">
        <ele>1570.45</ele>
        <time>2021-06-24T07:25:35Z</time>
      </trkpt>
      <trkpt lat="45.64311" lon="6.58317">
        <ele>1570.45</ele>
        <time>2021-06-24T07:25:37Z</time>
      </trkpt>
      <trkpt lat="45.64298" lon="6.58326">
        <ele>1571.89</ele>
        <time>2021-06-24T07:25:51Z</time>
      </trkpt>
      <trkpt lat="45.64285" lon="6.58328">
        <ele>1572.85</ele>
        <time>2021-06-24T07:26:09Z</time>
      </trkpt>
      <trkpt lat="45.6428" lon="6.58331">
        <ele>1572.85</ele>
        <time>2021-06-24T07:26:27Z</time>
      </trkpt>
      <trkpt lat="45.64282" lon="6.58334">
        <ele>1573.82</ele>
        <time>2021-06-24T07:26:43Z</time>
      </trkpt>
      <trkpt lat="45.64282" lon="6.58333">
        <ele>1573.82</ele>
        <time>2021-06-24T07:27:00Z</time>
      </trkpt>
      <trkpt lat="45.64283" lon="6.58334">
        <ele>1573.82</ele>
        <time>2021-06-24T07:27:22Z</time>
      </trkpt>
      <trkpt lat="45.64282" lon="6.58334">
        <ele>1574.3</ele>
        <time>2021-06-24T07:27:49Z</time>
      </trkpt>
      <trkpt lat="45.64286" lon="6.58336">
        <ele>1574.3</ele>
        <time>2021-06-24T07:28:13Z</time>
      </trkpt>
      <trkpt lat="45.64286" lon="6.58337">
        <ele>1574.3</ele>
        <time>2021-06-24T07:28:38Z</time>
      </trkpt>
      <trkpt lat="45.64277" lon="6.58338">
        <ele>1574.78</ele>
        <time>2021-06-24T07:29:12Z</time>
      </trkpt>
      <trkpt lat="45.64272" lon="6.58332">
        <ele>1573.82</ele>
        <time>2021-06-24T07:29:30Z</time>
      </trkpt>
      <trkpt lat="45.64271" lon="6.58331">
        <ele>1573.82</ele>
        <time>2021-06-24T07:29:31Z</time>
      </trkpt>
      <trkpt lat="45.64267" lon="6.5833">
        <ele>1575.26</ele>
        <time>2021-06-24T07:29:34Z</time>
      </trkpt>
      <trkpt lat="45.64265" lon="6.58329">
        <ele>1575.26</ele>
        <time>2021-06-24T07:29:37Z</time>
      </trkpt>
      <trkpt lat="45.6426" lon="6.58328">
        <ele>1578.14</ele>
        <time>2021-06-24T07:29:43Z</time>
      </trkpt>
      <trkpt lat="45.64259" lon="6.58328">
        <ele>1578.14</ele>
        <time>2021-06-24T07:29:44Z</time>
      </trkpt>
      <trkpt lat="45.64247" lon="6.58331">
        <ele>1577.18</ele>
        <time>2021-06-24T07:29:58Z</time>
      </trkpt>
      <trkpt lat="45.64241" lon="6.58342">
        <ele>1580.54</ele>
        <time>2021-06-24T07:30:13Z</time>
      </trkpt>
      <trkpt lat="45.64236" lon="6.5835">
        <ele>1581.51</ele>
        <time>2021-06-24T07:30:21Z</time>
      </trkpt>
      <trkpt lat="45.6423" lon="6.5836">
        <ele>1581.99</ele>
        <time>2021-06-24T07:30:32Z</time>
      </trkpt>
      <trkpt lat="45.64229" lon="6.5836">
        <ele>1581.99</ele>
        <time>2021-06-24T07:30:34Z</time>
      </trkpt>
      <trkpt lat="45.64218" lon="6.58361">
        <ele>1583.43</ele>
        <time>2021-06-24T07:30:48Z</time>
      </trkpt>
      <trkpt lat="45.64205" lon="6.58366">
        <ele>1584.87</ele>
        <time>2021-06-24T07:31:05Z</time>
      </trkpt>
      <trkpt lat="45.64193" lon="6.58375">
        <ele>1585.83</ele>
        <time>2021-06-24T07:31:18Z</time>
      </trkpt>
      <trkpt lat="45.6419" lon="6.58393">
        <ele>1586.31</ele>
        <time>2021-06-24T07:31:32Z</time>
      </trkpt>
      <trkpt lat="45.64187" lon="6.58412">
        <ele>1586.31</ele>
        <time>2021-06-24T07:31:46Z</time>
      </trkpt>
      <trkpt lat="45.64174" lon="6.58428">
        <ele>1586.79</ele>
        <time>2021-06-24T07:32:00Z</time>
      </trkpt>
      <trkpt lat="45.64163" lon="6.58438">
        <ele>1587.27</ele>
        <time>2021-06-24T07:32:16Z</time>
      </trkpt>
      <trkpt lat="45.64152" lon="6.5844">
        <ele>1588.72</ele>
        <time>2021-06-24T07:32:29Z</time>
      </trkpt>
      <trkpt lat="45.64136" lon="6.5844">
        <ele>1589.2</ele>
        <time>2021-06-24T07:32:44Z</time>
      </trkpt>
      <trkpt lat="45.64121" lon="6.58447">
        <ele>1589.2</ele>
        <time>2021-06-24T07:32:58Z</time>
      </trkpt>
      <trkpt lat="45.64113" lon="6.58453">
        <ele>1587.75</ele>
        <time>2021-06-24T07:33:06Z</time>
      </trkpt>
      <trkpt lat="45.64111" lon="6.58454">
        <ele>1587.75</ele>
        <time>2021-06-24T07:33:07Z</time>
      </trkpt>
      <trkpt lat="45.64107" lon="6.58459">
        <ele>1587.27</ele>
        <time>2021-06-24T07:33:12Z</time>
      </trkpt>
      <trkpt lat="45.64099" lon="6.58478">
        <ele>1585.83</ele>
        <time>2021-06-24T07:33:28Z</time>
      </trkpt>
      <trkpt lat="45.64091" lon="6.58487">
        <ele>1585.83</ele>
        <time>2021-06-24T07:33:40Z</time>
      </trkpt>
      <trkpt lat="45.64081" lon="6.58497">
        <ele>1585.83</ele>
        <time>2021-06-24T07:33:53Z</time>
      </trkpt>
      <trkpt lat="45.64079" lon="6.58499">
        <ele>1587.27</ele>
        <time>2021-06-24T07:33:57Z</time>
      </trkpt>
      <trkpt lat="45.64067" lon="6.58509">
        <ele>1588.72</ele>
        <time>2021-06-24T07:34:12Z</time>
      </trkpt>
      <trkpt lat="45.64067" lon="6.58511">
        <ele>1588.72</ele>
        <time>2021-06-24T07:34:13Z</time>
      </trkpt>
      <trkpt lat="45.64063" lon="6.58516">
        <ele>1589.68</ele>
        <time>2021-06-24T07:34:27Z</time>
      </trkpt>
      <trkpt lat="45.64062" lon="6.58513">
        <ele>1588.72</ele>
        <time>2021-06-24T07:35:00Z</time>
      </trkpt>
      <trkpt lat="45.64063" lon="6.58513">
        <ele>1588.72</ele>
        <time>2021-06-24T07:35:32Z</time>
      </trkpt>
      <trkpt lat="45.64063" lon="6.58513">
        <ele>1590.16</ele>
        <time>2021-06-24T07:35:38Z</time>
      </trkpt>
      <trkpt lat="45.64064" lon="6.58514">
        <ele>1590.16</ele>
        <time>2021-06-24T07:36:00Z</time>
      </trkpt>
      <trkpt lat="45.64064" lon="6.58517">
        <ele>1590.16</ele>
        <time>2021-06-24T07:36:12Z</time>
      </trkpt>
      <trkpt lat="45.64063" lon="6.58516">
        <ele>1588.72</ele>
        <time>2021-06-24T07:36:17Z</time>
      </trkpt>
      <trkpt lat="45.64063" lon="6.58514">
        <ele>1589.2</ele>
        <time>2021-06-24T07:36:48Z</time>
      </trkpt>
      <trkpt lat="45.64064" lon="6.58512">
        <ele>1590.64</ele>
        <time>2021-06-24T07:37:10Z</time>
      </trkpt>
      <trkpt lat="45.64063" lon="6.58513">
        <ele>1590.64</ele>
        <time>2021-06-24T07:37:11Z</time>
      </trkpt>
      <trkpt lat="45.64056" lon="6.58527">
        <ele>1591.6</ele>
        <time>2021-06-24T07:37:25Z</time>
      </trkpt>
      <trkpt lat="45.64054" lon="6.58531">
        <ele>1591.6</ele>
        <time>2021-06-24T07:37:44Z</time>
      </trkpt>
      <trkpt lat="45.6405" lon="6.58528">
        <ele>1591.6</ele>
        <time>2021-06-24T07:38:05Z</time>
      </trkpt>
      <trkpt lat="45.6405" lon="6.58535">
        <ele>1591.6</ele>
        <time>2021-06-24T07:38:24Z</time>
      </trkpt>
      <trkpt lat="45.64046" lon="6.58549">
        <ele>1592.08</ele>
        <time>2021-06-24T07:38:38Z</time>
      </trkpt>
      <trkpt lat="45.64041" lon="6.58559">
        <ele>1592.08</ele>
        <time>2021-06-24T07:38:51Z</time>
      </trkpt>
      <trkpt lat="45.64033" lon="6.58564">
        <ele>1593.04</ele>
        <time>2021-06-24T07:39:03Z</time>
      </trkpt>
      <trkpt lat="45.64029" lon="6.58562">
        <ele>1593.52</ele>
        <time>2021-06-24T07:39:13Z</time>
      </trkpt>
      <trkpt lat="45.64025" lon="6.58559">
        <ele>1594.48</ele>
        <time>2021-06-24T07:39:25Z</time>
      </trkpt>
      <trkpt lat="45.64022" lon="6.5856">
        <ele>1594.96</ele>
        <time>2021-06-24T07:39:38Z</time>
      </trkpt>
      <trkpt lat="45.64013" lon="6.58559">
        <ele>1596.41</ele>
        <time>2021-06-24T07:39:50Z</time>
      </trkpt>
      <trkpt lat="45.64008" lon="6.58559">
        <ele>1597.37</ele>
        <time>2021-06-24T07:39:59Z</time>
      </trkpt>
      <trkpt lat="45.63992" lon="6.58566">
        <ele>1599.29</ele>
        <time>2021-06-24T07:40:16Z</time>
      </trkpt>
      <trkpt lat="45.63984" lon="6.58575">
        <ele>1600.73</ele>
        <time>2021-06-24T07:40:29Z</time>
      </trkpt>
      <trkpt lat="45.63974" lon="6.58582">
        <ele>1600.73</ele>
        <time>2021-06-24T07:40:43Z</time>
      </trkpt>
      <trkpt lat="45.63973" lon="6.58584">
        <ele>1601.21</ele>
        <time>2021-06-24T07:40:45Z</time>
      </trkpt>
      <trkpt lat="45.63967" lon="6.58588">
        <ele>1601.21</ele>
        <time>2021-06-24T07:40:52Z</time>
      </trkpt>
      <trkpt lat="45.63955" lon="6.58595">
        <ele>1601.69</ele>
        <time>2021-06-24T07:41:06Z</time>
      </trkpt>
      <trkpt lat="45.63946" lon="6.586">
        <ele>1602.66</ele>
        <time>2021-06-24T07:41:20Z</time>
      </trkpt>
      <trkpt lat="45.63937" lon="6.58606">
        <ele>1603.62</ele>
        <time>2021-06-24T07:41:33Z</time>
      </trkpt>
      <trkpt lat="45.6393" lon="6.58612">
        <ele>1605.54</ele>
        <time>2021-06-24T07:41:48Z</time>
      </trkpt>
      <trkpt lat="45.63922" lon="6.5862">
        <ele>1607.46</ele>
        <time>2021-06-24T07:42:02Z</time>
      </trkpt>
      <trkpt lat="45.63917" lon="6.58625">
        <ele>1608.9</ele>
        <time>2021-06-24T07:42:15Z</time>
      </trkpt>
      <trkpt lat="45.63909" lon="6.58631">
        <ele>1610.35</ele>
        <time>2021-06-24T07:42:27Z</time>
      </trkpt>
      <trkpt lat="45.63902" lon="6.58638">
        <ele>1612.27</ele>
        <time>2021-06-24T07:42:39Z</time>
      </trkpt>
      <trkpt lat="45.63891" lon="6.58642">
        <ele>1613.71</ele>
        <time>2021-06-24T07:42:53Z</time>
      </trkpt>
      <trkpt lat="45.63882" lon="6.58646">
        <ele>1614.67</ele>
        <time>2021-06-24T07:43:04Z</time>
      </trkpt>
      <trkpt lat="45.63873" lon="6.5865">
        <ele>1616.11</ele>
        <time>2021-06-24T07:43:16Z</time>
      </trkpt>
      <trkpt lat="45.63866" lon="6.58652">
        <ele>1616.59</ele>
        <time>2021-06-24T07:43:24Z</time>
      </trkpt>
      <trkpt lat="45.63851" lon="6.58654">
        <ele>1617.07</ele>
        <time>2021-06-24T07:43:40Z</time>
      </trkpt>
      <trkpt lat="45.63838" lon="6.5866">
        <ele>1618.04</ele>
        <time>2021-06-24T07:43:55Z</time>
      </trkpt>
      <trkpt lat="45.63834" lon="6.58664">
        <ele>1618.52</ele>
        <time>2021-06-24T07:44:02Z</time>
      </trkpt>
      <trkpt lat="45.63824" lon="6.58667">
        <ele>1619.48</ele>
        <time>2021-06-24T07:44:14Z</time>
      </trkpt>
      <trkpt lat="45.63816" lon="6.58675">
        <ele>1621.4</ele>
        <time>2021-06-24T07:44:27Z</time>
      </trkpt>
      <trkpt lat="45.6381" lon="6.58681">
        <ele>1622.36</ele>
        <time>2021-06-24T07:44:39Z</time>
      </trkpt>
      <trkpt lat="45.63803" lon="6.5869">
        <ele>1624.77</ele>
        <time>2021-06-24T07:44:53Z</time>
      </trkpt>
      <trkpt lat="45.63799" lon="6.58695">
        <ele>1626.21</ele>
        <time>2021-06-24T07:45:03Z</time>
      </trkpt>
      <trkpt lat="45.63796" lon="6.58702">
        <ele>1628.13</ele>
        <time>2021-06-24T07:45:14Z</time>
      </trkpt>
      <trkpt lat="45.63792" lon="6.58709">
        <ele>1630.05</ele>
        <time>2021-06-24T07:45:30Z</time>
      </trkpt>
      <trkpt lat="45.63791" lon="6.58708">
        <ele>1630.53</ele>
        <time>2021-06-24T07:45:41Z</time>
      </trkpt>
      <trkpt lat="45.63788" lon="6.58719">
        <ele>1631.49</ele>
        <time>2021-06-24T07:45:53Z</time>
      </trkpt>
      <trkpt lat="45.63787" lon="6.58721">
        <ele>1631.98</ele>
        <time>2021-06-24T07:46:04Z</time>
      </trkpt>
      <trkpt lat="45.63784" lon="6.58729">
        <ele>1634.38</ele>
        <time>2021-06-24T07:46:18Z</time>
      </trkpt>
      <trkpt lat="45.63776" lon="6.5874">
        <ele>1636.78</ele>
        <time>2021-06-24T07:46:31Z</time>
      </trkpt>
      <trkpt lat="45.63774" lon="6.58751">
        <ele>1638.7</ele>
        <time>2021-06-24T07:46:43Z</time>
      </trkpt>
      <trkpt lat="45.63774" lon="6.58758">
        <ele>1639.67</ele>
        <time>2021-06-24T07:46:56Z</time>
      </trkpt>
      <trkpt lat="45.63772" lon="6.58764">
        <ele>1640.63</ele>
        <time>2021-06-24T07:47:17Z</time>
      </trkpt>
      <trkpt lat="45.6377" lon="6.58766">
        <ele>1641.11</ele>
        <time>2021-06-24T07:47:30Z</time>
      </trkpt>
      <trkpt lat="45.63771" lon="6.58763">
        <ele>1641.59</ele>
        <time>2021-06-24T07:47:53Z</time>
      </trkpt>
      <trkpt lat="45.63771" lon="6.58762">
        <ele>1641.59</ele>
        <time>2021-06-24T07:48:04Z</time>
      </trkpt>
      <trkpt lat="45.63778" lon="6.58767">
        <ele>1643.03</ele>
        <time>2021-06-24T07:48:16Z</time>
      </trkpt>
      <trkpt lat="45.6378" lon="6.58767">
        <ele>1643.03</ele>
        <time>2021-06-24T07:48:18Z</time>
      </trkpt>
      <trkpt lat="45.63784" lon="6.58766">
        <ele>1643.99</ele>
        <time>2021-06-24T07:48:21Z</time>
      </trkpt>
      <trkpt lat="45.63789" lon="6.58764">
        <ele>1643.99</ele>
        <time>2021-06-24T07:48:25Z</time>
      </trkpt>
      <trkpt lat="45.63797" lon="6.58766">
        <ele>1644.95</ele>
        <time>2021-06-24T07:48:33Z</time>
      </trkpt>
      <trkpt lat="45.63798" lon="6.58771">
        <ele>1645.91</ele>
        <time>2021-06-24T07:48:37Z</time>
      </trkpt>
      <trkpt lat="45.63794" lon="6.58776">
        <ele>1645.91</ele>
        <time>2021-06-24T07:48:43Z</time>
      </trkpt>
      <trkpt lat="45.63792" lon="6.58778">
        <ele>1646.4</ele>
        <time>2021-06-24T07:48:45Z</time>
      </trkpt>
      <trkpt lat="45.63788" lon="6.58787">
        <ele>1646.88</ele>
        <time>2021-06-24T07:48:53Z</time>
      </trkpt>
      <trkpt lat="45.63787" lon="6.5879">
        <ele>1646.88</ele>
        <time>2021-06-24T07:48:55Z</time>
      </trkpt>
      <trkpt lat="45.63781" lon="6.58799">
        <ele>1647.36</ele>
        <time>2021-06-24T07:49:03Z</time>
      </trkpt>
      <trkpt lat="45.63762" lon="6.58808">
        <ele>1647.84</ele>
        <time>2021-06-24T07:49:20Z</time>
      </trkpt>
      <trkpt lat="45.63755" lon="6.58818">
        <ele>1648.32</ele>
        <time>2021-06-24T07:49:34Z</time>
      </trkpt>
      <trkpt lat="45.63751" lon="6.58825">
        <ele>1650.24</ele>
        <time>2021-06-24T07:49:46Z</time>
      </trkpt>
      <trkpt lat="45.63746" lon="6.58829">
        <ele>1652.64</ele>
        <time>2021-06-24T07:49:58Z</time>
      </trkpt>
      <trkpt lat="45.6374" lon="6.58828">
        <ele>1653.12</ele>
        <time>2021-06-24T07:50:10Z</time>
      </trkpt>
      <trkpt lat="45.63734" lon="6.58822">
        <ele>1654.57</ele>
        <time>2021-06-24T07:50:21Z</time>
      </trkpt>
      <trkpt lat="45.63729" lon="6.58823">
        <ele>1657.45</ele>
        <time>2021-06-24T07:50:34Z</time>
      </trkpt>
      <trkpt lat="45.63722" lon="6.58821">
        <ele>1659.37</ele>
        <time>2021-06-24T07:50:47Z</time>
      </trkpt>
      <trkpt lat="45.63713" lon="6.58814">
        <ele>1661.3</ele>
        <time>2021-06-24T07:51:02Z</time>
      </trkpt>
      <trkpt lat="45.63704" lon="6.58816">
        <ele>1662.74</ele>
        <time>2021-06-24T07:51:15Z</time>
      </trkpt>
      <trkpt lat="45.63696" lon="6.58821">
        <ele>1663.7</ele>
        <time>2021-06-24T07:51:29Z</time>
      </trkpt>
      <trkpt lat="45.63686" lon="6.58824">
        <ele>1665.14</ele>
        <time>2021-06-24T07:51:44Z</time>
      </trkpt>
      <trkpt lat="45.63678" lon="6.5883">
        <ele>1666.58</ele>
        <time>2021-06-24T07:51:58Z</time>
      </trkpt>
      <trkpt lat="45.6367" lon="6.58835">
        <ele>1668.02</ele>
        <time>2021-06-24T07:52:11Z</time>
      </trkpt>
      <trkpt lat="45.63666" lon="6.58838">
        <ele>1669.47</ele>
        <time>2021-06-24T07:52:23Z</time>
      </trkpt>
      <trkpt lat="45.63663" lon="6.58844">
        <ele>1670.43</ele>
        <time>2021-06-24T07:52:42Z</time>
      </trkpt>
      <trkpt lat="45.6366" lon="6.58847">
        <ele>1670.91</ele>
        <time>2021-06-24T07:52:47Z</time>
      </trkpt>
      <trkpt lat="45.63647" lon="6.58858">
        <ele>1673.31</ele>
        <time>2021-06-24T07:53:04Z</time>
      </trkpt>
      <trkpt lat="45.63638" lon="6.58864">
        <ele>1675.72</ele>
        <time>2021-06-24T07:53:19Z</time>
      </trkpt>
      <trkpt lat="45.63631" lon="6.58864">
        <ele>1675.72</ele>
        <time>2021-06-24T07:53:26Z</time>
      </trkpt>
      <trkpt lat="45.63627" lon="6.58864">
        <ele>1675.72</ele>
        <time>2021-06-24T07:53:32Z</time>
      </trkpt>
      <trkpt lat="45.63621" lon="6.58868">
        <ele>1676.68</ele>
        <time>2021-06-24T07:53:46Z</time>
      </trkpt>
      <trkpt lat="45.63619" lon="6.58868">
        <ele>1677.64</ele>
        <time>2021-06-24T07:54:02Z</time>
      </trkpt>
      <trkpt lat="45.63617" lon="6.58869">
        <ele>1676.68</ele>
        <time>2021-06-24T07:54:04Z</time>
      </trkpt>
      <trkpt lat="45.63614" lon="6.58871">
        <ele>1676.2</ele>
        <time>2021-06-24T07:54:23Z</time>
      </trkpt>
      <trkpt lat="45.63613" lon="6.58878">
        <ele>1676.2</ele>
        <time>2021-06-24T07:54:31Z</time>
      </trkpt>
      <trkpt lat="45.6361" lon="6.58883">
        <ele>1677.64</ele>
        <time>2021-06-24T07:54:36Z</time>
      </trkpt>
      <trkpt lat="45.63606" lon="6.58891">
        <ele>1679.56</ele>
        <time>2021-06-24T07:54:47Z</time>
      </trkpt>
      <trkpt lat="45.636" lon="6.58902">
        <ele>1681.96</ele>
        <time>2021-06-24T07:54:59Z</time>
      </trkpt>
      <trkpt lat="45.63591" lon="6.58908">
        <ele>1684.37</ele>
        <time>2021-06-24T07:55:13Z</time>
      </trkpt>
      <trkpt lat="45.63583" lon="6.58909">
        <ele>1685.33</ele>
        <time>2021-06-24T07:55:23Z</time>
      </trkpt>
      <trkpt lat="45.63571" lon="6.58917">
        <ele>1685.33</ele>
        <time>2021-06-24T07:55:37Z</time>
      </trkpt>
      <trkpt lat="45.63559" lon="6.5893">
        <ele>1683.41</ele>
        <time>2021-06-24T07:55:51Z</time>
      </trkpt>
      <trkpt lat="45.63558" lon="6.5893">
        <ele>1683.41</ele>
        <time>2021-06-24T07:55:52Z</time>
      </trkpt>
      <trkpt lat="45.63546" lon="6.58937">
        <ele>1684.85</ele>
        <time>2021-06-24T07:56:06Z</time>
      </trkpt>
      <trkpt lat="45.63535" lon="6.58941">
        <ele>1685.33</ele>
        <time>2021-06-24T07:56:19Z</time>
      </trkpt>
      <trkpt lat="45.63527" lon="6.58951">
        <ele>1686.77</ele>
        <time>2021-06-24T07:56:33Z</time>
      </trkpt>
      <trkpt lat="45.63524" lon="6.58963">
        <ele>1688.69</ele>
        <time>2021-06-24T07:56:47Z</time>
      </trkpt>
      <trkpt lat="45.63512" lon="6.58973">
        <ele>1689.65</ele>
        <time>2021-06-24T07:57:03Z</time>
      </trkpt>
      <trkpt lat="45.63508" lon="6.58981">
        <ele>1689.65</ele>
        <time>2021-06-24T07:57:11Z</time>
      </trkpt>
      <trkpt lat="45.63503" lon="6.58992">
        <ele>1689.65</ele>
        <time>2021-06-24T07:57:24Z</time>
      </trkpt>
      <trkpt lat="45.63495" lon="6.59001">
        <ele>1691.1</ele>
        <time>2021-06-24T07:57:37Z</time>
      </trkpt>
      <trkpt lat="45.6349" lon="6.5901">
        <ele>1693.02</ele>
        <time>2021-06-24T07:57:49Z</time>
      </trkpt>
      <trkpt lat="45.63485" lon="6.59017">
        <ele>1694.46</ele>
        <time>2021-06-24T07:58:01Z</time>
      </trkpt>
      <trkpt lat="45.63481" lon="6.59026">
        <ele>1695.9</ele>
        <time>2021-06-24T07:58:14Z</time>
      </trkpt>
      <trkpt lat="45.6348" lon="6.59027">
        <ele>1695.9</ele>
        <time>2021-06-24T07:58:15Z</time>
      </trkpt>
      <trkpt lat="45.63471" lon="6.59034">
        <ele>1697.34</ele>
        <time>2021-06-24T07:58:28Z</time>
      </trkpt>
      <trkpt lat="45.63462" lon="6.59037">
        <ele>1698.31</ele>
        <time>2021-06-24T07:58:40Z</time>
      </trkpt>
      <trkpt lat="45.63456" lon="6.59046">
        <ele>1698.79</ele>
        <time>2021-06-24T07:58:51Z</time>
      </trkpt>
      <trkpt lat="45.63446" lon="6.59048">
        <ele>1699.75</ele>
        <time>2021-06-24T07:59:03Z</time>
      </trkpt>
      <trkpt lat="45.63446" lon="6.59048">
        <ele>1700.71</ele>
        <time>2021-06-24T07:59:21Z</time>
      </trkpt>
      <trkpt lat="45.63441" lon="6.59047">
        <ele>1700.71</ele>
        <time>2021-06-24T07:59:46Z</time>
      </trkpt>
      <trkpt lat="45.63435" lon="6.59046">
        <ele>1700.71</ele>
        <time>2021-06-24T07:59:54Z</time>
      </trkpt>
      <trkpt lat="45.63423" lon="6.59045">
        <ele>1701.19</ele>
        <time>2021-06-24T08:00:09Z</time>
      </trkpt>
      <trkpt lat="45.63416" lon="6.59049">
        <ele>1703.59</ele>
        <time>2021-06-24T08:00:22Z</time>
      </trkpt>
      <trkpt lat="45.63412" lon="6.59053">
        <ele>1704.55</ele>
        <time>2021-06-24T08:00:30Z</time>
      </trkpt>
      <trkpt lat="45.63405" lon="6.59066">
        <ele>1706</ele>
        <time>2021-06-24T08:00:43Z</time>
      </trkpt>
      <trkpt lat="45.63403" lon="6.59069">
        <ele>1706.48</ele>
        <time>2021-06-24T08:00:46Z</time>
      </trkpt>
      <trkpt lat="45.63397" lon="6.59078">
        <ele>1706.96</ele>
        <time>2021-06-24T08:00:59Z</time>
      </trkpt>
      <trkpt lat="45.63388" lon="6.5908">
        <ele>1707.92</ele>
        <time>2021-06-24T08:01:12Z</time>
      </trkpt>
      <trkpt lat="45.63379" lon="6.59087">
        <ele>1709.36</ele>
        <time>2021-06-24T08:01:26Z</time>
      </trkpt>
      <trkpt lat="45.63371" lon="6.59094">
        <ele>1710.8</ele>
        <time>2021-06-24T08:01:38Z</time>
      </trkpt>
      <trkpt lat="45.63363" lon="6.59106">
        <ele>1711.76</ele>
        <time>2021-06-24T08:01:51Z</time>
      </trkpt>
      <trkpt lat="45.63355" lon="6.59119">
        <ele>1712.73</ele>
        <time>2021-06-24T08:02:04Z</time>
      </trkpt>
      <trkpt lat="45.6335" lon="6.59129">
        <ele>1713.69</ele>
        <time>2021-06-24T08:02:16Z</time>
      </trkpt>
      <trkpt lat="45.63339" lon="6.59133">
        <ele>1715.13</ele>
        <time>2021-06-24T08:02:29Z</time>
      </trkpt>
      <trkpt lat="45.63329" lon="6.59137">
        <ele>1716.57</ele>
        <time>2021-06-24T08:02:43Z</time>
      </trkpt>
      <trkpt lat="45.63326" lon="6.59138">
        <ele>1716.57</ele>
        <time>2021-06-24T08:02:46Z</time>
      </trkpt>
      <trkpt lat="45.63316" lon="6.59142">
        <ele>1718.49</ele>
        <time>2021-06-24T08:02:59Z</time>
      </trkpt>
      <trkpt lat="45.6331" lon="6.59146">
        <ele>1718.97</ele>
        <time>2021-06-24T08:03:08Z</time>
      </trkpt>
      <trkpt lat="45.63307" lon="6.59149">
        <ele>1719.46</ele>
        <time>2021-06-24T08:03:13Z</time>
      </trkpt>
      <trkpt lat="45.63298" lon="6.59157">
        <ele>1720.9</ele>
        <time>2021-06-24T08:03:26Z</time>
      </trkpt>
      <trkpt lat="45.6329" lon="6.59161">
        <ele>1722.34</ele>
        <time>2021-06-24T08:03:39Z</time>
      </trkpt>
      <trkpt lat="45.6328" lon="6.59166">
        <ele>1723.78</ele>
        <time>2021-06-24T08:03:52Z</time>
      </trkpt>
      <trkpt lat="45.6328" lon="6.59173">
        <ele>1725.7</ele>
        <time>2021-06-24T08:04:04Z</time>
      </trkpt>
      <trkpt lat="45.63289" lon="6.59175">
        <ele>1728.11</ele>
        <time>2021-06-24T08:04:19Z</time>
      </trkpt>
      <trkpt lat="45.63292" lon="6.59177">
        <ele>1729.55</ele>
        <time>2021-06-24T08:04:31Z</time>
      </trkpt>
      <trkpt lat="45.63294" lon="6.59182">
        <ele>1730.03</ele>
        <time>2021-06-24T08:04:46Z</time>
      </trkpt>
      <trkpt lat="45.63292" lon="6.59184">
        <ele>1730.99</ele>
        <time>2021-06-24T08:05:01Z</time>
      </trkpt>
      <trkpt lat="45.63291" lon="6.59184">
        <ele>1730.99</ele>
        <time>2021-06-24T08:05:33Z</time>
      </trkpt>
      <trkpt lat="45.6329" lon="6.59184">
        <ele>1730.99</ele>
        <time>2021-06-24T08:05:58Z</time>
      </trkpt>
      <trkpt lat="45.63292" lon="6.59183">
        <ele>1730.99</ele>
        <time>2021-06-24T08:06:22Z</time>
      </trkpt>
      <trkpt lat="45.63294" lon="6.59187">
        <ele>1730.99</ele>
        <time>2021-06-24T08:06:36Z</time>
      </trkpt>
      <trkpt lat="45.63292" lon="6.59183">
        <ele>1730.99</ele>
        <time>2021-06-24T08:07:11Z</time>
      </trkpt>
      <trkpt lat="45.63292" lon="6.59182">
        <ele>1730.99</ele>
        <time>2021-06-24T08:07:47Z</time>
      </trkpt>
      <trkpt lat="45.6329" lon="6.59183">
        <ele>1730.99</ele>
        <time>2021-06-24T08:08:12Z</time>
      </trkpt>
      <trkpt lat="45.63289" lon="6.59193">
        <ele>1731.47</ele>
        <time>2021-06-24T08:08:24Z</time>
      </trkpt>
      <trkpt lat="45.63288" lon="6.59208">
        <ele>1732.91</ele>
        <time>2021-06-24T08:08:37Z</time>
      </trkpt>
      <trkpt lat="45.63282" lon="6.59211">
        <ele>1733.88</ele>
        <time>2021-06-24T08:08:55Z</time>
      </trkpt>
      <trkpt lat="45.63284" lon="6.59217">
        <ele>1735.32</ele>
        <time>2021-06-24T08:09:07Z</time>
      </trkpt>
      <trkpt lat="45.63282" lon="6.59224">
        <ele>1738.2</ele>
        <time>2021-06-24T08:09:22Z</time>
      </trkpt>
      <trkpt lat="45.63276" lon="6.59231">
        <ele>1741.08</ele>
        <time>2021-06-24T08:09:37Z</time>
      </trkpt>
      <trkpt lat="45.63273" lon="6.59237">
        <ele>1743.01</ele>
        <time>2021-06-24T08:09:49Z</time>
      </trkpt>
      <trkpt lat="45.63269" lon="6.59245">
        <ele>1745.41</ele>
        <time>2021-06-24T08:10:04Z</time>
      </trkpt>
      <trkpt lat="45.63263" lon="6.59253">
        <ele>1747.33</ele>
        <time>2021-06-24T08:10:19Z</time>
      </trkpt>
      <trkpt lat="45.63256" lon="6.59261">
        <ele>1748.78</ele>
        <time>2021-06-24T08:10:33Z</time>
      </trkpt>
      <trkpt lat="45.63257" lon="6.59267">
        <ele>1750.7</ele>
        <time>2021-06-24T08:10:44Z</time>
      </trkpt>
      <trkpt lat="45.63255" lon="6.59276">
        <ele>1753.1</ele>
        <time>2021-06-24T08:10:57Z</time>
      </trkpt>
      <trkpt lat="45.63251" lon="6.59283">
        <ele>1754.06</ele>
        <time>2021-06-24T08:11:10Z</time>
      </trkpt>
      <trkpt lat="45.63242" lon="6.59279">
        <ele>1754.54</ele>
        <time>2021-06-24T08:11:24Z</time>
      </trkpt>
      <trkpt lat="45.63232" lon="6.59282">
        <ele>1755.5</ele>
        <time>2021-06-24T08:11:39Z</time>
      </trkpt>
      <trkpt lat="45.63223" lon="6.59297">
        <ele>1756.47</ele>
        <time>2021-06-24T08:11:56Z</time>
      </trkpt>
      <trkpt lat="45.63218" lon="6.59309">
        <ele>1758.87</ele>
        <time>2021-06-24T08:12:11Z</time>
      </trkpt>
      <trkpt lat="45.63218" lon="6.59321">
        <ele>1760.79</ele>
        <time>2021-06-24T08:12:24Z</time>
      </trkpt>
      <trkpt lat="45.63218" lon="6.5933">
        <ele>1762.23</ele>
        <time>2021-06-24T08:12:33Z</time>
      </trkpt>
      <trkpt lat="45.63213" lon="6.59342">
        <ele>1763.2</ele>
        <time>2021-06-24T08:12:48Z</time>
      </trkpt>
      <trkpt lat="45.63207" lon="6.59359">
        <ele>1764.16</ele>
        <time>2021-06-24T08:13:02Z</time>
      </trkpt>
      <trkpt lat="45.63203" lon="6.59374">
        <ele>1764.64</ele>
        <time>2021-06-24T08:13:15Z</time>
      </trkpt>
      <trkpt lat="45.63199" lon="6.59394">
        <ele>1764.64</ele>
        <time>2021-06-24T08:13:30Z</time>
      </trkpt>
      <trkpt lat="45.63196" lon="6.59413">
        <ele>1764.64</ele>
        <time>2021-06-24T08:13:43Z</time>
      </trkpt>
      <trkpt lat="45.63192" lon="6.59425">
        <ele>1764.64</ele>
        <time>2021-06-24T08:13:52Z</time>
      </trkpt>
      <trkpt lat="45.63185" lon="6.59437">
        <ele>1765.12</ele>
        <time>2021-06-24T08:14:05Z</time>
      </trkpt>
      <trkpt lat="45.63187" lon="6.59454">
        <ele>1763.68</ele>
        <time>2021-06-24T08:14:21Z</time>
      </trkpt>
      <trkpt lat="45.63186" lon="6.59457">
        <ele>1763.68</ele>
        <time>2021-06-24T08:14:25Z</time>
      </trkpt>
      <trkpt lat="45.63182" lon="6.59467">
        <ele>1765.12</ele>
        <time>2021-06-24T08:14:35Z</time>
      </trkpt>
      <trkpt lat="45.63182" lon="6.5947">
        <ele>1765.6</ele>
        <time>2021-06-24T08:14:38Z</time>
      </trkpt>
      <trkpt lat="45.63175" lon="6.59479">
        <ele>1766.56</ele>
        <time>2021-06-24T08:14:51Z</time>
      </trkpt>
      <trkpt lat="45.63167" lon="6.5948">
        <ele>1769.44</ele>
        <time>2021-06-24T08:15:04Z</time>
      </trkpt>
      <trkpt lat="45.63159" lon="6.59482">
        <ele>1770.89</ele>
        <time>2021-06-24T08:15:15Z</time>
      </trkpt>
      <trkpt lat="45.63158" lon="6.59491">
        <ele>1772.33</ele>
        <time>2021-06-24T08:15:29Z</time>
      </trkpt>
      <trkpt lat="45.63157" lon="6.59492">
        <ele>1772.33</ele>
        <time>2021-06-24T08:16:00Z</time>
      </trkpt>
      <trkpt lat="45.63157" lon="6.595">
        <ele>1772.33</ele>
        <time>2021-06-24T08:16:19Z</time>
      </trkpt>
      <trkpt lat="45.63158" lon="6.59508">
        <ele>1774.73</ele>
        <time>2021-06-24T08:16:35Z</time>
      </trkpt>
      <trkpt lat="45.63157" lon="6.59513">
        <ele>1776.17</ele>
        <time>2021-06-24T08:16:40Z</time>
      </trkpt>
      <trkpt lat="45.63154" lon="6.59528">
        <ele>1776.65</ele>
        <time>2021-06-24T08:16:53Z</time>
      </trkpt>
      <trkpt lat="45.63152" lon="6.5953">
        <ele>1776.65</ele>
        <time>2021-06-24T08:16:56Z</time>
      </trkpt>
      <trkpt lat="45.63143" lon="6.59536">
        <ele>1776.17</ele>
        <time>2021-06-24T08:17:09Z</time>
      </trkpt>
      <trkpt lat="45.6314" lon="6.59557">
        <ele>1776.17</ele>
        <time>2021-06-24T08:17:25Z</time>
      </trkpt>
      <trkpt lat="45.63138" lon="6.59561">
        <ele>1775.69</ele>
        <time>2021-06-24T08:17:43Z</time>
      </trkpt>
      <trkpt lat="45.63137" lon="6.59573">
        <ele>1775.21</ele>
        <time>2021-06-24T08:17:55Z</time>
      </trkpt>
      <trkpt lat="45.63132" lon="6.59573">
        <ele>1775.21</ele>
        <time>2021-06-24T08:18:09Z</time>
      </trkpt>
      <trkpt lat="45.63131" lon="6.59576">
        <ele>1775.21</ele>
        <time>2021-06-24T08:18:26Z</time>
      </trkpt>
      <trkpt lat="45.6313" lon="6.59573">
        <ele>1776.65</ele>
        <time>2021-06-24T08:18:39Z</time>
      </trkpt>
      <trkpt lat="45.63129" lon="6.59572">
        <ele>1777.13</ele>
        <time>2021-06-24T08:18:52Z</time>
      </trkpt>
      <trkpt lat="45.63124" lon="6.59567">
        <ele>1777.13</ele>
        <time>2021-06-24T08:19:16Z</time>
      </trkpt>
      <trkpt lat="45.63114" lon="6.59565">
        <ele>1778.58</ele>
        <time>2021-06-24T08:19:30Z</time>
      </trkpt>
      <trkpt lat="45.63107" lon="6.5956">
        <ele>1778.58</ele>
        <time>2021-06-24T08:19:43Z</time>
      </trkpt>
      <trkpt lat="45.63103" lon="6.59559">
        <ele>1778.58</ele>
        <time>2021-06-24T08:20:10Z</time>
      </trkpt>
      <trkpt lat="45.63096" lon="6.59558">
        <ele>1779.06</ele>
        <time>2021-06-24T08:20:21Z</time>
      </trkpt>
      <trkpt lat="45.63087" lon="6.59561">
        <ele>1780.02</ele>
        <time>2021-06-24T08:20:34Z</time>
      </trkpt>
      <trkpt lat="45.63077" lon="6.59562">
        <ele>1780.02</ele>
        <time>2021-06-24T08:20:45Z</time>
      </trkpt>
      <trkpt lat="45.63072" lon="6.59559">
        <ele>1780.02</ele>
        <time>2021-06-24T08:20:50Z</time>
      </trkpt>
      <trkpt lat="45.63069" lon="6.59559">
        <ele>1779.06</ele>
        <time>2021-06-24T08:20:53Z</time>
      </trkpt>
      <trkpt lat="45.63058" lon="6.59549">
        <ele>1778.1</ele>
        <time>2021-06-24T08:21:07Z</time>
      </trkpt>
      <trkpt lat="45.63056" lon="6.59542">
        <ele>1778.1</ele>
        <time>2021-06-24T08:21:13Z</time>
      </trkpt>
      <trkpt lat="45.63048" lon="6.59528">
        <ele>1776.17</ele>
        <time>2021-06-24T08:21:27Z</time>
      </trkpt>
      <trkpt lat="45.63039" lon="6.59511">
        <ele>1775.21</ele>
        <time>2021-06-24T08:21:42Z</time>
      </trkpt>
      <trkpt lat="45.63032" lon="6.5951">
        <ele>1776.65</ele>
        <time>2021-06-24T08:21:51Z</time>
      </trkpt>
      <trkpt lat="45.63023" lon="6.59518">
        <ele>1778.1</ele>
        <time>2021-06-24T08:22:05Z</time>
      </trkpt>
      <trkpt lat="45.63016" lon="6.59525">
        <ele>1780.98</ele>
        <time>2021-06-24T08:22:20Z</time>
      </trkpt>
      <trkpt lat="45.63008" lon="6.59528">
        <ele>1781.94</ele>
        <time>2021-06-24T08:22:33Z</time>
      </trkpt>
      <trkpt lat="45.63006" lon="6.5953">
        <ele>1781.94</ele>
        <time>2021-06-24T08:22:36Z</time>
      </trkpt>
      <trkpt lat="45.62995" lon="6.59541">
        <ele>1781.94</ele>
        <time>2021-06-24T08:22:50Z</time>
      </trkpt>
      <trkpt lat="45.62991" lon="6.59538">
        <ele>1781.94</ele>
        <time>2021-06-24T08:23:00Z</time>
      </trkpt>
      <trkpt lat="45.6299" lon="6.59536">
        <ele>1781.94</ele>
        <time>2021-06-24T08:23:02Z</time>
      </trkpt>
      <trkpt lat="45.62989" lon="6.59528">
        <ele>1782.42</ele>
        <time>2021-06-24T08:23:14Z</time>
      </trkpt>
      <trkpt lat="45.62991" lon="6.59518">
        <ele>1782.42</ele>
        <time>2021-06-24T08:23:24Z</time>
      </trkpt>
      <trkpt lat="45.62993" lon="6.59497">
        <ele>1784.82</ele>
        <time>2021-06-24T08:23:42Z</time>
      </trkpt>
      <trkpt lat="45.62988" lon="6.5949">
        <ele>1786.75</ele>
        <time>2021-06-24T08:23:54Z</time>
      </trkpt>
      <trkpt lat="45.62985" lon="6.59486">
        <ele>1788.19</ele>
        <time>2021-06-24T08:24:01Z</time>
      </trkpt>
      <trkpt lat="45.6298" lon="6.59487">
        <ele>1789.63</ele>
        <time>2021-06-24T08:24:14Z</time>
      </trkpt>
      <trkpt lat="45.62976" lon="6.59495">
        <ele>1791.55</ele>
        <time>2021-06-24T08:24:27Z</time>
      </trkpt>
      <trkpt lat="45.62972" lon="6.59501">
        <ele>1793</ele>
        <time>2021-06-24T08:24:38Z</time>
      </trkpt>
      <trkpt lat="45.62971" lon="6.59503">
        <ele>1793.48</ele>
        <time>2021-06-24T08:24:40Z</time>
      </trkpt>
      <trkpt lat="45.62964" lon="6.5951">
        <ele>1794.92</ele>
        <time>2021-06-24T08:24:52Z</time>
      </trkpt>
      <trkpt lat="45.62957" lon="6.59523">
        <ele>1796.36</ele>
        <time>2021-06-24T08:25:07Z</time>
      </trkpt>
      <trkpt lat="45.62947" lon="6.59526">
        <ele>1797.32</ele>
        <time>2021-06-24T08:25:20Z</time>
      </trkpt>
      <trkpt lat="45.62938" lon="6.59532">
        <ele>1799.24</ele>
        <time>2021-06-24T08:25:34Z</time>
      </trkpt>
      <trkpt lat="45.62932" lon="6.59538">
        <ele>1801.17</ele>
        <time>2021-06-24T08:25:45Z</time>
      </trkpt>
      <trkpt lat="45.62927" lon="6.59541">
        <ele>1801.17</ele>
        <time>2021-06-24T08:25:53Z</time>
      </trkpt>
      <trkpt lat="45.62917" lon="6.59537">
        <ele>1803.09</ele>
        <time>2021-06-24T08:26:07Z</time>
      </trkpt>
      <trkpt lat="45.62909" lon="6.59544">
        <ele>1805.01</ele>
        <time>2021-06-24T08:26:23Z</time>
      </trkpt>
      <trkpt lat="45.62905" lon="6.59553">
        <ele>1806.45</ele>
        <time>2021-06-24T08:26:34Z</time>
      </trkpt>
      <trkpt lat="45.62897" lon="6.59562">
        <ele>1807.42</ele>
        <time>2021-06-24T08:26:46Z</time>
      </trkpt>
      <trkpt lat="45.62892" lon="6.59568">
        <ele>1808.86</ele>
        <time>2021-06-24T08:26:59Z</time>
      </trkpt>
      <trkpt lat="45.62887" lon="6.59577">
        <ele>1810.78</ele>
        <time>2021-06-24T08:27:13Z</time>
      </trkpt>
      <trkpt lat="45.62881" lon="6.59583">
        <ele>1812.22</ele>
        <time>2021-06-24T08:27:28Z</time>
      </trkpt>
      <trkpt lat="45.62874" lon="6.59593">
        <ele>1813.18</ele>
        <time>2021-06-24T08:27:43Z</time>
      </trkpt>
      <trkpt lat="45.62864" lon="6.59596">
        <ele>1815.11</ele>
        <time>2021-06-24T08:27:59Z</time>
      </trkpt>
      <trkpt lat="45.62857" lon="6.59604">
        <ele>1816.55</ele>
        <time>2021-06-24T08:28:11Z</time>
      </trkpt>
      <trkpt lat="45.62848" lon="6.59605">
        <ele>1817.99</ele>
        <time>2021-06-24T08:28:25Z</time>
      </trkpt>
      <trkpt lat="45.62839" lon="6.59598">
        <ele>1820.39</ele>
        <time>2021-06-24T08:28:38Z</time>
      </trkpt>
      <trkpt lat="45.6283" lon="6.59599">
        <ele>1821.84</ele>
        <time>2021-06-24T08:28:51Z</time>
      </trkpt>
      <trkpt lat="45.62822" lon="6.59598">
        <ele>1823.28</ele>
        <time>2021-06-24T08:29:03Z</time>
      </trkpt>
      <trkpt lat="45.62816" lon="6.59599">
        <ele>1824.72</ele>
        <time>2021-06-24T08:29:16Z</time>
      </trkpt>
      <trkpt lat="45.62811" lon="6.59599">
        <ele>1826.16</ele>
        <time>2021-06-24T08:29:27Z</time>
      </trkpt>
      <trkpt lat="45.62803" lon="6.59601">
        <ele>1826.64</ele>
        <time>2021-06-24T08:29:40Z</time>
      </trkpt>
      <trkpt lat="45.62805" lon="6.59599">
        <ele>1827.6</ele>
        <time>2021-06-24T08:29:56Z</time>
      </trkpt>
      <trkpt lat="45.6281" lon="6.59596">
        <ele>1827.6</ele>
        <time>2021-06-24T08:30:08Z</time>
      </trkpt>
      <trkpt lat="45.62812" lon="6.596">
        <ele>1826.64</ele>
        <time>2021-06-24T08:30:25Z</time>
      </trkpt>
      <trkpt lat="45.62812" lon="6.596">
        <ele>1826.64</ele>
        <time>2021-06-24T08:30:51Z</time>
      </trkpt>
      <trkpt lat="45.62807" lon="6.59602">
        <ele>1826.64</ele>
        <time>2021-06-24T08:31:27Z</time>
      </trkpt>
      <trkpt lat="45.62803" lon="6.59602">
        <ele>1826.64</ele>
        <time>2021-06-24T08:31:34Z</time>
      </trkpt>
      <trkpt lat="45.62793" lon="6.596">
        <ele>1827.12</ele>
        <time>2021-06-24T08:31:48Z</time>
      </trkpt>
      <trkpt lat="45.62793" lon="6.59603">
        <ele>1827.12</ele>
        <time>2021-06-24T08:32:21Z</time>
      </trkpt>
      <trkpt lat="45.62792" lon="6.596">
        <ele>1827.12</ele>
        <time>2021-06-24T08:32:46Z</time>
      </trkpt>
      <trkpt lat="45.62794" lon="6.59604">
        <ele>1827.12</ele>
        <time>2021-06-24T08:32:58Z</time>
      </trkpt>
      <trkpt lat="45.62795" lon="6.59604">
        <ele>1827.12</ele>
        <time>2021-06-24T08:33:18Z</time>
      </trkpt>
      <trkpt lat="45.62793" lon="6.59608">
        <ele>1827.12</ele>
        <time>2021-06-24T08:33:50Z</time>
      </trkpt>
      <trkpt lat="45.62788" lon="6.59611">
        <ele>1827.12</ele>
        <time>2021-06-24T08:33:56Z</time>
      </trkpt>
      <trkpt lat="45.62776" lon="6.59627">
        <ele>1829.53</ele>
        <time>2021-06-24T08:34:11Z</time>
      </trkpt>
      <trkpt lat="45.62773" lon="6.59631">
        <ele>1829.53</ele>
        <time>2021-06-24T08:34:15Z</time>
      </trkpt>
      <trkpt lat="45.6277" lon="6.59633">
        <ele>1828.08</ele>
        <time>2021-06-24T08:34:18Z</time>
      </trkpt>
      <trkpt lat="45.62768" lon="6.59636">
        <ele>1828.08</ele>
        <time>2021-06-24T08:34:21Z</time>
      </trkpt>
      <trkpt lat="45.62765" lon="6.59642">
        <ele>1828.08</ele>
        <time>2021-06-24T08:34:26Z</time>
      </trkpt>
      <trkpt lat="45.62765" lon="6.59645">
        <ele>1828.08</ele>
        <time>2021-06-24T08:34:28Z</time>
      </trkpt>
      <trkpt lat="45.62763" lon="6.59647">
        <ele>1828.08</ele>
        <time>2021-06-24T08:34:30Z</time>
      </trkpt>
      <trkpt lat="45.62761" lon="6.59655">
        <ele>1828.08</ele>
        <time>2021-06-24T08:34:36Z</time>
      </trkpt>
      <trkpt lat="45.62759" lon="6.59659">
        <ele>1829.53</ele>
        <time>2021-06-24T08:34:39Z</time>
      </trkpt>
      <trkpt lat="45.62753" lon="6.59675">
        <ele>1829.53</ele>
        <time>2021-06-24T08:34:52Z</time>
      </trkpt>
      <trkpt lat="45.6275" lon="6.59688">
        <ele>1829.53</ele>
        <time>2021-06-24T08:35:00Z</time>
      </trkpt>
      <trkpt lat="45.62746" lon="6.597">
        <ele>1830.01</ele>
        <time>2021-06-24T08:35:09Z</time>
      </trkpt>
      <trkpt lat="45.6274" lon="6.59721">
        <ele>1830.97</ele>
        <time>2021-06-24T08:35:24Z</time>
      </trkpt>
      <trkpt lat="45.62738" lon="6.59722">
        <ele>1830.97</ele>
        <time>2021-06-24T08:35:26Z</time>
      </trkpt>
      <trkpt lat="45.62732" lon="6.5974">
        <ele>1832.41</ele>
        <time>2021-06-24T08:35:40Z</time>
      </trkpt>
      <trkpt lat="45.62726" lon="6.59754">
        <ele>1833.37</ele>
        <time>2021-06-24T08:35:52Z</time>
      </trkpt>
      <trkpt lat="45.62724" lon="6.59768">
        <ele>1834.81</ele>
        <time>2021-06-24T08:36:04Z</time>
      </trkpt>
      <trkpt lat="45.62728" lon="6.59786">
        <ele>1836.26</ele>
        <time>2021-06-24T08:36:18Z</time>
      </trkpt>
      <trkpt lat="45.62729" lon="6.59803">
        <ele>1837.22</ele>
        <time>2021-06-24T08:36:33Z</time>
      </trkpt>
      <trkpt lat="45.62725" lon="6.59806">
        <ele>1838.18</ele>
        <time>2021-06-24T08:36:37Z</time>
      </trkpt>
      <trkpt lat="45.62713" lon="6.59805">
        <ele>1839.14</ele>
        <time>2021-06-24T08:36:51Z</time>
      </trkpt>
      <trkpt lat="45.62704" lon="6.59807">
        <ele>1840.1</ele>
        <time>2021-06-24T08:37:05Z</time>
      </trkpt>
      <trkpt lat="45.62705" lon="6.59821">
        <ele>1842.02</ele>
        <time>2021-06-24T08:37:19Z</time>
      </trkpt>
      <trkpt lat="45.62705" lon="6.59835">
        <ele>1843.47</ele>
        <time>2021-06-24T08:37:33Z</time>
      </trkpt>
      <trkpt lat="45.62703" lon="6.59845">
        <ele>1845.39</ele>
        <time>2021-06-24T08:37:47Z</time>
      </trkpt>
      <trkpt lat="45.62699" lon="6.59855">
        <ele>1847.31</ele>
        <time>2021-06-24T08:37:59Z</time>
      </trkpt>
      <trkpt lat="45.62696" lon="6.59864">
        <ele>1849.71</ele>
        <time>2021-06-24T08:38:14Z</time>
      </trkpt>
      <trkpt lat="45.62692" lon="6.59874">
        <ele>1852.12</ele>
        <time>2021-06-24T08:38:29Z</time>
      </trkpt>
      <trkpt lat="45.62683" lon="6.5988">
        <ele>1855</ele>
        <time>2021-06-24T08:38:44Z</time>
      </trkpt>
      <trkpt lat="45.62679" lon="6.59882">
        <ele>1856.44</ele>
        <time>2021-06-24T08:38:56Z</time>
      </trkpt>
      <trkpt lat="45.62676" lon="6.59888">
        <ele>1858.37</ele>
        <time>2021-06-24T08:39:10Z</time>
      </trkpt>
      <trkpt lat="45.62676" lon="6.59899">
        <ele>1860.29</ele>
        <time>2021-06-24T08:39:26Z</time>
      </trkpt>
      <trkpt lat="45.62682" lon="6.59907">
        <ele>1862.69</ele>
        <time>2021-06-24T08:39:39Z</time>
      </trkpt>
      <trkpt lat="45.62684" lon="6.59914">
        <ele>1864.61</ele>
        <time>2021-06-24T08:39:54Z</time>
      </trkpt>
      <trkpt lat="45.62679" lon="6.59923">
        <ele>1866.54</ele>
        <time>2021-06-24T08:40:05Z</time>
      </trkpt>
      <trkpt lat="45.62678" lon="6.59932">
        <ele>1869.9</ele>
        <time>2021-06-24T08:40:15Z</time>
      </trkpt>
      <trkpt lat="45.62683" lon="6.59942">
        <ele>1872.3</ele>
        <time>2021-06-24T08:40:27Z</time>
      </trkpt>
      <trkpt lat="45.62695" lon="6.59949">
        <ele>1874.23</ele>
        <time>2021-06-24T08:40:41Z</time>
      </trkpt>
      <trkpt lat="45.62698" lon="6.59951">
        <ele>1874.23</ele>
        <time>2021-06-24T08:40:59Z</time>
      </trkpt>
      <trkpt lat="45.62703" lon="6.59955">
        <ele>1875.19</ele>
        <time>2021-06-24T08:41:13Z</time>
      </trkpt>
      <trkpt lat="45.62703" lon="6.59957">
        <ele>1875.19</ele>
        <time>2021-06-24T08:41:32Z</time>
      </trkpt>
      <trkpt lat="45.62701" lon="6.59954">
        <ele>1875.19</ele>
        <time>2021-06-24T08:41:48Z</time>
      </trkpt>
      <trkpt lat="45.62701" lon="6.59953">
        <ele>1875.67</ele>
        <time>2021-06-24T08:42:08Z</time>
      </trkpt>
      <trkpt lat="45.62704" lon="6.59964">
        <ele>1877.11</ele>
        <time>2021-06-24T08:42:21Z</time>
      </trkpt>
      <trkpt lat="45.62709" lon="6.59975">
        <ele>1879.51</ele>
        <time>2021-06-24T08:42:35Z</time>
      </trkpt>
      <trkpt lat="45.6271" lon="6.59982">
        <ele>1881.92</ele>
        <time>2021-06-24T08:42:49Z</time>
      </trkpt>
      <trkpt lat="45.62714" lon="6.59988">
        <ele>1883.36</ele>
        <time>2021-06-24T08:43:01Z</time>
      </trkpt>
      <trkpt lat="45.62716" lon="6.59998">
        <ele>1885.28</ele>
        <time>2021-06-24T08:43:14Z</time>
      </trkpt>
      <trkpt lat="45.62715" lon="6.60011">
        <ele>1886.72</ele>
        <time>2021-06-24T08:43:28Z</time>
      </trkpt>
      <trkpt lat="45.62717" lon="6.60024">
        <ele>1889.61</ele>
        <time>2021-06-24T08:43:40Z</time>
      </trkpt>
      <trkpt lat="45.62719" lon="6.6003">
        <ele>1891.05</ele>
        <time>2021-06-24T08:43:54Z</time>
      </trkpt>
      <trkpt lat="45.62717" lon="6.60039">
        <ele>1892.49</ele>
        <time>2021-06-24T08:44:16Z</time>
      </trkpt>
      <trkpt lat="45.62717" lon="6.60044">
        <ele>1892.97</ele>
        <time>2021-06-24T08:44:20Z</time>
      </trkpt>
      <trkpt lat="45.62719" lon="6.60056">
        <ele>1895.86</ele>
        <time>2021-06-24T08:44:35Z</time>
      </trkpt>
      <trkpt lat="45.62719" lon="6.60057">
        <ele>1895.86</ele>
        <time>2021-06-24T08:44:36Z</time>
      </trkpt>
      <trkpt lat="45.62719" lon="6.60061">
        <ele>1896.34</ele>
        <time>2021-06-24T08:44:39Z</time>
      </trkpt>
      <trkpt lat="45.62715" lon="6.60074">
        <ele>1896.82</ele>
        <time>2021-06-24T08:44:53Z</time>
      </trkpt>
      <trkpt lat="45.62705" lon="6.60077">
        <ele>1898.26</ele>
        <time>2021-06-24T08:45:07Z</time>
      </trkpt>
      <trkpt lat="45.62701" lon="6.60075">
        <ele>1898.26</ele>
        <time>2021-06-24T08:45:11Z</time>
      </trkpt>
      <trkpt lat="45.62699" lon="6.60073">
        <ele>1899.22</ele>
        <time>2021-06-24T08:45:27Z</time>
      </trkpt>
      <trkpt lat="45.62695" lon="6.60073">
        <ele>1899.22</ele>
        <time>2021-06-24T08:45:47Z</time>
      </trkpt>
      <trkpt lat="45.62693" lon="6.60073">
        <ele>1899.22</ele>
        <time>2021-06-24T08:45:49Z</time>
      </trkpt>
      <trkpt lat="45.62688" lon="6.60075">
        <ele>1897.78</ele>
        <time>2021-06-24T08:46:06Z</time>
      </trkpt>
      <trkpt lat="45.62684" lon="6.60074">
        <ele>1897.78</ele>
        <time>2021-06-24T08:46:10Z</time>
      </trkpt>
      <trkpt lat="45.62674" lon="6.60071">
        <ele>1897.78</ele>
        <time>2021-06-24T08:46:19Z</time>
      </trkpt>
      <trkpt lat="45.62658" lon="6.60072">
        <ele>1897.3</ele>
        <time>2021-06-24T08:46:33Z</time>
      </trkpt>
      <trkpt lat="45.62652" lon="6.60071">
        <ele>1897.3</ele>
        <time>2021-06-24T08:46:38Z</time>
      </trkpt>
      <trkpt lat="45.62642" lon="6.60075">
        <ele>1897.3</ele>
        <time>2021-06-24T08:46:48Z</time>
      </trkpt>
      <trkpt lat="45.62638" lon="6.60076">
        <ele>1897.3</ele>
        <time>2021-06-24T08:46:51Z</time>
      </trkpt>
      <trkpt lat="45.62635" lon="6.60077">
        <ele>1897.3</ele>
        <time>2021-06-24T08:46:54Z</time>
      </trkpt>
      <trkpt lat="45.6263" lon="6.60077">
        <ele>1897.3</ele>
        <time>2021-06-24T08:46:59Z</time>
      </trkpt>
      <trkpt lat="45.62626" lon="6.60079">
        <ele>1898.26</ele>
        <time>2021-06-24T08:47:03Z</time>
      </trkpt>
      <trkpt lat="45.62622" lon="6.60082">
        <ele>1899.22</ele>
        <time>2021-06-24T08:47:07Z</time>
      </trkpt>
      <trkpt lat="45.62614" lon="6.60088">
        <ele>1901.63</ele>
        <time>2021-06-24T08:47:18Z</time>
      </trkpt>
      <trkpt lat="45.62606" lon="6.6009">
        <ele>1902.59</ele>
        <time>2021-06-24T08:47:29Z</time>
      </trkpt>
      <trkpt lat="45.62599" lon="6.60089">
        <ele>1905.47</ele>
        <time>2021-06-24T08:47:40Z</time>
      </trkpt>
      <trkpt lat="45.62597" lon="6.60087">
        <ele>1906.91</ele>
        <time>2021-06-24T08:47:53Z</time>
      </trkpt>
      <trkpt lat="45.62597" lon="6.60086">
        <ele>1907.39</ele>
        <time>2021-06-24T08:48:16Z</time>
      </trkpt>
      <trkpt lat="45.62596" lon="6.60087">
        <ele>1907.39</ele>
        <time>2021-06-24T08:48:39Z</time>
      </trkpt>
      <trkpt lat="45.62597" lon="6.60086">
        <ele>1907.39</ele>
        <time>2021-06-24T08:49:04Z</time>
      </trkpt>
      <trkpt lat="45.62598" lon="6.60085">
        <ele>1907.39</ele>
        <time>2021-06-24T08:49:30Z</time>
      </trkpt>
      <trkpt lat="45.62596" lon="6.60088">
        <ele>1907.39</ele>
        <time>2021-06-24T08:50:01Z</time>
      </trkpt>
      <trkpt lat="45.62594" lon="6.60085">
        <ele>1907.39</ele>
        <time>2021-06-24T08:50:13Z</time>
      </trkpt>
      <trkpt lat="45.62595" lon="6.60084">
        <ele>1907.39</ele>
        <time>2021-06-24T08:50:34Z</time>
      </trkpt>
      <trkpt lat="45.62598" lon="6.60086">
        <ele>1907.87</ele>
        <time>2021-06-24T08:51:10Z</time>
      </trkpt>
      <trkpt lat="45.62594" lon="6.60086">
        <ele>1907.87</ele>
        <time>2021-06-24T08:51:24Z</time>
      </trkpt>
      <trkpt lat="45.62589" lon="6.60089">
        <ele>1908.35</ele>
        <time>2021-06-24T08:51:40Z</time>
      </trkpt>
      <trkpt lat="45.6259" lon="6.60089">
        <ele>1908.35</ele>
        <time>2021-06-24T08:52:08Z</time>
      </trkpt>
      <trkpt lat="45.62585" lon="6.60091">
        <ele>1908.35</ele>
        <time>2021-06-24T08:52:24Z</time>
      </trkpt>
      <trkpt lat="45.62577" lon="6.60096">
        <ele>1910.28</ele>
        <time>2021-06-24T08:52:37Z</time>
      </trkpt>
      <trkpt lat="45.62577" lon="6.60092">
        <ele>1911.24</ele>
        <time>2021-06-24T08:52:41Z</time>
      </trkpt>
      <trkpt lat="45.62578" lon="6.60089">
        <ele>1911.24</ele>
        <time>2021-06-24T08:52:43Z</time>
      </trkpt>
      <trkpt lat="45.62575" lon="6.60078">
        <ele>1911.24</ele>
        <time>2021-06-24T08:52:56Z</time>
      </trkpt>
      <trkpt lat="45.62574" lon="6.60067">
        <ele>1911.72</ele>
        <time>2021-06-24T08:53:11Z</time>
      </trkpt>
      <trkpt lat="45.62573" lon="6.60055">
        <ele>1912.68</ele>
        <time>2021-06-24T08:53:26Z</time>
      </trkpt>
      <trkpt lat="45.62572" lon="6.60045">
        <ele>1914.12</ele>
        <time>2021-06-24T08:53:38Z</time>
      </trkpt>
      <trkpt lat="45.62564" lon="6.6004">
        <ele>1914.12</ele>
        <time>2021-06-24T08:53:49Z</time>
      </trkpt>
      <trkpt lat="45.6256" lon="6.60038">
        <ele>1914.12</ele>
        <time>2021-06-24T08:53:53Z</time>
      </trkpt>
      <trkpt lat="45.62549" lon="6.60034">
        <ele>1914.12</ele>
        <time>2021-06-24T08:54:05Z</time>
      </trkpt>
      <trkpt lat="45.62546" lon="6.60026">
        <ele>1914.12</ele>
        <time>2021-06-24T08:54:12Z</time>
      </trkpt>
      <trkpt lat="45.62537" lon="6.60017">
        <ele>1914.6</ele>
        <time>2021-06-24T08:54:24Z</time>
      </trkpt>
      <trkpt lat="45.62533" lon="6.60013">
        <ele>1916.04</ele>
        <time>2021-06-24T08:54:29Z</time>
      </trkpt>
      <trkpt lat="45.62519" lon="6.6001">
        <ele>1916.53</ele>
        <time>2021-06-24T08:54:45Z</time>
      </trkpt>
      <trkpt lat="45.62515" lon="6.60011">
        <ele>1917.01</ele>
        <time>2021-06-24T08:54:50Z</time>
      </trkpt>
      <trkpt lat="45.62502" lon="6.6001">
        <ele>1917.97</ele>
        <time>2021-06-24T08:55:03Z</time>
      </trkpt>
      <trkpt lat="45.6249" lon="6.6">
        <ele>1918.45</ele>
        <time>2021-06-24T08:55:18Z</time>
      </trkpt>
      <trkpt lat="45.62478" lon="6.59989">
        <ele>1918.93</ele>
        <time>2021-06-24T08:55:33Z</time>
      </trkpt>
      <trkpt lat="45.62475" lon="6.59989">
        <ele>1918.93</ele>
        <time>2021-06-24T08:55:37Z</time>
      </trkpt>
      <trkpt lat="45.62465" lon="6.5998">
        <ele>1920.37</ele>
        <time>2021-06-24T08:55:52Z</time>
      </trkpt>
      <trkpt lat="45.62458" lon="6.59974">
        <ele>1922.29</ele>
        <time>2021-06-24T08:56:04Z</time>
      </trkpt>
      <trkpt lat="45.62454" lon="6.5997">
        <ele>1924.7</ele>
        <time>2021-06-24T08:56:16Z</time>
      </trkpt>
      <trkpt lat="45.62445" lon="6.59966">
        <ele>1926.14</ele>
        <time>2021-06-24T08:56:28Z</time>
      </trkpt>
      <trkpt lat="45.62439" lon="6.59955">
        <ele>1928.54</ele>
        <time>2021-06-24T08:56:43Z</time>
      </trkpt>
      <trkpt lat="45.62433" lon="6.5995">
        <ele>1930.46</ele>
        <time>2021-06-24T08:56:58Z</time>
      </trkpt>
      <trkpt lat="45.62427" lon="6.59944">
        <ele>1932.87</ele>
        <time>2021-06-24T08:57:11Z</time>
      </trkpt>
      <trkpt lat="45.62422" lon="6.5994">
        <ele>1933.83</ele>
        <time>2021-06-24T08:57:24Z</time>
      </trkpt>
      <trkpt lat="45.62419" lon="6.59935">
        <ele>1935.75</ele>
        <time>2021-06-24T08:57:37Z</time>
      </trkpt>
      <trkpt lat="45.62417" lon="6.59932">
        <ele>1936.23</ele>
        <time>2021-06-24T08:57:58Z</time>
      </trkpt>
      <trkpt lat="45.62411" lon="6.59929">
        <ele>1938.16</ele>
        <time>2021-06-24T08:58:10Z</time>
      </trkpt>
      <trkpt lat="45.62406" lon="6.59928">
        <ele>1939.6</ele>
        <time>2021-06-24T08:58:22Z</time>
      </trkpt>
      <trkpt lat="45.62399" lon="6.59932">
        <ele>1941.04</ele>
        <time>2021-06-24T08:58:38Z</time>
      </trkpt>
      <trkpt lat="45.62394" lon="6.59939">
        <ele>1942.48</ele>
        <time>2021-06-24T08:58:50Z</time>
      </trkpt>
      <trkpt lat="45.62386" lon="6.59948">
        <ele>1943.92</ele>
        <time>2021-06-24T08:59:04Z</time>
      </trkpt>
      <trkpt lat="45.62383" lon="6.59952">
        <ele>1943.92</ele>
        <time>2021-06-24T08:59:09Z</time>
      </trkpt>
      <trkpt lat="45.6238" lon="6.59958">
        <ele>1944.4</ele>
        <time>2021-06-24T08:59:14Z</time>
      </trkpt>
      <trkpt lat="45.6237" lon="6.59967">
        <ele>1945.36</ele>
        <time>2021-06-24T08:59:27Z</time>
      </trkpt>
      <trkpt lat="45.62361" lon="6.59967">
        <ele>1946.81</ele>
        <time>2021-06-24T08:59:39Z</time>
      </trkpt>
      <trkpt lat="45.62352" lon="6.59965">
        <ele>1948.25</ele>
        <time>2021-06-24T08:59:51Z</time>
      </trkpt>
      <trkpt lat="45.62347" lon="6.59957">
        <ele>1950.17</ele>
        <time>2021-06-24T09:00:01Z</time>
      </trkpt>
      <trkpt lat="45.62346" lon="6.59954">
        <ele>1950.65</ele>
        <time>2021-06-24T09:00:20Z</time>
      </trkpt>
      <trkpt lat="45.62341" lon="6.59959">
        <ele>1951.13</ele>
        <time>2021-06-24T09:00:33Z</time>
      </trkpt>
      <trkpt lat="45.62334" lon="6.59961">
        <ele>1953.06</ele>
        <time>2021-06-24T09:00:47Z</time>
      </trkpt>
      <trkpt lat="45.62331" lon="6.59962">
        <ele>1954.02</ele>
        <time>2021-06-24T09:00:51Z</time>
      </trkpt>
      <trkpt lat="45.62328" lon="6.59963">
        <ele>1954.02</ele>
        <time>2021-06-24T09:00:55Z</time>
      </trkpt>
      <trkpt lat="45.62324" lon="6.59963">
        <ele>1954.02</ele>
        <time>2021-06-24T09:01:02Z</time>
      </trkpt>
      <trkpt lat="45.62317" lon="6.59965">
        <ele>1954.5</ele>
        <time>2021-06-24T09:01:08Z</time>
      </trkpt>
      <trkpt lat="45.62314" lon="6.59963">
        <ele>1954.5</ele>
        <time>2021-06-24T09:01:11Z</time>
      </trkpt>
      <trkpt lat="45.62307" lon="6.59962">
        <ele>1950.17</ele>
        <time>2021-06-24T09:01:18Z</time>
      </trkpt>
      <trkpt lat="45.62306" lon="6.59962">
        <ele>1956.42</ele>
        <time>2021-06-24T09:01:19Z</time>
      </trkpt>
      <trkpt lat="45.62306" lon="6.59962">
        <ele>1956.42</ele>
        <time>2021-06-24T09:01:20Z</time>
      </trkpt>
      <trkpt lat="45.62305" lon="6.59962">
        <ele>1953.06</ele>
        <time>2021-06-24T09:01:21Z</time>
      </trkpt>
      <trkpt lat="45.62303" lon="6.59962">
        <ele>1957.38</ele>
        <time>2021-06-24T09:01:23Z</time>
      </trkpt>
      <trkpt lat="45.62302" lon="6.59961">
        <ele>1954.98</ele>
        <time>2021-06-24T09:01:24Z</time>
      </trkpt>
      <trkpt lat="45.62294" lon="6.59957">
        <ele>1954.02</ele>
        <time>2021-06-24T09:01:36Z</time>
      </trkpt>
      <trkpt lat="45.6229" lon="6.59952">
        <ele>1953.54</ele>
        <time>2021-06-24T09:01:43Z</time>
      </trkpt>
      <trkpt lat="45.62283" lon="6.59935">
        <ele>1954.98</ele>
        <time>2021-06-24T09:01:58Z</time>
      </trkpt>
      <trkpt lat="45.62273" lon="6.59932">
        <ele>1957.38</ele>
        <time>2021-06-24T09:02:12Z</time>
      </trkpt>
      <trkpt lat="45.62272" lon="6.59933">
        <ele>1957.38</ele>
        <time>2021-06-24T09:02:14Z</time>
      </trkpt>
      <trkpt lat="45.62264" lon="6.59942">
        <ele>1958.34</ele>
        <time>2021-06-24T09:02:27Z</time>
      </trkpt>
      <trkpt lat="45.6226" lon="6.59956">
        <ele>1960.27</ele>
        <time>2021-06-24T09:02:40Z</time>
      </trkpt>
      <trkpt lat="45.62251" lon="6.59958">
        <ele>1961.71</ele>
        <time>2021-06-24T09:02:54Z</time>
      </trkpt>
      <trkpt lat="45.62243" lon="6.59957">
        <ele>1963.15</ele>
        <time>2021-06-24T09:03:09Z</time>
      </trkpt>
      <trkpt lat="45.62235" lon="6.59958">
        <ele>1965.07</ele>
        <time>2021-06-24T09:03:23Z</time>
      </trkpt>
      <trkpt lat="45.62227" lon="6.59959">
        <ele>1966.99</ele>
        <time>2021-06-24T09:03:36Z</time>
      </trkpt>
      <trkpt lat="45.62225" lon="6.59969">
        <ele>1969.4</ele>
        <time>2021-06-24T09:03:50Z</time>
      </trkpt>
      <trkpt lat="45.62223" lon="6.59978">
        <ele>1970.36</ele>
        <time>2021-06-24T09:04:03Z</time>
      </trkpt>
      <trkpt lat="45.62218" lon="6.59978">
        <ele>1971.8</ele>
        <time>2021-06-24T09:04:11Z</time>
      </trkpt>
      <trkpt lat="45.62211" lon="6.59982">
        <ele>1972.76</ele>
        <time>2021-06-24T09:04:23Z</time>
      </trkpt>
      <trkpt lat="45.62206" lon="6.59989">
        <ele>1974.69</ele>
        <time>2021-06-24T09:04:37Z</time>
      </trkpt>
      <trkpt lat="45.622" lon="6.59995">
        <ele>1976.61</ele>
        <time>2021-06-24T09:04:51Z</time>
      </trkpt>
      <trkpt lat="45.62201" lon="6.59997">
        <ele>1977.57</ele>
        <time>2021-06-24T09:05:07Z</time>
      </trkpt>
      <trkpt lat="45.62201" lon="6.59998">
        <ele>1977.57</ele>
        <time>2021-06-24T09:05:42Z</time>
      </trkpt>
      <trkpt lat="45.622" lon="6.59995">
        <ele>1977.57</ele>
        <time>2021-06-24T09:06:08Z</time>
      </trkpt>
      <trkpt lat="45.622" lon="6.59997">
        <ele>1977.57</ele>
        <time>2021-06-24T09:06:32Z</time>
      </trkpt>
      <trkpt lat="45.62199" lon="6.59998">
        <ele>1978.05</ele>
        <time>2021-06-24T09:07:05Z</time>
      </trkpt>
      <trkpt lat="45.62201" lon="6.59998">
        <ele>1978.05</ele>
        <time>2021-06-24T09:07:33Z</time>
      </trkpt>
      <trkpt lat="45.622" lon="6.59997">
        <ele>1978.53</ele>
        <time>2021-06-24T09:07:55Z</time>
      </trkpt>
      <trkpt lat="45.62198" lon="6.59999">
        <ele>1978.53</ele>
        <time>2021-06-24T09:08:25Z</time>
      </trkpt>
      <trkpt lat="45.62196" lon="6.59999">
        <ele>1978.53</ele>
        <time>2021-06-24T09:08:58Z</time>
      </trkpt>
      <trkpt lat="45.62194" lon="6.59995">
        <ele>1978.53</ele>
        <time>2021-06-24T09:09:26Z</time>
      </trkpt>
      <trkpt lat="45.6219" lon="6.59995">
        <ele>1979.01</ele>
        <time>2021-06-24T09:09:43Z</time>
      </trkpt>
      <trkpt lat="45.62186" lon="6.60001">
        <ele>1980.93</ele>
        <time>2021-06-24T09:09:58Z</time>
      </trkpt>
      <trkpt lat="45.62178" lon="6.60005">
        <ele>1983.34</ele>
        <time>2021-06-24T09:10:14Z</time>
      </trkpt>
      <trkpt lat="45.6217" lon="6.60008">
        <ele>1985.74</ele>
        <time>2021-06-24T09:10:27Z</time>
      </trkpt>
      <trkpt lat="45.62162" lon="6.60016">
        <ele>1987.18</ele>
        <time>2021-06-24T09:10:41Z</time>
      </trkpt>
      <trkpt lat="45.6216" lon="6.60025">
        <ele>1989.59</ele>
        <time>2021-06-24T09:10:55Z</time>
      </trkpt>
      <trkpt lat="45.62153" lon="6.60027">
        <ele>1992.47</ele>
        <time>2021-06-24T09:11:09Z</time>
      </trkpt>
      <trkpt lat="45.62149" lon="6.6003">
        <ele>1993.91</ele>
        <time>2021-06-24T09:11:20Z</time>
      </trkpt>
      <trkpt lat="45.62141" lon="6.60032">
        <ele>1996.8</ele>
        <time>2021-06-24T09:11:34Z</time>
      </trkpt>
      <trkpt lat="45.62138" lon="6.60032">
        <ele>1997.76</ele>
        <time>2021-06-24T09:11:47Z</time>
      </trkpt>
      <trkpt lat="45.62129" lon="6.60033">
        <ele>1998.72</ele>
        <time>2021-06-24T09:12:05Z</time>
      </trkpt>
      <trkpt lat="45.62127" lon="6.60032">
        <ele>1999.2</ele>
        <time>2021-06-24T09:12:07Z</time>
      </trkpt>
      <trkpt lat="45.6212" lon="6.6002">
        <ele>2002.08</ele>
        <time>2021-06-24T09:12:20Z</time>
      </trkpt>
      <trkpt lat="45.62118" lon="6.60019">
        <ele>2002.56</ele>
        <time>2021-06-24T09:12:22Z</time>
      </trkpt>
      <trkpt lat="45.62107" lon="6.60023">
        <ele>2005.93</ele>
        <time>2021-06-24T09:12:36Z</time>
      </trkpt>
      <trkpt lat="45.62104" lon="6.60024">
        <ele>2007.37</ele>
        <time>2021-06-24T09:12:40Z</time>
      </trkpt>
      <trkpt lat="45.62097" lon="6.60024">
        <ele>2010.25</ele>
        <time>2021-06-24T09:12:51Z</time>
      </trkpt>
      <trkpt lat="45.62098" lon="6.60022">
        <ele>2010.25</ele>
        <time>2021-06-24T09:12:54Z</time>
      </trkpt>
      <trkpt lat="45.62102" lon="6.60013">
        <ele>2011.7</ele>
        <time>2021-06-24T09:13:03Z</time>
      </trkpt>
      <trkpt lat="45.62105" lon="6.60001">
        <ele>2013.14</ele>
        <time>2021-06-24T09:13:15Z</time>
      </trkpt>
      <trkpt lat="45.62099" lon="6.59997">
        <ele>2016.02</ele>
        <time>2021-06-24T09:13:26Z</time>
      </trkpt>
      <trkpt lat="45.62093" lon="6.60002">
        <ele>2016.98</ele>
        <time>2021-06-24T09:13:34Z</time>
      </trkpt>
      <trkpt lat="45.62091" lon="6.60002">
        <ele>2017.46</ele>
        <time>2021-06-24T09:13:36Z</time>
      </trkpt>
      <trkpt lat="45.6208" lon="6.60006">
        <ele>2020.35</ele>
        <time>2021-06-24T09:13:49Z</time>
      </trkpt>
      <trkpt lat="45.62068" lon="6.60011">
        <ele>2022.27</ele>
        <time>2021-06-24T09:14:02Z</time>
      </trkpt>
      <trkpt lat="45.62056" lon="6.60009">
        <ele>2024.67</ele>
        <time>2021-06-24T09:14:16Z</time>
      </trkpt>
      <trkpt lat="45.62046" lon="6.60007">
        <ele>2028.04</ele>
        <time>2021-06-24T09:14:29Z</time>
      </trkpt>
      <trkpt lat="45.62039" lon="6.60005">
        <ele>2030.92</ele>
        <time>2021-06-24T09:14:41Z</time>
      </trkpt>
      <trkpt lat="45.62027" lon="6.60009">
        <ele>2033.33</ele>
        <time>2021-06-24T09:14:56Z</time>
      </trkpt>
      <trkpt lat="45.62018" lon="6.60013">
        <ele>2036.21</ele>
        <time>2021-06-24T09:15:09Z</time>
      </trkpt>
      <trkpt lat="45.62011" lon="6.60017">
        <ele>2038.13</ele>
        <time>2021-06-24T09:15:20Z</time>
      </trkpt>
      <trkpt lat="45.62011" lon="6.60008">
        <ele>2041.5</ele>
        <time>2021-06-24T09:15:33Z</time>
      </trkpt>
      <trkpt lat="45.62005" lon="6.60008">
        <ele>2043.42</ele>
        <time>2021-06-24T09:15:46Z</time>
      </trkpt>
      <trkpt lat="45.62004" lon="6.60008">
        <ele>2044.86</ele>
        <time>2021-06-24T09:15:48Z</time>
      </trkpt>
      <trkpt lat="45.61997" lon="6.60008">
        <ele>2047.26</ele>
        <time>2021-06-24T09:16:00Z</time>
      </trkpt>
      <trkpt lat="45.61996" lon="6.59997">
        <ele>2050.15</ele>
        <time>2021-06-24T09:16:13Z</time>
      </trkpt>
      <trkpt lat="45.61991" lon="6.59993">
        <ele>2052.55</ele>
        <time>2021-06-24T09:16:26Z</time>
      </trkpt>
      <trkpt lat="45.61983" lon="6.59998">
        <ele>2055.92</ele>
        <time>2021-06-24T09:16:38Z</time>
      </trkpt>
      <trkpt lat="45.61976" lon="6.60002">
        <ele>2058.8</ele>
        <time>2021-06-24T09:16:50Z</time>
      </trkpt>
      <trkpt lat="45.6197" lon="6.60005">
        <ele>2060.72</ele>
        <time>2021-06-24T09:17:03Z</time>
      </trkpt>
      <trkpt lat="45.61968" lon="6.60008">
        <ele>2061.2</ele>
        <time>2021-06-24T09:17:29Z</time>
      </trkpt>
      <trkpt lat="45.61969" lon="6.60007">
        <ele>2061.2</ele>
        <time>2021-06-24T09:17:50Z</time>
      </trkpt>
      <trkpt lat="45.61968" lon="6.60009">
        <ele>2061.2</ele>
        <time>2021-06-24T09:18:17Z</time>
      </trkpt>
      <trkpt lat="45.61968" lon="6.6001">
        <ele>2061.2</ele>
        <time>2021-06-24T09:18:43Z</time>
      </trkpt>
      <trkpt lat="45.6197" lon="6.60009">
        <ele>2061.2</ele>
        <time>2021-06-24T09:19:01Z</time>
      </trkpt>
      <trkpt lat="45.61969" lon="6.60008">
        <ele>2061.2</ele>
        <time>2021-06-24T09:19:24Z</time>
      </trkpt>
      <trkpt lat="45.61968" lon="6.60009">
        <ele>2061.68</ele>
        <time>2021-06-24T09:19:49Z</time>
      </trkpt>
      <trkpt lat="45.61967" lon="6.60006">
        <ele>2061.68</ele>
        <time>2021-06-24T09:20:14Z</time>
      </trkpt>
      <trkpt lat="45.61966" lon="6.60002">
        <ele>2061.68</ele>
        <time>2021-06-24T09:20:44Z</time>
      </trkpt>
      <trkpt lat="45.61969" lon="6.60001">
        <ele>2061.68</ele>
        <time>2021-06-24T09:21:01Z</time>
      </trkpt>
      <trkpt lat="45.61971" lon="6.60002">
        <ele>2061.68</ele>
        <time>2021-06-24T09:21:19Z</time>
      </trkpt>
      <trkpt lat="45.61972" lon="6.60001">
        <ele>2061.68</ele>
        <time>2021-06-24T09:21:40Z</time>
      </trkpt>
      <trkpt lat="45.61973" lon="6.60002">
        <ele>2061.68</ele>
        <time>2021-06-24T09:22:00Z</time>
      </trkpt>
      <trkpt lat="45.61975" lon="6.60001">
        <ele>2061.68</ele>
        <time>2021-06-24T09:22:26Z</time>
      </trkpt>
      <trkpt lat="45.6197" lon="6.60002">
        <ele>2062.65</ele>
        <time>2021-06-24T09:22:44Z</time>
      </trkpt>
      <trkpt lat="45.61972" lon="6.60001">
        <ele>2062.17</ele>
        <time>2021-06-24T09:22:56Z</time>
      </trkpt>
      <trkpt lat="45.61972" lon="6.60001">
        <ele>2061.2</ele>
        <time>2021-06-24T09:23:21Z</time>
      </trkpt>
      <trkpt lat="45.61973" lon="6.60002">
        <ele>2061.2</ele>
        <time>2021-06-24T09:23:44Z</time>
      </trkpt>
      <trkpt lat="45.61975" lon="6.60001">
        <ele>2061.2</ele>
        <time>2021-06-24T09:24:04Z</time>
      </trkpt>
      <trkpt lat="45.61974" lon="6.6">
        <ele>2061.2</ele>
        <time>2021-06-24T09:24:26Z</time>
      </trkpt>
      <trkpt lat="45.61973" lon="6.6">
        <ele>2061.2</ele>
        <time>2021-06-24T09:24:44Z</time>
      </trkpt>
      <trkpt lat="45.61973" lon="6.59999">
        <ele>2061.68</ele>
        <time>2021-06-24T09:25:02Z</time>
      </trkpt>
      <trkpt lat="45.61972" lon="6.6">
        <ele>2061.68</ele>
        <time>2021-06-24T09:25:23Z</time>
      </trkpt>
      <trkpt lat="45.61971" lon="6.60001">
        <ele>2061.68</ele>
        <time>2021-06-24T09:25:55Z</time>
      </trkpt>
      <trkpt lat="45.61971" lon="6.60003">
        <ele>2061.68</ele>
        <time>2021-06-24T09:26:16Z</time>
      </trkpt>
      <trkpt lat="45.6197" lon="6.60002">
        <ele>2061.68</ele>
        <time>2021-06-24T09:26:40Z</time>
      </trkpt>
      <trkpt lat="45.61969" lon="6.60003">
        <ele>2062.17</ele>
        <time>2021-06-24T09:27:02Z</time>
      </trkpt>
      <trkpt lat="45.61969" lon="6.60005">
        <ele>2062.17</ele>
        <time>2021-06-24T09:27:27Z</time>
      </trkpt>
      <trkpt lat="45.61969" lon="6.60003">
        <ele>2062.17</ele>
        <time>2021-06-24T09:27:45Z</time>
      </trkpt>
      <trkpt lat="45.61971" lon="6.6">
        <ele>2062.17</ele>
        <time>2021-06-24T09:28:16Z</time>
      </trkpt>
      <trkpt lat="45.61969" lon="6.59995">
        <ele>2062.17</ele>
        <time>2021-06-24T09:28:32Z</time>
      </trkpt>
      <trkpt lat="45.6197" lon="6.5999">
        <ele>2062.17</ele>
        <time>2021-06-24T09:28:53Z</time>
      </trkpt>
      <trkpt lat="45.61968" lon="6.59979">
        <ele>2063.61</ele>
        <time>2021-06-24T09:29:02Z</time>
      </trkpt>
      <trkpt lat="45.61969" lon="6.59975">
        <ele>2064.57</ele>
        <time>2021-06-24T09:29:04Z</time>
      </trkpt>
      <trkpt lat="45.61962" lon="6.59959">
        <ele>2066.01</ele>
        <time>2021-06-24T09:29:19Z</time>
      </trkpt>
      <trkpt lat="45.61962" lon="6.59958">
        <ele>2066.49</ele>
        <time>2021-06-24T09:29:31Z</time>
      </trkpt>
      <trkpt lat="45.61962" lon="6.59957">
        <ele>2066.49</ele>
        <time>2021-06-24T09:29:51Z</time>
      </trkpt>
      <trkpt lat="45.61967" lon="6.59959">
        <ele>2066.49</ele>
        <time>2021-06-24T09:30:12Z</time>
      </trkpt>
      <trkpt lat="45.61968" lon="6.59961">
        <ele>2066.97</ele>
        <time>2021-06-24T09:30:47Z</time>
      </trkpt>
      <trkpt lat="45.61965" lon="6.5996">
        <ele>2066.97</ele>
        <time>2021-06-24T09:31:00Z</time>
      </trkpt>
      <trkpt lat="45.61947" lon="6.59967">
        <ele>2067.45</ele>
        <time>2021-06-24T09:31:18Z</time>
      </trkpt>
      <trkpt lat="45.61933" lon="6.59982">
        <ele>2069.38</ele>
        <time>2021-06-24T09:31:36Z</time>
      </trkpt>
      <trkpt lat="45.61932" lon="6.59983">
        <ele>2069.38</ele>
        <time>2021-06-24T09:31:37Z</time>
      </trkpt>
      <trkpt lat="45.61924" lon="6.59987">
        <ele>2070.34</ele>
        <time>2021-06-24T09:31:49Z</time>
      </trkpt>
      <trkpt lat="45.61923" lon="6.59988">
        <ele>2070.82</ele>
        <time>2021-06-24T09:31:50Z</time>
      </trkpt>
      <trkpt lat="45.61921" lon="6.59989">
        <ele>2070.82</ele>
        <time>2021-06-24T09:31:52Z</time>
      </trkpt>
      <trkpt lat="45.61908" lon="6.59996">
        <ele>2071.78</ele>
        <time>2021-06-24T09:32:07Z</time>
      </trkpt>
      <trkpt lat="45.61894" lon="6.60002">
        <ele>2073.22</ele>
        <time>2021-06-24T09:32:22Z</time>
      </trkpt>
      <trkpt lat="45.61889" lon="6.60005">
        <ele>2074.18</ele>
        <time>2021-06-24T09:32:27Z</time>
      </trkpt>
      <trkpt lat="45.6188" lon="6.60008">
        <ele>2075.14</ele>
        <time>2021-06-24T09:32:39Z</time>
      </trkpt>
      <trkpt lat="45.61871" lon="6.60011">
        <ele>2076.59</ele>
        <time>2021-06-24T09:32:50Z</time>
      </trkpt>
      <trkpt lat="45.61858" lon="6.60028">
        <ele>2078.03</ele>
        <time>2021-06-24T09:33:07Z</time>
      </trkpt>
      <trkpt lat="45.61849" lon="6.60041">
        <ele>2078.99</ele>
        <time>2021-06-24T09:33:21Z</time>
      </trkpt>
      <trkpt lat="45.61839" lon="6.60059">
        <ele>2080.91</ele>
        <time>2021-06-24T09:33:36Z</time>
      </trkpt>
      <trkpt lat="45.61831" lon="6.60073">
        <ele>2081.87</ele>
        <time>2021-06-24T09:33:51Z</time>
      </trkpt>
      <trkpt lat="45.61822" lon="6.60087">
        <ele>2083.31</ele>
        <time>2021-06-24T09:34:06Z</time>
      </trkpt>
      <trkpt lat="45.61821" lon="6.60088">
        <ele>2083.31</ele>
        <time>2021-06-24T09:34:07Z</time>
      </trkpt>
      <trkpt lat="45.61814" lon="6.60102">
        <ele>2085.24</ele>
        <time>2021-06-24T09:34:22Z</time>
      </trkpt>
      <trkpt lat="45.61809" lon="6.60115">
        <ele>2086.2</ele>
        <time>2021-06-24T09:34:34Z</time>
      </trkpt>
      <trkpt lat="45.618" lon="6.60136">
        <ele>2087.64</ele>
        <time>2021-06-24T09:34:51Z</time>
      </trkpt>
      <trkpt lat="45.61793" lon="6.60157">
        <ele>2089.08</ele>
        <time>2021-06-24T09:35:06Z</time>
      </trkpt>
      <trkpt lat="45.61785" lon="6.60173">
        <ele>2090.52</ele>
        <time>2021-06-24T09:35:22Z</time>
      </trkpt>
      <trkpt lat="45.61775" lon="6.60187">
        <ele>2092.45</ele>
        <time>2021-06-24T09:35:38Z</time>
      </trkpt>
      <trkpt lat="45.61766" lon="6.602">
        <ele>2093.89</ele>
        <time>2021-06-24T09:35:53Z</time>
      </trkpt>
      <trkpt lat="45.61757" lon="6.60211">
        <ele>2095.33</ele>
        <time>2021-06-24T09:36:06Z</time>
      </trkpt>
      <trkpt lat="45.61749" lon="6.60222">
        <ele>2096.77</ele>
        <time>2021-06-24T09:36:18Z</time>
      </trkpt>
      <trkpt lat="45.61741" lon="6.60225">
        <ele>2097.25</ele>
        <time>2021-06-24T09:36:28Z</time>
      </trkpt>
      <trkpt lat="45.61733" lon="6.60238">
        <ele>2098.21</ele>
        <time>2021-06-24T09:36:42Z</time>
      </trkpt>
      <trkpt lat="45.61725" lon="6.6025">
        <ele>2100.14</ele>
        <time>2021-06-24T09:36:55Z</time>
      </trkpt>
      <trkpt lat="45.61721" lon="6.60257">
        <ele>2100.62</ele>
        <time>2021-06-24T09:37:06Z</time>
      </trkpt>
      <trkpt lat="45.61714" lon="6.60268">
        <ele>2101.58</ele>
        <time>2021-06-24T09:37:17Z</time>
      </trkpt>
      <trkpt lat="45.61713" lon="6.60274">
        <ele>2102.06</ele>
        <time>2021-06-24T09:37:21Z</time>
      </trkpt>
      <trkpt lat="45.61712" lon="6.60279">
        <ele>2102.54</ele>
        <time>2021-06-24T09:37:25Z</time>
      </trkpt>
      <trkpt lat="45.61712" lon="6.60281">
        <ele>2102.54</ele>
        <time>2021-06-24T09:37:27Z</time>
      </trkpt>
      <trkpt lat="45.61712" lon="6.60291">
        <ele>2103.02</ele>
        <time>2021-06-24T09:37:36Z</time>
      </trkpt>
      <trkpt lat="45.61714" lon="6.60297">
        <ele>2103.5</ele>
        <time>2021-06-24T09:37:42Z</time>
      </trkpt>
      <trkpt lat="45.61721" lon="6.60303">
        <ele>2103.98</ele>
        <time>2021-06-24T09:37:55Z</time>
      </trkpt>
      <trkpt lat="45.61722" lon="6.60303">
        <ele>2103.98</ele>
        <time>2021-06-24T09:37:56Z</time>
      </trkpt>
      <trkpt lat="45.61724" lon="6.60304">
        <ele>2103.98</ele>
        <time>2021-06-24T09:37:58Z</time>
      </trkpt>
      <trkpt lat="45.61726" lon="6.6031">
        <ele>2103.98</ele>
        <time>2021-06-24T09:38:12Z</time>
      </trkpt>
      <trkpt lat="45.61726" lon="6.6031">
        <ele>2103.98</ele>
        <time>2021-06-24T09:38:29Z</time>
      </trkpt>
      <trkpt lat="45.61726" lon="6.6031">
        <ele>2103.98</ele>
        <time>2021-06-24T09:38:48Z</time>
      </trkpt>
      <trkpt lat="45.61728" lon="6.6031">
        <ele>2103.98</ele>
        <time>2021-06-24T09:38:57Z</time>
      </trkpt>
      <trkpt lat="45.61733" lon="6.60307">
        <ele>2104.46</ele>
        <time>2021-06-24T09:39:10Z</time>
      </trkpt>
      <trkpt lat="45.61732" lon="6.60308">
        <ele>2103.02</ele>
        <time>2021-06-24T09:39:26Z</time>
      </trkpt>
      <trkpt lat="45.61733" lon="6.60308">
        <ele>2103.5</ele>
        <time>2021-06-24T09:40:02Z</time>
      </trkpt>
      <trkpt lat="45.61733" lon="6.60308">
        <ele>2104.46</ele>
        <time>2021-06-24T09:40:06Z</time>
      </trkpt>
      <trkpt lat="45.61733" lon="6.60309">
        <ele>2104.46</ele>
        <time>2021-06-24T09:40:28Z</time>
      </trkpt>
      <trkpt lat="45.6173" lon="6.60311">
        <ele>2104.94</ele>
        <time>2021-06-24T09:40:42Z</time>
      </trkpt>
      <trkpt lat="45.6173" lon="6.60312">
        <ele>2104.94</ele>
        <time>2021-06-24T09:41:13Z</time>
      </trkpt>
      <trkpt lat="45.6173" lon="6.60311">
        <ele>2104.94</ele>
        <time>2021-06-24T09:41:34Z</time>
      </trkpt>
      <trkpt lat="45.61733" lon="6.6031">
        <ele>2104.94</ele>
        <time>2021-06-24T09:42:05Z</time>
      </trkpt>
      <trkpt lat="45.61733" lon="6.6031">
        <ele>2104.94</ele>
        <time>2021-06-24T09:42:19Z</time>
      </trkpt>
      <trkpt lat="45.61734" lon="6.6031">
        <ele>2105.42</ele>
        <time>2021-06-24T09:42:45Z</time>
      </trkpt>
      <trkpt lat="45.61734" lon="6.60311">
        <ele>2105.42</ele>
        <time>2021-06-24T09:43:08Z</time>
      </trkpt>
      <trkpt lat="45.61727" lon="6.60318">
        <ele>2105.42</ele>
        <time>2021-06-24T09:43:23Z</time>
      </trkpt>
      <trkpt lat="45.61726" lon="6.60318">
        <ele>2105.42</ele>
        <time>2021-06-24T09:43:54Z</time>
      </trkpt>
      <trkpt lat="45.61727" lon="6.60313">
        <ele>2105.42</ele>
        <time>2021-06-24T09:44:22Z</time>
      </trkpt>
      <trkpt lat="45.61731" lon="6.60314">
        <ele>2105.42</ele>
        <time>2021-06-24T09:44:38Z</time>
      </trkpt>
      <trkpt lat="45.61733" lon="6.60314">
        <ele>2105.42</ele>
        <time>2021-06-24T09:44:40Z</time>
      </trkpt>
      <trkpt lat="45.61743" lon="6.60314">
        <ele>2105.42</ele>
        <time>2021-06-24T09:44:52Z</time>
      </trkpt>
      <trkpt lat="45.61748" lon="6.60312">
        <ele>2106.39</ele>
        <time>2021-06-24T09:45:05Z</time>
      </trkpt>
      <trkpt lat="45.61755" lon="6.60313">
        <ele>2107.83</ele>
        <time>2021-06-24T09:45:19Z</time>
      </trkpt>
      <trkpt lat="45.61764" lon="6.60316">
        <ele>2109.75</ele>
        <time>2021-06-24T09:45:32Z</time>
      </trkpt>
      <trkpt lat="45.61772" lon="6.60318">
        <ele>2112.15</ele>
        <time>2021-06-24T09:45:45Z</time>
      </trkpt>
      <trkpt lat="45.61778" lon="6.60319">
        <ele>2113.12</ele>
        <time>2021-06-24T09:45:57Z</time>
      </trkpt>
      <trkpt lat="45.61781" lon="6.60319">
        <ele>2114.08</ele>
        <time>2021-06-24T09:46:00Z</time>
      </trkpt>
      <trkpt lat="45.61782" lon="6.6032">
        <ele>2114.08</ele>
        <time>2021-06-24T09:46:02Z</time>
      </trkpt>
      <trkpt lat="45.61793" lon="6.60321">
        <ele>2115.04</ele>
        <time>2021-06-24T09:46:14Z</time>
      </trkpt>
      <trkpt lat="45.61794" lon="6.60323">
        <ele>2115.04</ele>
        <time>2021-06-24T09:46:16Z</time>
      </trkpt>
      <trkpt lat="45.61802" lon="6.60328">
        <ele>2116</ele>
        <time>2021-06-24T09:46:26Z</time>
      </trkpt>
      <trkpt lat="45.61812" lon="6.60329">
        <ele>2116.96</ele>
        <time>2021-06-24T09:46:37Z</time>
      </trkpt>
      <trkpt lat="45.61822" lon="6.60335">
        <ele>2117.92</ele>
        <time>2021-06-24T09:46:50Z</time>
      </trkpt>
      <trkpt lat="45.61826" lon="6.60336">
        <ele>2118.4</ele>
        <time>2021-06-24T09:46:54Z</time>
      </trkpt>
      <trkpt lat="45.61833" lon="6.60338">
        <ele>2120.32</ele>
        <time>2021-06-24T09:47:04Z</time>
      </trkpt>
      <trkpt lat="45.61843" lon="6.60335">
        <ele>2121.77</ele>
        <time>2021-06-24T09:47:15Z</time>
      </trkpt>
      <trkpt lat="45.61854" lon="6.60333">
        <ele>2123.69</ele>
        <time>2021-06-24T09:47:28Z</time>
      </trkpt>
      <trkpt lat="45.61863" lon="6.60335">
        <ele>2126.09</ele>
        <time>2021-06-24T09:47:43Z</time>
      </trkpt>
      <trkpt lat="45.61869" lon="6.60337">
        <ele>2126.57</ele>
        <time>2021-06-24T09:47:55Z</time>
      </trkpt>
      <trkpt lat="45.61876" lon="6.60337">
        <ele>2127.53</ele>
        <time>2021-06-24T09:48:08Z</time>
      </trkpt>
      <trkpt lat="45.61883" lon="6.60339">
        <ele>2129.94</ele>
        <time>2021-06-24T09:48:20Z</time>
      </trkpt>
      <trkpt lat="45.61887" lon="6.60342">
        <ele>2130.9</ele>
        <time>2021-06-24T09:48:31Z</time>
      </trkpt>
      <trkpt lat="45.61896" lon="6.60349">
        <ele>2132.82</ele>
        <time>2021-06-24T09:48:43Z</time>
      </trkpt>
      <trkpt lat="45.61898" lon="6.60353">
        <ele>2133.78</ele>
        <time>2021-06-24T09:48:57Z</time>
      </trkpt>
      <trkpt lat="45.61899" lon="6.60352">
        <ele>2134.26</ele>
        <time>2021-06-24T09:49:19Z</time>
      </trkpt>
      <trkpt lat="45.61905" lon="6.60352">
        <ele>2134.74</ele>
        <time>2021-06-24T09:49:31Z</time>
      </trkpt>
      <trkpt lat="45.6191" lon="6.60355">
        <ele>2136.19</ele>
        <time>2021-06-24T09:49:44Z</time>
      </trkpt>
      <trkpt lat="45.61915" lon="6.60363">
        <ele>2138.11</ele>
        <time>2021-06-24T09:49:55Z</time>
      </trkpt>
      <trkpt lat="45.61915" lon="6.60368">
        <ele>2139.07</ele>
        <time>2021-06-24T09:50:07Z</time>
      </trkpt>
      <trkpt lat="45.61915" lon="6.60373">
        <ele>2140.03</ele>
        <time>2021-06-24T09:50:11Z</time>
      </trkpt>
      <trkpt lat="45.61916" lon="6.6038">
        <ele>2140.51</ele>
        <time>2021-06-24T09:50:17Z</time>
      </trkpt>
      <trkpt lat="45.61927" lon="6.60394">
        <ele>2143.88</ele>
        <time>2021-06-24T09:50:30Z</time>
      </trkpt>
      <trkpt lat="45.61936" lon="6.60403">
        <ele>2147.24</ele>
        <time>2021-06-24T09:50:42Z</time>
      </trkpt>
      <trkpt lat="45.61944" lon="6.60417">
        <ele>2150.13</ele>
        <time>2021-06-24T09:50:56Z</time>
      </trkpt>
      <trkpt lat="45.61945" lon="6.60431">
        <ele>2152.05</ele>
        <time>2021-06-24T09:51:11Z</time>
      </trkpt>
      <trkpt lat="45.61942" lon="6.6043">
        <ele>2152.05</ele>
        <time>2021-06-24T09:51:16Z</time>
      </trkpt>
      <trkpt lat="45.61945" lon="6.60445">
        <ele>2152.05</ele>
        <time>2021-06-24T09:51:29Z</time>
      </trkpt>
      <trkpt lat="45.61944" lon="6.60446">
        <ele>2152.05</ele>
        <time>2021-06-24T09:51:45Z</time>
      </trkpt>
      <trkpt lat="45.6194" lon="6.60456">
        <ele>2150.61</ele>
        <time>2021-06-24T09:51:56Z</time>
      </trkpt>
      <trkpt lat="45.61937" lon="6.60457">
        <ele>2149.16</ele>
        <time>2021-06-24T09:52:09Z</time>
      </trkpt>
      <trkpt lat="45.61937" lon="6.60458">
        <ele>2149.16</ele>
        <time>2021-06-24T09:52:26Z</time>
      </trkpt>
      <trkpt lat="45.61938" lon="6.60458">
        <ele>2150.61</ele>
        <time>2021-06-24T09:52:44Z</time>
      </trkpt>
      <trkpt lat="45.61939" lon="6.60458">
        <ele>2151.09</ele>
        <time>2021-06-24T09:53:01Z</time>
      </trkpt>
      <trkpt lat="45.61939" lon="6.6046">
        <ele>2151.09</ele>
        <time>2021-06-24T09:53:16Z</time>
      </trkpt>
      <trkpt lat="45.61938" lon="6.6046">
        <ele>2151.09</ele>
        <time>2021-06-24T09:53:31Z</time>
      </trkpt>
      <trkpt lat="45.61937" lon="6.60459">
        <ele>2151.09</ele>
        <time>2021-06-24T09:53:44Z</time>
      </trkpt>
      <trkpt lat="45.61937" lon="6.6046">
        <ele>2149.65</ele>
        <time>2021-06-24T09:53:54Z</time>
      </trkpt>
      <trkpt lat="45.61935" lon="6.60463">
        <ele>2149.65</ele>
        <time>2021-06-24T09:54:33Z</time>
      </trkpt>
      <trkpt lat="45.61937" lon="6.60461">
        <ele>2150.13</ele>
        <time>2021-06-24T09:55:03Z</time>
      </trkpt>
      <trkpt lat="45.61938" lon="6.60462">
        <ele>2150.13</ele>
        <time>2021-06-24T09:55:16Z</time>
      </trkpt>
      <trkpt lat="45.61937" lon="6.60461">
        <ele>2151.57</ele>
        <time>2021-06-24T09:55:26Z</time>
      </trkpt>
      <trkpt lat="45.61937" lon="6.60463">
        <ele>2151.57</ele>
        <time>2021-06-24T09:56:02Z</time>
      </trkpt>
      <trkpt lat="45.61936" lon="6.6046">
        <ele>2150.61</ele>
        <time>2021-06-24T09:56:42Z</time>
      </trkpt>
      <trkpt lat="45.61936" lon="6.60461">
        <ele>2150.61</ele>
        <time>2021-06-24T09:57:22Z</time>
      </trkpt>
      <trkpt lat="45.61937" lon="6.60461">
        <ele>2151.09</ele>
        <time>2021-06-24T09:58:01Z</time>
      </trkpt>
      <trkpt lat="45.61936" lon="6.60463">
        <ele>2151.09</ele>
        <time>2021-06-24T09:58:33Z</time>
      </trkpt>
      <trkpt lat="45.61936" lon="6.60464">
        <ele>2151.09</ele>
        <time>2021-06-24T09:59:07Z</time>
      </trkpt>
      <trkpt lat="45.61936" lon="6.60464">
        <ele>2151.57</ele>
        <time>2021-06-24T09:59:49Z</time>
      </trkpt>
      <trkpt lat="45.61937" lon="6.60463">
        <ele>2152.53</ele>
        <time>2021-06-24T10:00:30Z</time>
      </trkpt>
      <trkpt lat="45.61936" lon="6.60463">
        <ele>2153.01</ele>
        <time>2021-06-24T10:00:59Z</time>
      </trkpt>
      <trkpt lat="45.61937" lon="6.60464">
        <ele>2153.01</ele>
        <time>2021-06-24T10:01:35Z</time>
      </trkpt>
      <trkpt lat="45.61937" lon="6.60463">
        <ele>2153.01</ele>
        <time>2021-06-24T10:02:09Z</time>
      </trkpt>
      <trkpt lat="45.61937" lon="6.60463">
        <ele>2153.49</ele>
        <time>2021-06-24T10:02:51Z</time>
      </trkpt>
      <trkpt lat="45.61937" lon="6.60463">
        <ele>2153.49</ele>
        <time>2021-06-24T10:03:37Z</time>
      </trkpt>
      <trkpt lat="45.61938" lon="6.60464">
        <ele>2153.49</ele>
        <time>2021-06-24T10:04:15Z</time>
      </trkpt>
      <trkpt lat="45.61938" lon="6.60463">
        <ele>2153.49</ele>
        <time>2021-06-24T10:04:53Z</time>
      </trkpt>
      <trkpt lat="45.61937" lon="6.60463">
        <ele>2153.97</ele>
        <time>2021-06-24T10:05:25Z</time>
      </trkpt>
      <trkpt lat="45.61939" lon="6.60463">
        <ele>2153.97</ele>
        <time>2021-06-24T10:06:04Z</time>
      </trkpt>
      <trkpt lat="45.61939" lon="6.60463">
        <ele>2154.45</ele>
        <time>2021-06-24T10:06:36Z</time>
      </trkpt>
      <trkpt lat="45.61939" lon="6.60464">
        <ele>2154.45</ele>
        <time>2021-06-24T10:07:14Z</time>
      </trkpt>
      <trkpt lat="45.61937" lon="6.60462">
        <ele>2153.49</ele>
        <time>2021-06-24T10:07:48Z</time>
      </trkpt>
      <trkpt lat="45.61938" lon="6.60462">
        <ele>2153.49</ele>
        <time>2021-06-24T10:08:19Z</time>
      </trkpt>
      <trkpt lat="45.61937" lon="6.60461">
        <ele>2153.49</ele>
        <time>2021-06-24T10:08:57Z</time>
      </trkpt>
      <trkpt lat="45.61937" lon="6.60462">
        <ele>2153.49</ele>
        <time>2021-06-24T10:09:30Z</time>
      </trkpt>
      <trkpt lat="45.61938" lon="6.60463">
        <ele>2153.49</ele>
        <time>2021-06-24T10:10:10Z</time>
      </trkpt>
      <trkpt lat="45.61938" lon="6.60463">
        <ele>2153.49</ele>
        <time>2021-06-24T10:10:46Z</time>
      </trkpt>
      <trkpt lat="45.61938" lon="6.60463">
        <ele>2153.49</ele>
        <time>2021-06-24T10:11:21Z</time>
      </trkpt>
      <trkpt lat="45.61939" lon="6.60461">
        <ele>2153.49</ele>
        <time>2021-06-24T10:11:59Z</time>
      </trkpt>
      <trkpt lat="45.61939" lon="6.60462">
        <ele>2153.97</ele>
        <time>2021-06-24T10:12:38Z</time>
      </trkpt>
      <trkpt lat="45.61939" lon="6.60463">
        <ele>2153.97</ele>
        <time>2021-06-24T10:13:18Z</time>
      </trkpt>
      <trkpt lat="45.6194" lon="6.60463">
        <ele>2153.97</ele>
        <time>2021-06-24T10:13:54Z</time>
      </trkpt>
      <trkpt lat="45.61939" lon="6.60463">
        <ele>2153.97</ele>
        <time>2021-06-24T10:14:34Z</time>
      </trkpt>
      <trkpt lat="45.61939" lon="6.60463">
        <ele>2153.97</ele>
        <time>2021-06-24T10:15:12Z</time>
      </trkpt>
      <trkpt lat="45.61939" lon="6.60465">
        <ele>2155.41</ele>
        <time>2021-06-24T10:15:44Z</time>
      </trkpt>
      <trkpt lat="45.6194" lon="6.60464">
        <ele>2155.41</ele>
        <time>2021-06-24T10:16:14Z</time>
      </trkpt>
      <trkpt lat="45.6194" lon="6.60465">
        <ele>2155.41</ele>
        <time>2021-06-24T10:16:41Z</time>
      </trkpt>
      <trkpt lat="45.6194" lon="6.60464">
        <ele>2155.41</ele>
        <time>2021-06-24T10:17:16Z</time>
      </trkpt>
      <trkpt lat="45.61939" lon="6.60461">
        <ele>2155.41</ele>
        <time>2021-06-24T10:17:51Z</time>
      </trkpt>
      <trkpt lat="45.61938" lon="6.60461">
        <ele>2155.41</ele>
        <time>2021-06-24T10:18:31Z</time>
      </trkpt>
      <trkpt lat="45.61938" lon="6.60463">
        <ele>2155.89</ele>
        <time>2021-06-24T10:19:07Z</time>
      </trkpt>
      <trkpt lat="45.61939" lon="6.60464">
        <ele>2155.89</ele>
        <time>2021-06-24T10:19:53Z</time>
      </trkpt>
      <trkpt lat="45.61939" lon="6.60463">
        <ele>2155.89</ele>
        <time>2021-06-24T10:20:37Z</time>
      </trkpt>
      <trkpt lat="45.61939" lon="6.60462">
        <ele>2155.89</ele>
        <time>2021-06-24T10:21:16Z</time>
      </trkpt>
      <trkpt lat="45.61938" lon="6.60463">
        <ele>2156.37</ele>
        <time>2021-06-24T10:21:53Z</time>
      </trkpt>
      <trkpt lat="45.61939" lon="6.60462">
        <ele>2156.37</ele>
        <time>2021-06-24T10:22:23Z</time>
      </trkpt>
      <trkpt lat="45.61939" lon="6.60462">
        <ele>2156.37</ele>
        <time>2021-06-24T10:22:57Z</time>
      </trkpt>
      <trkpt lat="45.6194" lon="6.6046">
        <ele>2156.37</ele>
        <time>2021-06-24T10:23:35Z</time>
      </trkpt>
      <trkpt lat="45.61939" lon="6.60462">
        <ele>2156.37</ele>
        <time>2021-06-24T10:24:18Z</time>
      </trkpt>
      <trkpt lat="45.61939" lon="6.60461">
        <ele>2156.86</ele>
        <time>2021-06-24T10:25:05Z</time>
      </trkpt>
      <trkpt lat="45.61939" lon="6.6046">
        <ele>2156.86</ele>
        <time>2021-06-24T10:25:37Z</time>
      </trkpt>
      <trkpt lat="45.6194" lon="6.60461">
        <ele>2156.86</ele>
        <time>2021-06-24T10:26:11Z</time>
      </trkpt>
      <trkpt lat="45.61939" lon="6.60461">
        <ele>2156.86</ele>
        <time>2021-06-24T10:26:51Z</time>
      </trkpt>
      <trkpt lat="45.61939" lon="6.60461">
        <ele>2155.41</ele>
        <time>2021-06-24T10:26:59Z</time>
      </trkpt>
      <trkpt lat="45.61938" lon="6.60461">
        <ele>2156.86</ele>
        <time>2021-06-24T10:27:32Z</time>
      </trkpt>
      <trkpt lat="45.61938" lon="6.60462">
        <ele>2156.86</ele>
        <time>2021-06-24T10:28:10Z</time>
      </trkpt>
      <trkpt lat="45.61939" lon="6.60462">
        <ele>2157.34</ele>
        <time>2021-06-24T10:28:48Z</time>
      </trkpt>
      <trkpt lat="45.6194" lon="6.60462">
        <ele>2157.34</ele>
        <time>2021-06-24T10:29:14Z</time>
      </trkpt>
      <trkpt lat="45.61939" lon="6.60462">
        <ele>2157.34</ele>
        <time>2021-06-24T10:29:47Z</time>
      </trkpt>
      <trkpt lat="45.61939" lon="6.60461">
        <ele>2157.34</ele>
        <time>2021-06-24T10:30:26Z</time>
      </trkpt>
      <trkpt lat="45.61939" lon="6.60462">
        <ele>2157.82</ele>
        <time>2021-06-24T10:31:02Z</time>
      </trkpt>
      <trkpt lat="45.61939" lon="6.60462">
        <ele>2157.82</ele>
        <time>2021-06-24T10:31:28Z</time>
      </trkpt>
      <trkpt lat="45.61939" lon="6.60461">
        <ele>2157.82</ele>
        <time>2021-06-24T10:31:54Z</time>
      </trkpt>
      <trkpt lat="45.61939" lon="6.60462">
        <ele>2157.82</ele>
        <time>2021-06-24T10:32:28Z</time>
      </trkpt>
      <trkpt lat="45.61939" lon="6.60462">
        <ele>2157.82</ele>
        <time>2021-06-24T10:33:05Z</time>
      </trkpt>
      <trkpt lat="45.61939" lon="6.6046">
        <ele>2158.3</ele>
        <time>2021-06-24T10:33:17Z</time>
      </trkpt>
      <trkpt lat="45.61938" lon="6.60458">
        <ele>2158.78</ele>
        <time>2021-06-24T10:33:35Z</time>
      </trkpt>
      <trkpt lat="45.61939" lon="6.60459">
        <ele>2157.34</ele>
        <time>2021-06-24T10:34:01Z</time>
      </trkpt>
      <trkpt lat="45.61939" lon="6.60461">
        <ele>2157.34</ele>
        <time>2021-06-24T10:34:27Z</time>
      </trkpt>
      <trkpt lat="45.6194" lon="6.60466">
        <ele>2159.26</ele>
        <time>2021-06-24T10:34:40Z</time>
      </trkpt>
      <trkpt lat="45.61943" lon="6.60471">
        <ele>2160.22</ele>
        <time>2021-06-24T10:34:53Z</time>
      </trkpt>
      <trkpt lat="45.61948" lon="6.60474">
        <ele>2161.66</ele>
        <time>2021-06-24T10:35:06Z</time>
      </trkpt>
      <trkpt lat="45.61952" lon="6.60479">
        <ele>2164.55</ele>
        <time>2021-06-24T10:35:20Z</time>
      </trkpt>
      <trkpt lat="45.61956" lon="6.60487">
        <ele>2165.99</ele>
        <time>2021-06-24T10:35:33Z</time>
      </trkpt>
      <trkpt lat="45.6196" lon="6.60494">
        <ele>2168.39</ele>
        <time>2021-06-24T10:35:50Z</time>
      </trkpt>
      <trkpt lat="45.61966" lon="6.605">
        <ele>2169.35</ele>
        <time>2021-06-24T10:36:03Z</time>
      </trkpt>
      <trkpt lat="45.61968" lon="6.60503">
        <ele>2169.83</ele>
        <time>2021-06-24T10:36:07Z</time>
      </trkpt>
      <trkpt lat="45.61971" lon="6.60507">
        <ele>2169.83</ele>
        <time>2021-06-24T10:36:20Z</time>
      </trkpt>
      <trkpt lat="45.61977" lon="6.60516">
        <ele>2169.83</ele>
        <time>2021-06-24T10:36:32Z</time>
      </trkpt>
      <trkpt lat="45.61976" lon="6.60518">
        <ele>2169.83</ele>
        <time>2021-06-24T10:36:47Z</time>
      </trkpt>
      <trkpt lat="45.61985" lon="6.60523">
        <ele>2170.79</ele>
        <time>2021-06-24T10:36:59Z</time>
      </trkpt>
      <trkpt lat="45.61992" lon="6.60529">
        <ele>2172.24</ele>
        <time>2021-06-24T10:37:13Z</time>
      </trkpt>
      <trkpt lat="45.61995" lon="6.60529">
        <ele>2172.72</ele>
        <time>2021-06-24T10:37:17Z</time>
      </trkpt>
      <trkpt lat="45.61997" lon="6.60528">
        <ele>2172.72</ele>
        <time>2021-06-24T10:37:30Z</time>
      </trkpt>
      <trkpt lat="45.61991" lon="6.60527">
        <ele>2171.76</ele>
        <time>2021-06-24T10:37:53Z</time>
      </trkpt>
      <trkpt lat="45.61991" lon="6.60527">
        <ele>2173.2</ele>
        <time>2021-06-24T10:37:56Z</time>
      </trkpt>
      <trkpt lat="45.61994" lon="6.60528">
        <ele>2173.68</ele>
        <time>2021-06-24T10:38:08Z</time>
      </trkpt>
      <trkpt lat="45.61995" lon="6.60529">
        <ele>2173.68</ele>
        <time>2021-06-24T10:38:11Z</time>
      </trkpt>
      <trkpt lat="45.61997" lon="6.60531">
        <ele>2173.68</ele>
        <time>2021-06-24T10:38:13Z</time>
      </trkpt>
      <trkpt lat="45.62006" lon="6.60539">
        <ele>2175.6</ele>
        <time>2021-06-24T10:38:20Z</time>
      </trkpt>
      <trkpt lat="45.6202" lon="6.60549">
        <ele>2179.45</ele>
        <time>2021-06-24T10:38:31Z</time>
      </trkpt>
      <trkpt lat="45.62028" lon="6.60557">
        <ele>2182.33</ele>
        <time>2021-06-24T10:38:42Z</time>
      </trkpt>
      <trkpt lat="45.62034" lon="6.60562">
        <ele>2183.77</ele>
        <time>2021-06-24T10:38:54Z</time>
      </trkpt>
      <trkpt lat="45.62038" lon="6.60566">
        <ele>2184.73</ele>
        <time>2021-06-24T10:39:07Z</time>
      </trkpt>
      <trkpt lat="45.62043" lon="6.60571">
        <ele>2186.18</ele>
        <time>2021-06-24T10:39:21Z</time>
      </trkpt>
      <trkpt lat="45.6205" lon="6.60578">
        <ele>2187.62</ele>
        <time>2021-06-24T10:39:33Z</time>
      </trkpt>
      <trkpt lat="45.62055" lon="6.60587">
        <ele>2188.58</ele>
        <time>2021-06-24T10:39:49Z</time>
      </trkpt>
      <trkpt lat="45.62058" lon="6.60589">
        <ele>2189.06</ele>
        <time>2021-06-24T10:39:54Z</time>
      </trkpt>
      <trkpt lat="45.62062" lon="6.60597">
        <ele>2190.5</ele>
        <time>2021-06-24T10:40:06Z</time>
      </trkpt>
      <trkpt lat="45.62071" lon="6.60609">
        <ele>2190.5</ele>
        <time>2021-06-24T10:40:20Z</time>
      </trkpt>
      <trkpt lat="45.62077" lon="6.60619">
        <ele>2192.42</ele>
        <time>2021-06-24T10:40:32Z</time>
      </trkpt>
      <trkpt lat="45.6208" lon="6.6062">
        <ele>2192.42</ele>
        <time>2021-06-24T10:40:35Z</time>
      </trkpt>
      <trkpt lat="45.62086" lon="6.60626">
        <ele>2192.9</ele>
        <time>2021-06-24T10:40:48Z</time>
      </trkpt>
      <trkpt lat="45.62088" lon="6.60626">
        <ele>2192.9</ele>
        <time>2021-06-24T10:40:51Z</time>
      </trkpt>
      <trkpt lat="45.62099" lon="6.60638">
        <ele>2193.87</ele>
        <time>2021-06-24T10:41:04Z</time>
      </trkpt>
      <trkpt lat="45.62109" lon="6.60647">
        <ele>2194.35</ele>
        <time>2021-06-24T10:41:20Z</time>
      </trkpt>
      <trkpt lat="45.6211" lon="6.60648">
        <ele>2194.35</ele>
        <time>2021-06-24T10:41:21Z</time>
      </trkpt>
      <trkpt lat="45.62116" lon="6.60652">
        <ele>2194.83</ele>
        <time>2021-06-24T10:41:30Z</time>
      </trkpt>
      <trkpt lat="45.62125" lon="6.60657">
        <ele>2195.31</ele>
        <time>2021-06-24T10:41:42Z</time>
      </trkpt>
      <trkpt lat="45.62136" lon="6.60656">
        <ele>2197.71</ele>
        <time>2021-06-24T10:41:56Z</time>
      </trkpt>
      <trkpt lat="45.62144" lon="6.60658">
        <ele>2198.67</ele>
        <time>2021-06-24T10:42:09Z</time>
      </trkpt>
      <trkpt lat="45.62148" lon="6.6066">
        <ele>2199.15</ele>
        <time>2021-06-24T10:42:26Z</time>
      </trkpt>
      <trkpt lat="45.62149" lon="6.60659">
        <ele>2199.63</ele>
        <time>2021-06-24T10:42:45Z</time>
      </trkpt>
      <trkpt lat="45.62148" lon="6.60659">
        <ele>2199.63</ele>
        <time>2021-06-24T10:43:22Z</time>
      </trkpt>
      <trkpt lat="45.6215" lon="6.60658">
        <ele>2200.11</ele>
        <time>2021-06-24T10:43:41Z</time>
      </trkpt>
      <trkpt lat="45.62158" lon="6.60656">
        <ele>2202.04</ele>
        <time>2021-06-24T10:43:54Z</time>
      </trkpt>
      <trkpt lat="45.62163" lon="6.60657">
        <ele>2203.96</ele>
        <time>2021-06-24T10:44:07Z</time>
      </trkpt>
      <trkpt lat="45.62171" lon="6.60661">
        <ele>2205.88</ele>
        <time>2021-06-24T10:44:20Z</time>
      </trkpt>
      <trkpt lat="45.62175" lon="6.60665">
        <ele>2206.36</ele>
        <time>2021-06-24T10:44:28Z</time>
      </trkpt>
      <trkpt lat="45.62185" lon="6.60668">
        <ele>2207.32</ele>
        <time>2021-06-24T10:44:41Z</time>
      </trkpt>
      <trkpt lat="45.62185" lon="6.60668">
        <ele>2208.29</ele>
        <time>2021-06-24T10:44:56Z</time>
      </trkpt>
      <trkpt lat="45.62184" lon="6.6067">
        <ele>2209.25</ele>
        <time>2021-06-24T10:45:11Z</time>
      </trkpt>
      <trkpt lat="45.62186" lon="6.60668">
        <ele>2207.81</ele>
        <time>2021-06-24T10:45:13Z</time>
      </trkpt>
      <trkpt lat="45.62191" lon="6.60672">
        <ele>2209.25</ele>
        <time>2021-06-24T10:45:23Z</time>
      </trkpt>
      <trkpt lat="45.62199" lon="6.60681">
        <ele>2210.21</ele>
        <time>2021-06-24T10:45:34Z</time>
      </trkpt>
      <trkpt lat="45.62205" lon="6.60682">
        <ele>2210.21</ele>
        <time>2021-06-24T10:45:38Z</time>
      </trkpt>
      <trkpt lat="45.62209" lon="6.60681">
        <ele>2208.77</ele>
        <time>2021-06-24T10:45:40Z</time>
      </trkpt>
      <trkpt lat="45.62222" lon="6.6068">
        <ele>2211.17</ele>
        <time>2021-06-24T10:45:54Z</time>
      </trkpt>
      <trkpt lat="45.62222" lon="6.60679">
        <ele>2211.17</ele>
        <time>2021-06-24T10:45:55Z</time>
      </trkpt>
      <trkpt lat="45.62221" lon="6.60682">
        <ele>2209.73</ele>
        <time>2021-06-24T10:46:04Z</time>
      </trkpt>
      <trkpt lat="45.62221" lon="6.60681">
        <ele>2211.65</ele>
        <time>2021-06-24T10:46:06Z</time>
      </trkpt>
      <trkpt lat="45.6222" lon="6.60683">
        <ele>2211.65</ele>
        <time>2021-06-24T10:46:08Z</time>
      </trkpt>
      <trkpt lat="45.62218" lon="6.60685">
        <ele>2210.69</ele>
        <time>2021-06-24T10:46:10Z</time>
      </trkpt>
      <trkpt lat="45.62215" lon="6.60689">
        <ele>2212.61</ele>
        <time>2021-06-24T10:46:14Z</time>
      </trkpt>
      <trkpt lat="45.62216" lon="6.60693">
        <ele>2214.05</ele>
        <time>2021-06-24T10:46:17Z</time>
      </trkpt>
      <trkpt lat="45.62217" lon="6.60695">
        <ele>2214.53</ele>
        <time>2021-06-24T10:46:19Z</time>
      </trkpt>
      <trkpt lat="45.62218" lon="6.60698">
        <ele>2214.53</ele>
        <time>2021-06-24T10:46:21Z</time>
      </trkpt>
      <trkpt lat="45.62225" lon="6.60709">
        <ele>2215.5</ele>
        <time>2021-06-24T10:46:32Z</time>
      </trkpt>
      <trkpt lat="45.62228" lon="6.60711">
        <ele>2214.53</ele>
        <time>2021-06-24T10:46:37Z</time>
      </trkpt>
      <trkpt lat="45.62229" lon="6.60714">
        <ele>2217.42</ele>
        <time>2021-06-24T10:46:40Z</time>
      </trkpt>
      <trkpt lat="45.62228" lon="6.60722">
        <ele>2215.98</ele>
        <time>2021-06-24T10:46:45Z</time>
      </trkpt>
      <trkpt lat="45.62228" lon="6.60724">
        <ele>2215.98</ele>
        <time>2021-06-24T10:46:46Z</time>
      </trkpt>
      <trkpt lat="45.62222" lon="6.60729">
        <ele>2214.53</ele>
        <time>2021-06-24T10:46:51Z</time>
      </trkpt>
      <trkpt lat="45.62217" lon="6.60737">
        <ele>2214.05</ele>
        <time>2021-06-24T10:46:58Z</time>
      </trkpt>
      <trkpt lat="45.62217" lon="6.60747">
        <ele>2215.5</ele>
        <time>2021-06-24T10:47:05Z</time>
      </trkpt>
      <trkpt lat="45.62217" lon="6.60748">
        <ele>2215.5</ele>
        <time>2021-06-24T10:47:06Z</time>
      </trkpt>
      <trkpt lat="45.62218" lon="6.60754">
        <ele>2215.5</ele>
        <time>2021-06-24T10:47:10Z</time>
      </trkpt>
      <trkpt lat="45.6222" lon="6.60758">
        <ele>2215.5</ele>
        <time>2021-06-24T10:47:13Z</time>
      </trkpt>
      <trkpt lat="45.62217" lon="6.60762">
        <ele>2215.98</ele>
        <time>2021-06-24T10:47:28Z</time>
      </trkpt>
      <trkpt lat="45.62213" lon="6.60759">
        <ele>2215.98</ele>
        <time>2021-06-24T10:47:51Z</time>
      </trkpt>
      <trkpt lat="45.62215" lon="6.6076">
        <ele>2215.01</ele>
        <time>2021-06-24T10:47:59Z</time>
      </trkpt>
      <trkpt lat="45.62217" lon="6.60763">
        <ele>2215.98</ele>
        <time>2021-06-24T10:48:12Z</time>
      </trkpt>
      <trkpt lat="45.62218" lon="6.60764">
        <ele>2216.46</ele>
        <time>2021-06-24T10:48:20Z</time>
      </trkpt>
      <trkpt lat="45.62221" lon="6.60772">
        <ele>2216.46</ele>
        <time>2021-06-24T10:48:26Z</time>
      </trkpt>
      <trkpt lat="45.62221" lon="6.60775">
        <ele>2216.46</ele>
        <time>2021-06-24T10:48:28Z</time>
      </trkpt>
      <trkpt lat="45.62226" lon="6.60785">
        <ele>2215.01</ele>
        <time>2021-06-24T10:48:37Z</time>
      </trkpt>
      <trkpt lat="45.62232" lon="6.6079">
        <ele>2216.94</ele>
        <time>2021-06-24T10:48:43Z</time>
      </trkpt>
      <trkpt lat="45.62239" lon="6.60801">
        <ele>2219.34</ele>
        <time>2021-06-24T10:48:53Z</time>
      </trkpt>
      <trkpt lat="45.62241" lon="6.60805">
        <ele>2220.3</ele>
        <time>2021-06-24T10:48:56Z</time>
      </trkpt>
      <trkpt lat="45.62238" lon="6.60815">
        <ele>2222.22</ele>
        <time>2021-06-24T10:49:09Z</time>
      </trkpt>
      <trkpt lat="45.62241" lon="6.60822">
        <ele>2223.67</ele>
        <time>2021-06-24T10:49:17Z</time>
      </trkpt>
      <trkpt lat="45.62242" lon="6.60823">
        <ele>2224.63</ele>
        <time>2021-06-24T10:49:19Z</time>
      </trkpt>
      <trkpt lat="45.62246" lon="6.60831">
        <ele>2226.07</ele>
        <time>2021-06-24T10:49:27Z</time>
      </trkpt>
      <trkpt lat="45.62254" lon="6.60835">
        <ele>2228.47</ele>
        <time>2021-06-24T10:49:41Z</time>
      </trkpt>
      <trkpt lat="45.62257" lon="6.60839">
        <ele>2231.36</ele>
        <time>2021-06-24T10:49:49Z</time>
      </trkpt>
      <trkpt lat="45.62256" lon="6.60849">
        <ele>2234.24</ele>
        <time>2021-06-24T10:50:02Z</time>
      </trkpt>
      <trkpt lat="45.62257" lon="6.60851">
        <ele>2234.72</ele>
        <time>2021-06-24T10:50:05Z</time>
      </trkpt>
      <trkpt lat="45.62255" lon="6.60859">
        <ele>2237.61</ele>
        <time>2021-06-24T10:50:17Z</time>
      </trkpt>
      <trkpt lat="45.62262" lon="6.60859">
        <ele>2238.57</ele>
        <time>2021-06-24T10:50:28Z</time>
      </trkpt>
      <trkpt lat="45.62273" lon="6.60863">
        <ele>2240.97</ele>
        <time>2021-06-24T10:50:41Z</time>
      </trkpt>
      <trkpt lat="45.6228" lon="6.60869">
        <ele>2241.93</ele>
        <time>2021-06-24T10:50:51Z</time>
      </trkpt>
      <trkpt lat="45.62274" lon="6.60877">
        <ele>2244.82</ele>
        <time>2021-06-24T10:51:03Z</time>
      </trkpt>
      <trkpt lat="45.62279" lon="6.60885">
        <ele>2247.22</ele>
        <time>2021-06-24T10:51:16Z</time>
      </trkpt>
      <trkpt lat="45.62282" lon="6.60887">
        <ele>2250.1</ele>
        <time>2021-06-24T10:51:28Z</time>
      </trkpt>
      <trkpt lat="45.62286" lon="6.60888">
        <ele>2252.03</ele>
        <time>2021-06-24T10:51:40Z</time>
      </trkpt>
      <trkpt lat="45.62285" lon="6.60886">
        <ele>2251.54</ele>
        <time>2021-06-24T10:51:54Z</time>
      </trkpt>
      <trkpt lat="45.62284" lon="6.60888">
        <ele>2250.58</ele>
        <time>2021-06-24T10:52:27Z</time>
      </trkpt>
      <trkpt lat="45.62284" lon="6.60888">
        <ele>2252.03</ele>
        <time>2021-06-24T10:52:42Z</time>
      </trkpt>
      <trkpt lat="45.62283" lon="6.60886">
        <ele>2252.03</ele>
        <time>2021-06-24T10:53:02Z</time>
      </trkpt>
      <trkpt lat="45.62283" lon="6.60889">
        <ele>2251.54</ele>
        <time>2021-06-24T10:53:19Z</time>
      </trkpt>
      <trkpt lat="45.62285" lon="6.6089">
        <ele>2253.47</ele>
        <time>2021-06-24T10:53:30Z</time>
      </trkpt>
      <trkpt lat="45.62286" lon="6.60887">
        <ele>2252.51</ele>
        <time>2021-06-24T10:53:38Z</time>
      </trkpt>
      <trkpt lat="45.62288" lon="6.60887">
        <ele>2252.51</ele>
        <time>2021-06-24T10:53:50Z</time>
      </trkpt>
      <trkpt lat="45.62288" lon="6.60887">
        <ele>2252.51</ele>
        <time>2021-06-24T10:54:19Z</time>
      </trkpt>
      <trkpt lat="45.62288" lon="6.60888">
        <ele>2251.54</ele>
        <time>2021-06-24T10:54:29Z</time>
      </trkpt>
      <trkpt lat="45.62288" lon="6.60887">
        <ele>2250.1</ele>
        <time>2021-06-24T10:54:48Z</time>
      </trkpt>
      <trkpt lat="45.62288" lon="6.60887">
        <ele>2252.03</ele>
        <time>2021-06-24T10:54:50Z</time>
      </trkpt>
      <trkpt lat="45.62284" lon="6.60889">
        <ele>2252.51</ele>
        <time>2021-06-24T10:55:08Z</time>
      </trkpt>
      <trkpt lat="45.62287" lon="6.6089">
        <ele>2251.54</ele>
        <time>2021-06-24T10:55:25Z</time>
      </trkpt>
      <trkpt lat="45.62287" lon="6.60889">
        <ele>2252.51</ele>
        <time>2021-06-24T10:55:29Z</time>
      </trkpt>
      <trkpt lat="45.62289" lon="6.60896">
        <ele>2251.54</ele>
        <time>2021-06-24T10:55:56Z</time>
      </trkpt>
      <trkpt lat="45.62286" lon="6.60896">
        <ele>2251.54</ele>
        <time>2021-06-24T10:56:15Z</time>
      </trkpt>
      <trkpt lat="45.62285" lon="6.60896">
        <ele>2251.54</ele>
        <time>2021-06-24T10:56:19Z</time>
      </trkpt>
      <trkpt lat="45.62281" lon="6.60898">
        <ele>2249.62</ele>
        <time>2021-06-24T10:56:24Z</time>
      </trkpt>
      <trkpt lat="45.62279" lon="6.60899">
        <ele>2247.22</ele>
        <time>2021-06-24T10:56:37Z</time>
      </trkpt>
      <trkpt lat="45.6228" lon="6.60899">
        <ele>2248.66</ele>
        <time>2021-06-24T10:56:46Z</time>
      </trkpt>
      <trkpt lat="45.62281" lon="6.60897">
        <ele>2249.14</ele>
        <time>2021-06-24T10:56:48Z</time>
      </trkpt>
      <trkpt lat="45.62285" lon="6.6089">
        <ele>2250.58</ele>
        <time>2021-06-24T10:57:01Z</time>
      </trkpt>
      <trkpt lat="45.62287" lon="6.6089">
        <ele>2251.54</ele>
        <time>2021-06-24T10:57:12Z</time>
      </trkpt>
      <trkpt lat="45.62287" lon="6.60888">
        <ele>2252.03</ele>
        <time>2021-06-24T10:57:28Z</time>
      </trkpt>
      <trkpt lat="45.62285" lon="6.6089">
        <ele>2252.03</ele>
        <time>2021-06-24T10:57:47Z</time>
      </trkpt>
      <trkpt lat="45.62285" lon="6.60891">
        <ele>2252.03</ele>
        <time>2021-06-24T10:58:01Z</time>
      </trkpt>
      <trkpt lat="45.62284" lon="6.6089">
        <ele>2252.03</ele>
        <time>2021-06-24T10:58:22Z</time>
      </trkpt>
      <trkpt lat="45.62282" lon="6.60889">
        <ele>2252.51</ele>
        <time>2021-06-24T10:58:39Z</time>
      </trkpt>
      <trkpt lat="45.62285" lon="6.60885">
        <ele>2252.03</ele>
        <time>2021-06-24T10:58:53Z</time>
      </trkpt>
      <trkpt lat="45.62284" lon="6.60889">
        <ele>2252.51</ele>
        <time>2021-06-24T10:59:18Z</time>
      </trkpt>
      <trkpt lat="45.62285" lon="6.60887">
        <ele>2252.51</ele>
        <time>2021-06-24T10:59:46Z</time>
      </trkpt>
      <trkpt lat="45.62286" lon="6.60889">
        <ele>2252.51</ele>
        <time>2021-06-24T11:00:13Z</time>
      </trkpt>
      <trkpt lat="45.62287" lon="6.60879">
        <ele>2252.51</ele>
        <time>2021-06-24T11:00:38Z</time>
      </trkpt>
      <trkpt lat="45.62288" lon="6.60888">
        <ele>2252.51</ele>
        <time>2021-06-24T11:01:00Z</time>
      </trkpt>
      <trkpt lat="45.62295" lon="6.60893">
        <ele>2253.47</ele>
        <time>2021-06-24T11:01:10Z</time>
      </trkpt>
      <trkpt lat="45.62293" lon="6.60894">
        <ele>2253.47</ele>
        <time>2021-06-24T11:01:16Z</time>
      </trkpt>
      <trkpt lat="45.62286" lon="6.6089">
        <ele>2252.03</ele>
        <time>2021-06-24T11:01:24Z</time>
      </trkpt>
      <trkpt lat="45.62285" lon="6.60889">
        <ele>2252.03</ele>
        <time>2021-06-24T11:01:36Z</time>
      </trkpt>
      <trkpt lat="45.62286" lon="6.60888">
        <ele>2252.99</ele>
        <time>2021-06-24T11:02:00Z</time>
      </trkpt>
      <trkpt lat="45.62286" lon="6.60889">
        <ele>2252.51</ele>
        <time>2021-06-24T11:02:16Z</time>
      </trkpt>
      <trkpt lat="45.62288" lon="6.60892">
        <ele>2252.51</ele>
        <time>2021-06-24T11:02:30Z</time>
      </trkpt>
      <trkpt lat="45.62286" lon="6.60892">
        <ele>2252.51</ele>
        <time>2021-06-24T11:02:50Z</time>
      </trkpt>
      <trkpt lat="45.62287" lon="6.60893">
        <ele>2253.47</ele>
        <time>2021-06-24T11:03:02Z</time>
      </trkpt>
      <trkpt lat="45.62291" lon="6.60896">
        <ele>2252.03</ele>
        <time>2021-06-24T11:03:21Z</time>
      </trkpt>
      <trkpt lat="45.62293" lon="6.60898">
        <ele>2251.54</ele>
        <time>2021-06-24T11:03:23Z</time>
      </trkpt>
      <trkpt lat="45.62307" lon="6.6091">
        <ele>2250.1</ele>
        <time>2021-06-24T11:03:36Z</time>
      </trkpt>
      <trkpt lat="45.62322" lon="6.60915">
        <ele>2252.51</ele>
        <time>2021-06-24T11:03:48Z</time>
      </trkpt>
      <trkpt lat="45.62332" lon="6.6092">
        <ele>2254.43</ele>
        <time>2021-06-24T11:03:57Z</time>
      </trkpt>
      <trkpt lat="45.62333" lon="6.60921">
        <ele>2254.43</ele>
        <time>2021-06-24T11:03:58Z</time>
      </trkpt>
      <trkpt lat="45.6234" lon="6.60924">
        <ele>2254.43</ele>
        <time>2021-06-24T11:04:04Z</time>
      </trkpt>
      <trkpt lat="45.62341" lon="6.60924">
        <ele>2254.43</ele>
        <time>2021-06-24T11:04:05Z</time>
      </trkpt>
      <trkpt lat="45.62342" lon="6.60924">
        <ele>2252.99</ele>
        <time>2021-06-24T11:04:06Z</time>
      </trkpt>
      <trkpt lat="45.62344" lon="6.60924">
        <ele>2252.99</ele>
        <time>2021-06-24T11:04:07Z</time>
      </trkpt>
      <trkpt lat="45.62345" lon="6.60925">
        <ele>2252.99</ele>
        <time>2021-06-24T11:04:08Z</time>
      </trkpt>
      <trkpt lat="45.62346" lon="6.60926">
        <ele>2252.99</ele>
        <time>2021-06-24T11:04:09Z</time>
      </trkpt>
      <trkpt lat="45.62347" lon="6.60927">
        <ele>2252.99</ele>
        <time>2021-06-24T11:04:10Z</time>
      </trkpt>
      <trkpt lat="45.62348" lon="6.60929">
        <ele>2252.99</ele>
        <time>2021-06-24T11:04:11Z</time>
      </trkpt>
      <trkpt lat="45.6235" lon="6.60929">
        <ele>2252.99</ele>
        <time>2021-06-24T11:04:12Z</time>
      </trkpt>
      <trkpt lat="45.62351" lon="6.6093">
        <ele>2252.99</ele>
        <time>2021-06-24T11:04:13Z</time>
      </trkpt>
      <trkpt lat="45.62364" lon="6.60936">
        <ele>2252.51</ele>
        <time>2021-06-24T11:04:25Z</time>
      </trkpt>
      <trkpt lat="45.62365" lon="6.60936">
        <ele>2253.47</ele>
        <time>2021-06-24T11:04:27Z</time>
      </trkpt>
      <trkpt lat="45.62362" lon="6.60938">
        <ele>2254.43</ele>
        <time>2021-06-24T11:04:34Z</time>
      </trkpt>
      <trkpt lat="45.6236" lon="6.60938">
        <ele>2254.43</ele>
        <time>2021-06-24T11:04:35Z</time>
      </trkpt>
      <trkpt lat="45.62359" lon="6.60938">
        <ele>2252.99</ele>
        <time>2021-06-24T11:04:36Z</time>
      </trkpt>
      <trkpt lat="45.62358" lon="6.60937">
        <ele>2252.51</ele>
        <time>2021-06-24T11:04:37Z</time>
      </trkpt>
      <trkpt lat="45.62357" lon="6.60936">
        <ele>2252.51</ele>
        <time>2021-06-24T11:04:38Z</time>
      </trkpt>
      <trkpt lat="45.62351" lon="6.60933">
        <ele>2252.51</ele>
        <time>2021-06-24T11:04:43Z</time>
      </trkpt>
      <trkpt lat="45.62349" lon="6.60933">
        <ele>2252.51</ele>
        <time>2021-06-24T11:04:44Z</time>
      </trkpt>
      <trkpt lat="45.62348" lon="6.60932">
        <ele>2252.51</ele>
        <time>2021-06-24T11:04:45Z</time>
      </trkpt>
      <trkpt lat="45.62347" lon="6.60931">
        <ele>2252.51</ele>
        <time>2021-06-24T11:04:46Z</time>
      </trkpt>
      <trkpt lat="45.62346" lon="6.6093">
        <ele>2252.51</ele>
        <time>2021-06-24T11:04:47Z</time>
      </trkpt>
      <trkpt lat="45.62345" lon="6.60928">
        <ele>2253.95</ele>
        <time>2021-06-24T11:04:48Z</time>
      </trkpt>
      <trkpt lat="45.62344" lon="6.60927">
        <ele>2253.95</ele>
        <time>2021-06-24T11:04:49Z</time>
      </trkpt>
      <trkpt lat="45.62343" lon="6.60927">
        <ele>2253.95</ele>
        <time>2021-06-24T11:04:50Z</time>
      </trkpt>
      <trkpt lat="45.62341" lon="6.60926">
        <ele>2253.95</ele>
        <time>2021-06-24T11:04:51Z</time>
      </trkpt>
      <trkpt lat="45.62329" lon="6.60923">
        <ele>2254.91</ele>
        <time>2021-06-24T11:05:01Z</time>
      </trkpt>
      <trkpt lat="45.62328" lon="6.60922">
        <ele>2254.91</ele>
        <time>2021-06-24T11:05:02Z</time>
      </trkpt>
      <trkpt lat="45.62324" lon="6.60917">
        <ele>2254.91</ele>
        <time>2021-06-24T11:05:07Z</time>
      </trkpt>
      <trkpt lat="45.62323" lon="6.60917">
        <ele>2254.91</ele>
        <time>2021-06-24T11:05:08Z</time>
      </trkpt>
      <trkpt lat="45.62322" lon="6.60916">
        <ele>2253.47</ele>
        <time>2021-06-24T11:05:09Z</time>
      </trkpt>
      <trkpt lat="45.62321" lon="6.60915">
        <ele>2253.47</ele>
        <time>2021-06-24T11:05:10Z</time>
      </trkpt>
      <trkpt lat="45.62319" lon="6.60909">
        <ele>2254.91</ele>
        <time>2021-06-24T11:05:20Z</time>
      </trkpt>
      <trkpt lat="45.62321" lon="6.6091">
        <ele>2255.39</ele>
        <time>2021-06-24T11:05:26Z</time>
      </trkpt>
      <trkpt lat="45.6232" lon="6.60913">
        <ele>2254.43</ele>
        <time>2021-06-24T11:05:31Z</time>
      </trkpt>
      <trkpt lat="45.62317" lon="6.60912">
        <ele>2252.51</ele>
        <time>2021-06-24T11:05:35Z</time>
      </trkpt>
      <trkpt lat="45.6231" lon="6.60913">
        <ele>2251.06</ele>
        <time>2021-06-24T11:05:41Z</time>
      </trkpt>
      <trkpt lat="45.62305" lon="6.60913">
        <ele>2251.06</ele>
        <time>2021-06-24T11:05:55Z</time>
      </trkpt>
      <trkpt lat="45.62302" lon="6.6091">
        <ele>2251.06</ele>
        <time>2021-06-24T11:06:15Z</time>
      </trkpt>
      <trkpt lat="45.62302" lon="6.60908">
        <ele>2250.58</ele>
        <time>2021-06-24T11:06:16Z</time>
      </trkpt>
      <trkpt lat="45.62299" lon="6.60901">
        <ele>2249.62</ele>
        <time>2021-06-24T11:06:28Z</time>
      </trkpt>
      <trkpt lat="45.62295" lon="6.60892">
        <ele>2249.62</ele>
        <time>2021-06-24T11:06:35Z</time>
      </trkpt>
      <trkpt lat="45.62294" lon="6.60891">
        <ele>2249.14</ele>
        <time>2021-06-24T11:06:36Z</time>
      </trkpt>
      <trkpt lat="45.62292" lon="6.60888">
        <ele>2247.22</ele>
        <time>2021-06-24T11:06:41Z</time>
      </trkpt>
      <trkpt lat="45.62294" lon="6.60876">
        <ele>2248.18</ele>
        <time>2021-06-24T11:06:52Z</time>
      </trkpt>
      <trkpt lat="45.62293" lon="6.60875">
        <ele>2248.66</ele>
        <time>2021-06-24T11:06:54Z</time>
      </trkpt>
      <trkpt lat="45.62293" lon="6.60877">
        <ele>2249.62</ele>
        <time>2021-06-24T11:07:07Z</time>
      </trkpt>
      <trkpt lat="45.62293" lon="6.60877">
        <ele>2249.62</ele>
        <time>2021-06-24T11:07:26Z</time>
      </trkpt>
      <trkpt lat="45.62292" lon="6.60877">
        <ele>2249.62</ele>
        <time>2021-06-24T11:07:40Z</time>
      </trkpt>
      <trkpt lat="45.62292" lon="6.60876">
        <ele>2249.62</ele>
        <time>2021-06-24T11:07:59Z</time>
      </trkpt>
      <trkpt lat="45.62291" lon="6.60876">
        <ele>2248.18</ele>
        <time>2021-06-24T11:08:00Z</time>
      </trkpt>
      <trkpt lat="45.6229" lon="6.60876">
        <ele>2248.18</ele>
        <time>2021-06-24T11:08:01Z</time>
      </trkpt>
      <trkpt lat="45.62284" lon="6.60873">
        <ele>2244.33</ele>
        <time>2021-06-24T11:08:12Z</time>
      </trkpt>
      <trkpt lat="45.6228" lon="6.60868">
        <ele>2243.37</ele>
        <time>2021-06-24T11:08:19Z</time>
      </trkpt>
      <trkpt lat="45.62278" lon="6.60863">
        <ele>2242.89</ele>
        <time>2021-06-24T11:08:29Z</time>
      </trkpt>
      <trkpt lat="45.62278" lon="6.60862">
        <ele>2242.89</ele>
        <time>2021-06-24T11:08:45Z</time>
      </trkpt>
      <trkpt lat="45.62278" lon="6.60861">
        <ele>2242.41</ele>
        <time>2021-06-24T11:09:14Z</time>
      </trkpt>
      <trkpt lat="45.62282" lon="6.60859">
        <ele>2241.93</ele>
        <time>2021-06-24T11:09:36Z</time>
      </trkpt>
      <trkpt lat="45.62278" lon="6.60863">
        <ele>2241.93</ele>
        <time>2021-06-24T11:09:53Z</time>
      </trkpt>
      <trkpt lat="45.62275" lon="6.60865">
        <ele>2241.93</ele>
        <time>2021-06-24T11:10:21Z</time>
      </trkpt>
      <trkpt lat="45.62273" lon="6.60864">
        <ele>2241.93</ele>
        <time>2021-06-24T11:10:22Z</time>
      </trkpt>
      <trkpt lat="45.62261" lon="6.6086">
        <ele>2239.53</ele>
        <time>2021-06-24T11:10:38Z</time>
      </trkpt>
      <trkpt lat="45.62254" lon="6.6086">
        <ele>2237.13</ele>
        <time>2021-06-24T11:10:50Z</time>
      </trkpt>
      <trkpt lat="45.62255" lon="6.60851">
        <ele>2235.68</ele>
        <time>2021-06-24T11:11:01Z</time>
      </trkpt>
      <trkpt lat="45.62256" lon="6.60848">
        <ele>2234.24</ele>
        <time>2021-06-24T11:11:11Z</time>
      </trkpt>
      <trkpt lat="45.62256" lon="6.60843">
        <ele>2231.84</ele>
        <time>2021-06-24T11:11:23Z</time>
      </trkpt>
      <trkpt lat="45.62255" lon="6.60837">
        <ele>2230.88</ele>
        <time>2021-06-24T11:11:31Z</time>
      </trkpt>
      <trkpt lat="45.62249" lon="6.60837">
        <ele>2227.99</ele>
        <time>2021-06-24T11:11:42Z</time>
      </trkpt>
      <trkpt lat="45.62247" lon="6.60834">
        <ele>2226.07</ele>
        <time>2021-06-24T11:11:47Z</time>
      </trkpt>
      <trkpt lat="45.62239" lon="6.60822">
        <ele>2223.19</ele>
        <time>2021-06-24T11:12:02Z</time>
      </trkpt>
      <trkpt lat="45.62238" lon="6.60819">
        <ele>2222.71</ele>
        <time>2021-06-24T11:12:05Z</time>
      </trkpt>
      <trkpt lat="45.62239" lon="6.60807">
        <ele>2220.3</ele>
        <time>2021-06-24T11:12:17Z</time>
      </trkpt>
      <trkpt lat="45.62237" lon="6.60803">
        <ele>2219.82</ele>
        <time>2021-06-24T11:12:23Z</time>
      </trkpt>
      <trkpt lat="45.62227" lon="6.6079">
        <ele>2216.46</ele>
        <time>2021-06-24T11:12:36Z</time>
      </trkpt>
      <trkpt lat="45.62224" lon="6.60783">
        <ele>2215.5</ele>
        <time>2021-06-24T11:12:42Z</time>
      </trkpt>
      <trkpt lat="45.62221" lon="6.6077">
        <ele>2215.01</ele>
        <time>2021-06-24T11:12:55Z</time>
      </trkpt>
      <trkpt lat="45.62221" lon="6.60766">
        <ele>2215.01</ele>
        <time>2021-06-24T11:12:58Z</time>
      </trkpt>
      <trkpt lat="45.62221" lon="6.60764">
        <ele>2215.01</ele>
        <time>2021-06-24T11:12:59Z</time>
      </trkpt>
      <trkpt lat="45.62216" lon="6.60755">
        <ele>2214.05</ele>
        <time>2021-06-24T11:13:07Z</time>
      </trkpt>
      <trkpt lat="45.62208" lon="6.60747">
        <ele>2210.69</ele>
        <time>2021-06-24T11:13:20Z</time>
      </trkpt>
      <trkpt lat="45.62208" lon="6.60743">
        <ele>2210.21</ele>
        <time>2021-06-24T11:13:31Z</time>
      </trkpt>
      <trkpt lat="45.62208" lon="6.60744">
        <ele>2209.73</ele>
        <time>2021-06-24T11:13:50Z</time>
      </trkpt>
      <trkpt lat="45.62208" lon="6.60742">
        <ele>2209.73</ele>
        <time>2021-06-24T11:13:51Z</time>
      </trkpt>
      <trkpt lat="45.62206" lon="6.60724">
        <ele>2211.17</ele>
        <time>2021-06-24T11:14:03Z</time>
      </trkpt>
      <trkpt lat="45.62206" lon="6.60722">
        <ele>2211.17</ele>
        <time>2021-06-24T11:14:04Z</time>
      </trkpt>
      <trkpt lat="45.62204" lon="6.60714">
        <ele>2211.65</ele>
        <time>2021-06-24T11:14:16Z</time>
      </trkpt>
      <trkpt lat="45.622" lon="6.60701">
        <ele>2210.21</ele>
        <time>2021-06-24T11:14:26Z</time>
      </trkpt>
      <trkpt lat="45.62193" lon="6.60685">
        <ele>2209.25</ele>
        <time>2021-06-24T11:14:39Z</time>
      </trkpt>
      <trkpt lat="45.62192" lon="6.60682">
        <ele>2208.77</ele>
        <time>2021-06-24T11:14:42Z</time>
      </trkpt>
      <trkpt lat="45.62189" lon="6.60678">
        <ele>2208.29</ele>
        <time>2021-06-24T11:14:47Z</time>
      </trkpt>
      <trkpt lat="45.62183" lon="6.60675">
        <ele>2207.32</ele>
        <time>2021-06-24T11:14:54Z</time>
      </trkpt>
      <trkpt lat="45.62181" lon="6.60673">
        <ele>2206.84</ele>
        <time>2021-06-24T11:14:56Z</time>
      </trkpt>
      <trkpt lat="45.62175" lon="6.60667">
        <ele>2205.88</ele>
        <time>2021-06-24T11:15:04Z</time>
      </trkpt>
      <trkpt lat="45.62172" lon="6.60663">
        <ele>2204.92</ele>
        <time>2021-06-24T11:15:19Z</time>
      </trkpt>
      <trkpt lat="45.62164" lon="6.60659">
        <ele>2203.48</ele>
        <time>2021-06-24T11:15:33Z</time>
      </trkpt>
      <trkpt lat="45.62151" lon="6.60658">
        <ele>2200.11</ele>
        <time>2021-06-24T11:15:48Z</time>
      </trkpt>
      <trkpt lat="45.6214" lon="6.60658">
        <ele>2197.23</ele>
        <time>2021-06-24T11:16:01Z</time>
      </trkpt>
      <trkpt lat="45.62128" lon="6.60652">
        <ele>2197.23</ele>
        <time>2021-06-24T11:16:15Z</time>
      </trkpt>
      <trkpt lat="45.62117" lon="6.60651">
        <ele>2196.27</ele>
        <time>2021-06-24T11:16:28Z</time>
      </trkpt>
      <trkpt lat="45.62113" lon="6.60649">
        <ele>2195.31</ele>
        <time>2021-06-24T11:16:34Z</time>
      </trkpt>
      <trkpt lat="45.62109" lon="6.6065">
        <ele>2193.87</ele>
        <time>2021-06-24T11:16:45Z</time>
      </trkpt>
      <trkpt lat="45.62106" lon="6.60646">
        <ele>2192.9</ele>
        <time>2021-06-24T11:17:07Z</time>
      </trkpt>
      <trkpt lat="45.621" lon="6.60642">
        <ele>2192.9</ele>
        <time>2021-06-24T11:17:13Z</time>
      </trkpt>
      <trkpt lat="45.62085" lon="6.6063">
        <ele>2192.9</ele>
        <time>2021-06-24T11:17:28Z</time>
      </trkpt>
      <trkpt lat="45.62074" lon="6.60616">
        <ele>2191.46</ele>
        <time>2021-06-24T11:17:44Z</time>
      </trkpt>
      <trkpt lat="45.62067" lon="6.60607">
        <ele>2190.5</ele>
        <time>2021-06-24T11:17:56Z</time>
      </trkpt>
      <trkpt lat="45.62066" lon="6.60606">
        <ele>2190.5</ele>
        <time>2021-06-24T11:17:57Z</time>
      </trkpt>
      <trkpt lat="45.62065" lon="6.60605">
        <ele>2190.5</ele>
        <time>2021-06-24T11:17:58Z</time>
      </trkpt>
      <trkpt lat="45.62059" lon="6.60594">
        <ele>2190.02</ele>
        <time>2021-06-24T11:18:11Z</time>
      </trkpt>
      <trkpt lat="45.62054" lon="6.60586">
        <ele>2188.58</ele>
        <time>2021-06-24T11:18:19Z</time>
      </trkpt>
      <trkpt lat="45.62054" lon="6.60583">
        <ele>2188.1</ele>
        <time>2021-06-24T11:18:21Z</time>
      </trkpt>
      <trkpt lat="45.62052" lon="6.60581">
        <ele>2188.1</ele>
        <time>2021-06-24T11:18:23Z</time>
      </trkpt>
      <trkpt lat="45.62043" lon="6.60568">
        <ele>2185.69</ele>
        <time>2021-06-24T11:18:38Z</time>
      </trkpt>
      <trkpt lat="45.62034" lon="6.60561">
        <ele>2184.25</ele>
        <time>2021-06-24T11:18:51Z</time>
      </trkpt>
      <trkpt lat="45.62031" lon="6.60559">
        <ele>2183.77</ele>
        <time>2021-06-24T11:19:04Z</time>
      </trkpt>
      <trkpt lat="45.6203" lon="6.60559">
        <ele>2183.29</ele>
        <time>2021-06-24T11:19:05Z</time>
      </trkpt>
      <trkpt lat="45.62023" lon="6.60554">
        <ele>2180.41</ele>
        <time>2021-06-24T11:19:16Z</time>
      </trkpt>
      <trkpt lat="45.6202" lon="6.6055">
        <ele>2179.93</ele>
        <time>2021-06-24T11:19:29Z</time>
      </trkpt>
      <trkpt lat="45.62012" lon="6.60545">
        <ele>2178</ele>
        <time>2021-06-24T11:19:41Z</time>
      </trkpt>
      <trkpt lat="45.62003" lon="6.60538">
        <ele>2175.6</ele>
        <time>2021-06-24T11:19:55Z</time>
      </trkpt>
      <trkpt lat="45.61997" lon="6.60533">
        <ele>2174.16</ele>
        <time>2021-06-24T11:20:07Z</time>
      </trkpt>
      <trkpt lat="45.61988" lon="6.60531">
        <ele>2172.24</ele>
        <time>2021-06-24T11:20:18Z</time>
      </trkpt>
      <trkpt lat="45.61982" lon="6.60528">
        <ele>2171.27</ele>
        <time>2021-06-24T11:20:31Z</time>
      </trkpt>
      <trkpt lat="45.6198" lon="6.60522">
        <ele>2170.79</ele>
        <time>2021-06-24T11:20:41Z</time>
      </trkpt>
      <trkpt lat="45.61979" lon="6.60521">
        <ele>2170.79</ele>
        <time>2021-06-24T11:20:42Z</time>
      </trkpt>
      <trkpt lat="45.6197" lon="6.60513">
        <ele>2169.35</ele>
        <time>2021-06-24T11:20:55Z</time>
      </trkpt>
      <trkpt lat="45.61962" lon="6.60504">
        <ele>2169.35</ele>
        <time>2021-06-24T11:21:04Z</time>
      </trkpt>
      <trkpt lat="45.61955" lon="6.60497">
        <ele>2167.91</ele>
        <time>2021-06-24T11:21:18Z</time>
      </trkpt>
      <trkpt lat="45.61953" lon="6.60492">
        <ele>2166.47</ele>
        <time>2021-06-24T11:21:31Z</time>
      </trkpt>
      <trkpt lat="45.61951" lon="6.60483">
        <ele>2165.03</ele>
        <time>2021-06-24T11:21:49Z</time>
      </trkpt>
      <trkpt lat="45.61945" lon="6.60473">
        <ele>2162.14</ele>
        <time>2021-06-24T11:22:03Z</time>
      </trkpt>
      <trkpt lat="45.61943" lon="6.60469">
        <ele>2160.22</ele>
        <time>2021-06-24T11:22:16Z</time>
      </trkpt>
      <trkpt lat="45.6194" lon="6.60465">
        <ele>2158.3</ele>
        <time>2021-06-24T11:22:27Z</time>
      </trkpt>
      <trkpt lat="45.61938" lon="6.60465">
        <ele>2157.82</ele>
        <time>2021-06-24T11:22:30Z</time>
      </trkpt>
      <trkpt lat="45.61937" lon="6.60461">
        <ele>2155.41</ele>
        <time>2021-06-24T11:22:41Z</time>
      </trkpt>
      <trkpt lat="45.61937" lon="6.60457">
        <ele>2154.93</ele>
        <time>2021-06-24T11:22:45Z</time>
      </trkpt>
      <trkpt lat="45.61937" lon="6.60446">
        <ele>2152.53</ele>
        <time>2021-06-24T11:22:57Z</time>
      </trkpt>
      <trkpt lat="45.61937" lon="6.60444">
        <ele>2152.53</ele>
        <time>2021-06-24T11:22:59Z</time>
      </trkpt>
      <trkpt lat="45.61936" lon="6.6044">
        <ele>2151.57</ele>
        <time>2021-06-24T11:23:02Z</time>
      </trkpt>
      <trkpt lat="45.61935" lon="6.60431">
        <ele>2150.61</ele>
        <time>2021-06-24T11:23:12Z</time>
      </trkpt>
      <trkpt lat="45.61935" lon="6.60429">
        <ele>2150.13</ele>
        <time>2021-06-24T11:23:13Z</time>
      </trkpt>
      <trkpt lat="45.61934" lon="6.60428">
        <ele>2150.13</ele>
        <time>2021-06-24T11:23:14Z</time>
      </trkpt>
      <trkpt lat="45.6193" lon="6.60411">
        <ele>2149.16</ele>
        <time>2021-06-24T11:23:26Z</time>
      </trkpt>
      <trkpt lat="45.61927" lon="6.604">
        <ele>2150.13</ele>
        <time>2021-06-24T11:23:34Z</time>
      </trkpt>
      <trkpt lat="45.61926" lon="6.60399">
        <ele>2148.68</ele>
        <time>2021-06-24T11:23:47Z</time>
      </trkpt>
      <trkpt lat="45.61922" lon="6.60389">
        <ele>2150.13</ele>
        <time>2021-06-24T11:23:56Z</time>
      </trkpt>
      <trkpt lat="45.61917" lon="6.60374">
        <ele>2150.13</ele>
        <time>2021-06-24T11:24:08Z</time>
      </trkpt>
      <trkpt lat="45.61918" lon="6.60367">
        <ele>2148.2</ele>
        <time>2021-06-24T11:24:15Z</time>
      </trkpt>
      <trkpt lat="45.61914" lon="6.60359">
        <ele>2144.84</ele>
        <time>2021-06-24T11:24:25Z</time>
      </trkpt>
      <trkpt lat="45.61905" lon="6.60357">
        <ele>2143.4</ele>
        <time>2021-06-24T11:24:39Z</time>
      </trkpt>
      <trkpt lat="45.61892" lon="6.6035">
        <ele>2140.51</ele>
        <time>2021-06-24T11:24:55Z</time>
      </trkpt>
      <trkpt lat="45.61891" lon="6.60351">
        <ele>2140.51</ele>
        <time>2021-06-24T11:25:01Z</time>
      </trkpt>
      <trkpt lat="45.6188" lon="6.60345">
        <ele>2137.63</ele>
        <time>2021-06-24T11:25:15Z</time>
      </trkpt>
      <trkpt lat="45.61868" lon="6.60346">
        <ele>2134.26</ele>
        <time>2021-06-24T11:25:29Z</time>
      </trkpt>
      <trkpt lat="45.6186" lon="6.60341">
        <ele>2132.82</ele>
        <time>2021-06-24T11:25:37Z</time>
      </trkpt>
      <trkpt lat="45.61859" lon="6.6034">
        <ele>2132.82</ele>
        <time>2021-06-24T11:25:38Z</time>
      </trkpt>
      <trkpt lat="45.61845" lon="6.60337">
        <ele>2130.9</ele>
        <time>2021-06-24T11:25:53Z</time>
      </trkpt>
      <trkpt lat="45.61838" lon="6.60338">
        <ele>2129.46</ele>
        <time>2021-06-24T11:26:02Z</time>
      </trkpt>
      <trkpt lat="45.61829" lon="6.60337">
        <ele>2127.05</ele>
        <time>2021-06-24T11:26:12Z</time>
      </trkpt>
      <trkpt lat="45.61827" lon="6.60335">
        <ele>2127.05</ele>
        <time>2021-06-24T11:26:16Z</time>
      </trkpt>
      <trkpt lat="45.61825" lon="6.60334">
        <ele>2126.09</ele>
        <time>2021-06-24T11:26:18Z</time>
      </trkpt>
      <trkpt lat="45.61823" lon="6.60333">
        <ele>2126.09</ele>
        <time>2021-06-24T11:26:19Z</time>
      </trkpt>
      <trkpt lat="45.61815" lon="6.60329">
        <ele>2124.65</ele>
        <time>2021-06-24T11:26:31Z</time>
      </trkpt>
      <trkpt lat="45.61812" lon="6.60329">
        <ele>2124.65</ele>
        <time>2021-06-24T11:26:34Z</time>
      </trkpt>
      <trkpt lat="45.6181" lon="6.60329">
        <ele>2124.65</ele>
        <time>2021-06-24T11:26:35Z</time>
      </trkpt>
      <trkpt lat="45.61797" lon="6.60321">
        <ele>2123.21</ele>
        <time>2021-06-24T11:26:48Z</time>
      </trkpt>
      <trkpt lat="45.61789" lon="6.60319">
        <ele>2122.73</ele>
        <time>2021-06-24T11:26:55Z</time>
      </trkpt>
      <trkpt lat="45.61788" lon="6.60318">
        <ele>2122.73</ele>
        <time>2021-06-24T11:26:56Z</time>
      </trkpt>
      <trkpt lat="45.61772" lon="6.60316">
        <ele>2120.32</ele>
        <time>2021-06-24T11:27:11Z</time>
      </trkpt>
      <trkpt lat="45.61771" lon="6.60316">
        <ele>2120.32</ele>
        <time>2021-06-24T11:27:12Z</time>
      </trkpt>
      <trkpt lat="45.6177" lon="6.60316">
        <ele>2119.84</ele>
        <time>2021-06-24T11:27:14Z</time>
      </trkpt>
      <trkpt lat="45.61759" lon="6.60313">
        <ele>2116.96</ele>
        <time>2021-06-24T11:27:28Z</time>
      </trkpt>
      <trkpt lat="45.61755" lon="6.60313">
        <ele>2116</ele>
        <time>2021-06-24T11:27:32Z</time>
      </trkpt>
      <trkpt lat="45.61753" lon="6.60313">
        <ele>2116</ele>
        <time>2021-06-24T11:27:34Z</time>
      </trkpt>
      <trkpt lat="45.61751" lon="6.60313">
        <ele>2115.52</ele>
        <time>2021-06-24T11:27:35Z</time>
      </trkpt>
      <trkpt lat="45.61743" lon="6.60309">
        <ele>2114.08</ele>
        <time>2021-06-24T11:27:47Z</time>
      </trkpt>
      <trkpt lat="45.61745" lon="6.60307">
        <ele>2114.08</ele>
        <time>2021-06-24T11:28:05Z</time>
      </trkpt>
      <trkpt lat="45.61745" lon="6.60309">
        <ele>2113.6</ele>
        <time>2021-06-24T11:28:25Z</time>
      </trkpt>
      <trkpt lat="45.61743" lon="6.60309">
        <ele>2113.6</ele>
        <time>2021-06-24T11:28:49Z</time>
      </trkpt>
      <trkpt lat="45.61743" lon="6.60308">
        <ele>2113.6</ele>
        <time>2021-06-24T11:29:10Z</time>
      </trkpt>
      <trkpt lat="45.61737" lon="6.60312">
        <ele>2113.6</ele>
        <time>2021-06-24T11:29:34Z</time>
      </trkpt>
      <trkpt lat="45.6173" lon="6.60318">
        <ele>2113.12</ele>
        <time>2021-06-24T11:29:48Z</time>
      </trkpt>
      <trkpt lat="45.61727" lon="6.60313">
        <ele>2113.12</ele>
        <time>2021-06-24T11:30:04Z</time>
      </trkpt>
      <trkpt lat="45.61726" lon="6.60313">
        <ele>2113.12</ele>
        <time>2021-06-24T11:30:05Z</time>
      </trkpt>
      <trkpt lat="45.61725" lon="6.60312">
        <ele>2113.12</ele>
        <time>2021-06-24T11:30:06Z</time>
      </trkpt>
      <trkpt lat="45.61724" lon="6.60312">
        <ele>2113.12</ele>
        <time>2021-06-24T11:30:07Z</time>
      </trkpt>
      <trkpt lat="45.61723" lon="6.60312">
        <ele>2113.12</ele>
        <time>2021-06-24T11:30:08Z</time>
      </trkpt>
      <trkpt lat="45.61721" lon="6.60312">
        <ele>2113.12</ele>
        <time>2021-06-24T11:30:09Z</time>
      </trkpt>
      <trkpt lat="45.61719" lon="6.60312">
        <ele>2113.12</ele>
        <time>2021-06-24T11:30:10Z</time>
      </trkpt>
      <trkpt lat="45.61718" lon="6.60312">
        <ele>2113.12</ele>
        <time>2021-06-24T11:30:11Z</time>
      </trkpt>
      <trkpt lat="45.61716" lon="6.60312">
        <ele>2113.12</ele>
        <time>2021-06-24T11:30:12Z</time>
      </trkpt>
      <trkpt lat="45.61699" lon="6.60321">
        <ele>2114.08</ele>
        <time>2021-06-24T11:30:26Z</time>
      </trkpt>
      <trkpt lat="45.61683" lon="6.60335">
        <ele>2114.08</ele>
        <time>2021-06-24T11:30:40Z</time>
      </trkpt>
      <trkpt lat="45.61682" lon="6.60336">
        <ele>2114.08</ele>
        <time>2021-06-24T11:30:41Z</time>
      </trkpt>
      <trkpt lat="45.61683" lon="6.60333">
        <ele>2113.12</ele>
        <time>2021-06-24T11:30:45Z</time>
      </trkpt>
      <trkpt lat="45.61684" lon="6.60332">
        <ele>2113.12</ele>
        <time>2021-06-24T11:30:46Z</time>
      </trkpt>
      <trkpt lat="45.61697" lon="6.6032">
        <ele>2113.12</ele>
        <time>2021-06-24T11:30:57Z</time>
      </trkpt>
      <trkpt lat="45.61709" lon="6.6031">
        <ele>2112.63</ele>
        <time>2021-06-24T11:31:07Z</time>
      </trkpt>
      <trkpt lat="45.6171" lon="6.6031">
        <ele>2112.63</ele>
        <time>2021-06-24T11:31:08Z</time>
      </trkpt>
      <trkpt lat="45.61718" lon="6.6031">
        <ele>2114.08</ele>
        <time>2021-06-24T11:31:17Z</time>
      </trkpt>
      <trkpt lat="45.61718" lon="6.60312">
        <ele>2114.08</ele>
        <time>2021-06-24T11:31:18Z</time>
      </trkpt>
      <trkpt lat="45.61717" lon="6.60314">
        <ele>2114.08</ele>
        <time>2021-06-24T11:31:30Z</time>
      </trkpt>
      <trkpt lat="45.61714" lon="6.60316">
        <ele>2114.08</ele>
        <time>2021-06-24T11:32:01Z</time>
      </trkpt>
      <trkpt lat="45.61712" lon="6.60314">
        <ele>2113.6</ele>
        <time>2021-06-24T11:32:27Z</time>
      </trkpt>
      <trkpt lat="45.61717" lon="6.60311">
        <ele>2113.6</ele>
        <time>2021-06-24T11:32:37Z</time>
      </trkpt>
      <trkpt lat="45.61725" lon="6.60304">
        <ele>2113.6</ele>
        <time>2021-06-24T11:32:49Z</time>
      </trkpt>
      <trkpt lat="45.61727" lon="6.60304">
        <ele>2113.12</ele>
        <time>2021-06-24T11:33:17Z</time>
      </trkpt>
      <trkpt lat="45.61726" lon="6.60301">
        <ele>2113.12</ele>
        <time>2021-06-24T11:33:22Z</time>
      </trkpt>
      <trkpt lat="45.61725" lon="6.603">
        <ele>2113.12</ele>
        <time>2021-06-24T11:33:23Z</time>
      </trkpt>
      <trkpt lat="45.61718" lon="6.6029">
        <ele>2113.12</ele>
        <time>2021-06-24T11:33:36Z</time>
      </trkpt>
      <trkpt lat="45.61718" lon="6.60286">
        <ele>2113.12</ele>
        <time>2021-06-24T11:33:41Z</time>
      </trkpt>
      <trkpt lat="45.61719" lon="6.60288">
        <ele>2113.12</ele>
        <time>2021-06-24T11:33:42Z</time>
      </trkpt>
      <trkpt lat="45.61728" lon="6.60307">
        <ele>2114.08</ele>
        <time>2021-06-24T11:33:52Z</time>
      </trkpt>
      <trkpt lat="45.61727" lon="6.60305">
        <ele>2114.08</ele>
        <time>2021-06-24T11:33:55Z</time>
      </trkpt>
      <trkpt lat="45.61727" lon="6.60303">
        <ele>2114.08</ele>
        <time>2021-06-24T11:33:56Z</time>
      </trkpt>
      <trkpt lat="45.61727" lon="6.60302">
        <ele>2114.08</ele>
        <time>2021-06-24T11:33:57Z</time>
      </trkpt>
      <trkpt lat="45.61726" lon="6.603">
        <ele>2114.08</ele>
        <time>2021-06-24T11:33:58Z</time>
      </trkpt>
      <trkpt lat="45.61725" lon="6.60298">
        <ele>2114.08</ele>
        <time>2021-06-24T11:33:59Z</time>
      </trkpt>
      <trkpt lat="45.61721" lon="6.60283">
        <ele>2112.63</ele>
        <time>2021-06-24T11:34:08Z</time>
      </trkpt>
      <trkpt lat="45.61727" lon="6.6026">
        <ele>2110.71</ele>
        <time>2021-06-24T11:34:21Z</time>
      </trkpt>
      <trkpt lat="45.61741" lon="6.6024">
        <ele>2108.79</ele>
        <time>2021-06-24T11:34:36Z</time>
      </trkpt>
      <trkpt lat="45.61756" lon="6.60216">
        <ele>2106.39</ele>
        <time>2021-06-24T11:34:54Z</time>
      </trkpt>
      <trkpt lat="45.61766" lon="6.60195">
        <ele>2103.98</ele>
        <time>2021-06-24T11:35:10Z</time>
      </trkpt>
      <trkpt lat="45.61778" lon="6.60179">
        <ele>2103.02</ele>
        <time>2021-06-24T11:35:25Z</time>
      </trkpt>
      <trkpt lat="45.61785" lon="6.60169">
        <ele>2101.1</ele>
        <time>2021-06-24T11:35:34Z</time>
      </trkpt>
      <trkpt lat="45.61785" lon="6.60168">
        <ele>2101.1</ele>
        <time>2021-06-24T11:35:35Z</time>
      </trkpt>
      <trkpt lat="45.61786" lon="6.60166">
        <ele>2101.1</ele>
        <time>2021-06-24T11:35:36Z</time>
      </trkpt>
      <trkpt lat="45.61786" lon="6.60165">
        <ele>2101.1</ele>
        <time>2021-06-24T11:35:37Z</time>
      </trkpt>
      <trkpt lat="45.61787" lon="6.60163">
        <ele>2100.62</ele>
        <time>2021-06-24T11:35:38Z</time>
      </trkpt>
      <trkpt lat="45.61788" lon="6.60162">
        <ele>2100.62</ele>
        <time>2021-06-24T11:35:39Z</time>
      </trkpt>
      <trkpt lat="45.61788" lon="6.6016">
        <ele>2100.62</ele>
        <time>2021-06-24T11:35:40Z</time>
      </trkpt>
      <trkpt lat="45.61789" lon="6.60159">
        <ele>2100.62</ele>
        <time>2021-06-24T11:35:41Z</time>
      </trkpt>
      <trkpt lat="45.61789" lon="6.60157">
        <ele>2100.62</ele>
        <time>2021-06-24T11:35:42Z</time>
      </trkpt>
      <trkpt lat="45.6179" lon="6.60156">
        <ele>2100.62</ele>
        <time>2021-06-24T11:35:43Z</time>
      </trkpt>
      <trkpt lat="45.6179" lon="6.60154">
        <ele>2100.62</ele>
        <time>2021-06-24T11:35:44Z</time>
      </trkpt>
      <trkpt lat="45.61791" lon="6.60153">
        <ele>2099.66</ele>
        <time>2021-06-24T11:35:45Z</time>
      </trkpt>
      <trkpt lat="45.61792" lon="6.60152">
        <ele>2099.66</ele>
        <time>2021-06-24T11:35:46Z</time>
      </trkpt>
      <trkpt lat="45.61792" lon="6.6015">
        <ele>2099.66</ele>
        <time>2021-06-24T11:35:47Z</time>
      </trkpt>
      <trkpt lat="45.61794" lon="6.60145">
        <ele>2099.66</ele>
        <time>2021-06-24T11:35:52Z</time>
      </trkpt>
      <trkpt lat="45.61795" lon="6.60144">
        <ele>2099.66</ele>
        <time>2021-06-24T11:35:53Z</time>
      </trkpt>
      <trkpt lat="45.61802" lon="6.60132">
        <ele>2097.73</ele>
        <time>2021-06-24T11:36:05Z</time>
      </trkpt>
      <trkpt lat="45.61805" lon="6.60124">
        <ele>2097.73</ele>
        <time>2021-06-24T11:36:10Z</time>
      </trkpt>
      <trkpt lat="45.61805" lon="6.60123">
        <ele>2097.73</ele>
        <time>2021-06-24T11:36:11Z</time>
      </trkpt>
      <trkpt lat="45.61808" lon="6.6012">
        <ele>2097.25</ele>
        <time>2021-06-24T11:36:14Z</time>
      </trkpt>
      <trkpt lat="45.61809" lon="6.60117">
        <ele>2096.77</ele>
        <time>2021-06-24T11:36:16Z</time>
      </trkpt>
      <trkpt lat="45.6181" lon="6.60115">
        <ele>2096.77</ele>
        <time>2021-06-24T11:36:17Z</time>
      </trkpt>
      <trkpt lat="45.6181" lon="6.60115">
        <ele>2096.77</ele>
        <time>2021-06-24T11:36:18Z</time>
      </trkpt>
      <trkpt lat="45.61815" lon="6.60103">
        <ele>2096.29</ele>
        <time>2021-06-24T11:36:26Z</time>
      </trkpt>
      <trkpt lat="45.61815" lon="6.60102">
        <ele>2096.29</ele>
        <time>2021-06-24T11:36:27Z</time>
      </trkpt>
      <trkpt lat="45.61817" lon="6.601">
        <ele>2096.29</ele>
        <time>2021-06-24T11:36:29Z</time>
      </trkpt>
      <trkpt lat="45.61817" lon="6.60098">
        <ele>2095.81</ele>
        <time>2021-06-24T11:36:30Z</time>
      </trkpt>
      <trkpt lat="45.61824" lon="6.60088">
        <ele>2094.37</ele>
        <time>2021-06-24T11:36:39Z</time>
      </trkpt>
      <trkpt lat="45.61825" lon="6.60085">
        <ele>2093.89</ele>
        <time>2021-06-24T11:36:41Z</time>
      </trkpt>
      <trkpt lat="45.61825" lon="6.60084">
        <ele>2093.89</ele>
        <time>2021-06-24T11:36:42Z</time>
      </trkpt>
      <trkpt lat="45.61826" lon="6.60082">
        <ele>2093.89</ele>
        <time>2021-06-24T11:36:43Z</time>
      </trkpt>
      <trkpt lat="45.61826" lon="6.60081">
        <ele>2093.89</ele>
        <time>2021-06-24T11:36:44Z</time>
      </trkpt>
      <trkpt lat="45.61827" lon="6.6008">
        <ele>2093.89</ele>
        <time>2021-06-24T11:36:45Z</time>
      </trkpt>
      <trkpt lat="45.61827" lon="6.60079">
        <ele>2093.89</ele>
        <time>2021-06-24T11:36:46Z</time>
      </trkpt>
      <trkpt lat="45.61828" lon="6.60078">
        <ele>2093.89</ele>
        <time>2021-06-24T11:36:47Z</time>
      </trkpt>
      <trkpt lat="45.61829" lon="6.60076">
        <ele>2093.89</ele>
        <time>2021-06-24T11:36:48Z</time>
      </trkpt>
      <trkpt lat="45.61839" lon="6.60057">
        <ele>2091.49</ele>
        <time>2021-06-24T11:37:03Z</time>
      </trkpt>
      <trkpt lat="45.61848" lon="6.6004">
        <ele>2089.56</ele>
        <time>2021-06-24T11:37:17Z</time>
      </trkpt>
      <trkpt lat="45.61859" lon="6.60018">
        <ele>2087.64</ele>
        <time>2021-06-24T11:37:33Z</time>
      </trkpt>
      <trkpt lat="45.6186" lon="6.60017">
        <ele>2087.64</ele>
        <time>2021-06-24T11:37:34Z</time>
      </trkpt>
      <trkpt lat="45.61861" lon="6.60016">
        <ele>2087.64</ele>
        <time>2021-06-24T11:37:35Z</time>
      </trkpt>
      <trkpt lat="45.61877" lon="6.60005">
        <ele>2085.72</ele>
        <time>2021-06-24T11:37:49Z</time>
      </trkpt>
      <trkpt lat="45.61897" lon="6.59997">
        <ele>2083.79</ele>
        <time>2021-06-24T11:38:05Z</time>
      </trkpt>
      <trkpt lat="45.61913" lon="6.59988">
        <ele>2082.35</ele>
        <time>2021-06-24T11:38:19Z</time>
      </trkpt>
      <trkpt lat="45.61927" lon="6.59982">
        <ele>2080.91</ele>
        <time>2021-06-24T11:38:34Z</time>
      </trkpt>
      <trkpt lat="45.61931" lon="6.59979">
        <ele>2079.95</ele>
        <time>2021-06-24T11:38:41Z</time>
      </trkpt>
      <trkpt lat="45.61933" lon="6.59978">
        <ele>2079.47</ele>
        <time>2021-06-24T11:38:42Z</time>
      </trkpt>
      <trkpt lat="45.61934" lon="6.59977">
        <ele>2079.47</ele>
        <time>2021-06-24T11:38:43Z</time>
      </trkpt>
      <trkpt lat="45.61935" lon="6.59976">
        <ele>2079.47</ele>
        <time>2021-06-24T11:38:44Z</time>
      </trkpt>
      <trkpt lat="45.61935" lon="6.59975">
        <ele>2079.47</ele>
        <time>2021-06-24T11:38:45Z</time>
      </trkpt>
      <trkpt lat="45.61937" lon="6.59973">
        <ele>2079.47</ele>
        <time>2021-06-24T11:38:47Z</time>
      </trkpt>
      <trkpt lat="45.6195" lon="6.59964">
        <ele>2078.99</ele>
        <time>2021-06-24T11:39:01Z</time>
      </trkpt>
      <trkpt lat="45.61952" lon="6.59962">
        <ele>2078.51</ele>
        <time>2021-06-24T11:39:04Z</time>
      </trkpt>
      <trkpt lat="45.61958" lon="6.5996">
        <ele>2077.07</ele>
        <time>2021-06-24T11:39:16Z</time>
      </trkpt>
      <trkpt lat="45.61959" lon="6.59957">
        <ele>2077.07</ele>
        <time>2021-06-24T11:39:25Z</time>
      </trkpt>
      <trkpt lat="45.61957" lon="6.59956">
        <ele>2077.07</ele>
        <time>2021-06-24T11:39:26Z</time>
      </trkpt>
      <trkpt lat="45.61956" lon="6.59955">
        <ele>2077.07</ele>
        <time>2021-06-24T11:39:27Z</time>
      </trkpt>
      <trkpt lat="45.61951" lon="6.59952">
        <ele>2074.18</ele>
        <time>2021-06-24T11:39:31Z</time>
      </trkpt>
      <trkpt lat="45.6194" lon="6.59945">
        <ele>2072.74</ele>
        <time>2021-06-24T11:39:40Z</time>
      </trkpt>
      <trkpt lat="45.61936" lon="6.59944">
        <ele>2071.78</ele>
        <time>2021-06-24T11:39:43Z</time>
      </trkpt>
      <trkpt lat="45.61931" lon="6.5994">
        <ele>2070.34</ele>
        <time>2021-06-24T11:39:47Z</time>
      </trkpt>
      <trkpt lat="45.61925" lon="6.59932">
        <ele>2068.41</ele>
        <time>2021-06-24T11:39:54Z</time>
      </trkpt>
      <trkpt lat="45.61924" lon="6.5993">
        <ele>2067.93</ele>
        <time>2021-06-24T11:39:56Z</time>
      </trkpt>
      <trkpt lat="45.61914" lon="6.59907">
        <ele>2065.53</ele>
        <time>2021-06-24T11:40:11Z</time>
      </trkpt>
      <trkpt lat="45.61914" lon="6.59895">
        <ele>2063.61</ele>
        <time>2021-06-24T11:40:19Z</time>
      </trkpt>
      <trkpt lat="45.61919" lon="6.59887">
        <ele>2061.2</ele>
        <time>2021-06-24T11:40:30Z</time>
      </trkpt>
      <trkpt lat="45.61916" lon="6.59886">
        <ele>2061.68</ele>
        <time>2021-06-24T11:40:50Z</time>
      </trkpt>
      <trkpt lat="45.61916" lon="6.59887">
        <ele>2063.13</ele>
        <time>2021-06-24T11:40:54Z</time>
      </trkpt>
      <trkpt lat="45.61916" lon="6.59888">
        <ele>2063.13</ele>
        <time>2021-06-24T11:40:55Z</time>
      </trkpt>
      <trkpt lat="45.61913" lon="6.59889">
        <ele>2063.13</ele>
        <time>2021-06-24T11:40:58Z</time>
      </trkpt>
      <trkpt lat="45.61911" lon="6.59894">
        <ele>2064.09</ele>
        <time>2021-06-24T11:41:04Z</time>
      </trkpt>
      <trkpt lat="45.61912" lon="6.59898">
        <ele>2064.09</ele>
        <time>2021-06-24T11:41:07Z</time>
      </trkpt>
      <trkpt lat="45.61914" lon="6.59905">
        <ele>2065.05</ele>
        <time>2021-06-24T11:41:14Z</time>
      </trkpt>
      <trkpt lat="45.61922" lon="6.59923">
        <ele>2066.97</ele>
        <time>2021-06-24T11:41:28Z</time>
      </trkpt>
      <trkpt lat="45.61935" lon="6.5994">
        <ele>2070.34</ele>
        <time>2021-06-24T11:41:43Z</time>
      </trkpt>
      <trkpt lat="45.61936" lon="6.59941">
        <ele>2070.34</ele>
        <time>2021-06-24T11:41:44Z</time>
      </trkpt>
      <trkpt lat="45.61937" lon="6.59942">
        <ele>2070.82</ele>
        <time>2021-06-24T11:41:45Z</time>
      </trkpt>
      <trkpt lat="45.61952" lon="6.59953">
        <ele>2071.78</ele>
        <time>2021-06-24T11:42:00Z</time>
      </trkpt>
      <trkpt lat="45.61962" lon="6.59958">
        <ele>2075.14</ele>
        <time>2021-06-24T11:42:12Z</time>
      </trkpt>
      <trkpt lat="45.61976" lon="6.5997">
        <ele>2073.7</ele>
        <time>2021-06-24T11:42:24Z</time>
      </trkpt>
      <trkpt lat="45.61976" lon="6.59998">
        <ele>2071.78</ele>
        <time>2021-06-24T11:42:40Z</time>
      </trkpt>
      <trkpt lat="45.61982" lon="6.59998">
        <ele>2068.41</ele>
        <time>2021-06-24T11:42:53Z</time>
      </trkpt>
      <trkpt lat="45.61991" lon="6.59993">
        <ele>2065.05</ele>
        <time>2021-06-24T11:43:07Z</time>
      </trkpt>
      <trkpt lat="45.61999" lon="6.5999">
        <ele>2061.68</ele>
        <time>2021-06-24T11:43:22Z</time>
      </trkpt>
      <trkpt lat="45.62002" lon="6.60004">
        <ele>2059.28</ele>
        <time>2021-06-24T11:43:38Z</time>
      </trkpt>
      <trkpt lat="45.62004" lon="6.6001">
        <ele>2055.92</ele>
        <time>2021-06-24T11:43:55Z</time>
      </trkpt>
      <trkpt lat="45.62012" lon="6.6">
        <ele>2053.51</ele>
        <time>2021-06-24T11:44:10Z</time>
      </trkpt>
      <trkpt lat="45.62014" lon="6.60009">
        <ele>2050.63</ele>
        <time>2021-06-24T11:44:23Z</time>
      </trkpt>
      <trkpt lat="45.62018" lon="6.60013">
        <ele>2048.23</ele>
        <time>2021-06-24T11:44:35Z</time>
      </trkpt>
      <trkpt lat="45.62026" lon="6.60008">
        <ele>2045.34</ele>
        <time>2021-06-24T11:44:49Z</time>
      </trkpt>
      <trkpt lat="45.62034" lon="6.60006">
        <ele>2042.94</ele>
        <time>2021-06-24T11:45:02Z</time>
      </trkpt>
      <trkpt lat="45.62043" lon="6.60004">
        <ele>2041.5</ele>
        <time>2021-06-24T11:45:17Z</time>
      </trkpt>
      <trkpt lat="45.62045" lon="6.60008">
        <ele>2039.57</ele>
        <time>2021-06-24T11:45:30Z</time>
      </trkpt>
      <trkpt lat="45.62051" lon="6.60007">
        <ele>2037.17</ele>
        <time>2021-06-24T11:45:43Z</time>
      </trkpt>
      <trkpt lat="45.62058" lon="6.6001">
        <ele>2035.25</ele>
        <time>2021-06-24T11:45:57Z</time>
      </trkpt>
      <trkpt lat="45.62069" lon="6.60012">
        <ele>2033.33</ele>
        <time>2021-06-24T11:46:10Z</time>
      </trkpt>
      <trkpt lat="45.62082" lon="6.60006">
        <ele>2030.44</ele>
        <time>2021-06-24T11:46:26Z</time>
      </trkpt>
      <trkpt lat="45.62093" lon="6.60002">
        <ele>2029</ele>
        <time>2021-06-24T11:46:39Z</time>
      </trkpt>
      <trkpt lat="45.62094" lon="6.60002">
        <ele>2028.04</ele>
        <time>2021-06-24T11:46:41Z</time>
      </trkpt>
      <trkpt lat="45.62102" lon="6.59994">
        <ele>2025.64</ele>
        <time>2021-06-24T11:46:57Z</time>
      </trkpt>
      <trkpt lat="45.6211" lon="6.60003">
        <ele>2022.75</ele>
        <time>2021-06-24T11:47:12Z</time>
      </trkpt>
      <trkpt lat="45.62108" lon="6.60011">
        <ele>2021.79</ele>
        <time>2021-06-24T11:47:18Z</time>
      </trkpt>
      <trkpt lat="45.62104" lon="6.60015">
        <ele>2021.31</ele>
        <time>2021-06-24T11:47:26Z</time>
      </trkpt>
      <trkpt lat="45.621" lon="6.60025">
        <ele>2020.35</ele>
        <time>2021-06-24T11:47:39Z</time>
      </trkpt>
      <trkpt lat="45.62106" lon="6.60025">
        <ele>2017.94</ele>
        <time>2021-06-24T11:47:54Z</time>
      </trkpt>
      <trkpt lat="45.62112" lon="6.60021">
        <ele>2015.54</ele>
        <time>2021-06-24T11:48:07Z</time>
      </trkpt>
      <trkpt lat="45.62118" lon="6.60017">
        <ele>2012.66</ele>
        <time>2021-06-24T11:48:20Z</time>
      </trkpt>
      <trkpt lat="45.6212" lon="6.60025">
        <ele>2010.25</ele>
        <time>2021-06-24T11:48:32Z</time>
      </trkpt>
      <trkpt lat="45.62129" lon="6.60033">
        <ele>2008.33</ele>
        <time>2021-06-24T11:48:46Z</time>
      </trkpt>
      <trkpt lat="45.62138" lon="6.60031">
        <ele>2006.89</ele>
        <time>2021-06-24T11:48:59Z</time>
      </trkpt>
      <trkpt lat="45.62148" lon="6.60028">
        <ele>2004.49</ele>
        <time>2021-06-24T11:49:12Z</time>
      </trkpt>
      <trkpt lat="45.62154" lon="6.60029">
        <ele>2002.56</ele>
        <time>2021-06-24T11:49:23Z</time>
      </trkpt>
      <trkpt lat="45.62157" lon="6.60024">
        <ele>2000.16</ele>
        <time>2021-06-24T11:49:36Z</time>
      </trkpt>
      <trkpt lat="45.62161" lon="6.6002">
        <ele>1996.8</ele>
        <time>2021-06-24T11:49:49Z</time>
      </trkpt>
      <trkpt lat="45.6217" lon="6.60009">
        <ele>1994.39</ele>
        <time>2021-06-24T11:50:05Z</time>
      </trkpt>
      <trkpt lat="45.62174" lon="6.60009">
        <ele>1993.43</ele>
        <time>2021-06-24T11:50:24Z</time>
      </trkpt>
      <trkpt lat="45.62174" lon="6.60009">
        <ele>1992.47</ele>
        <time>2021-06-24T11:50:53Z</time>
      </trkpt>
      <trkpt lat="45.62183" lon="6.60003">
        <ele>1991.51</ele>
        <time>2021-06-24T11:51:09Z</time>
      </trkpt>
      <trkpt lat="45.62189" lon="6.59999">
        <ele>1989.1</ele>
        <time>2021-06-24T11:51:22Z</time>
      </trkpt>
      <trkpt lat="45.62197" lon="6.59997">
        <ele>1986.22</ele>
        <time>2021-06-24T11:51:35Z</time>
      </trkpt>
      <trkpt lat="45.62204" lon="6.59993">
        <ele>1984.78</ele>
        <time>2021-06-24T11:51:49Z</time>
      </trkpt>
      <trkpt lat="45.62211" lon="6.59985">
        <ele>1981.9</ele>
        <time>2021-06-24T11:52:02Z</time>
      </trkpt>
      <trkpt lat="45.62219" lon="6.59979">
        <ele>1979.97</ele>
        <time>2021-06-24T11:52:12Z</time>
      </trkpt>
      <trkpt lat="45.62222" lon="6.59979">
        <ele>1979.49</ele>
        <time>2021-06-24T11:52:15Z</time>
      </trkpt>
      <trkpt lat="45.62227" lon="6.59965">
        <ele>1976.61</ele>
        <time>2021-06-24T11:52:31Z</time>
      </trkpt>
      <trkpt lat="45.62233" lon="6.59958">
        <ele>1974.69</ele>
        <time>2021-06-24T11:52:43Z</time>
      </trkpt>
      <trkpt lat="45.62244" lon="6.59954">
        <ele>1972.28</ele>
        <time>2021-06-24T11:52:58Z</time>
      </trkpt>
      <trkpt lat="45.62254" lon="6.59958">
        <ele>1968.92</ele>
        <time>2021-06-24T11:53:14Z</time>
      </trkpt>
      <trkpt lat="45.62262" lon="6.5995">
        <ele>1966.99</ele>
        <time>2021-06-24T11:53:27Z</time>
      </trkpt>
      <trkpt lat="45.6227" lon="6.59939">
        <ele>1965.55</ele>
        <time>2021-06-24T11:53:40Z</time>
      </trkpt>
      <trkpt lat="45.62271" lon="6.59938">
        <ele>1965.07</ele>
        <time>2021-06-24T11:53:42Z</time>
      </trkpt>
      <trkpt lat="45.62273" lon="6.59936">
        <ele>1965.07</ele>
        <time>2021-06-24T11:53:44Z</time>
      </trkpt>
      <trkpt lat="45.62284" lon="6.59935">
        <ele>1963.63</ele>
        <time>2021-06-24T11:53:59Z</time>
      </trkpt>
      <trkpt lat="45.62286" lon="6.59934">
        <ele>1963.15</ele>
        <time>2021-06-24T11:54:04Z</time>
      </trkpt>
      <trkpt lat="45.62293" lon="6.5995">
        <ele>1961.23</ele>
        <time>2021-06-24T11:54:18Z</time>
      </trkpt>
      <trkpt lat="45.62298" lon="6.59958">
        <ele>1960.75</ele>
        <time>2021-06-24T11:54:30Z</time>
      </trkpt>
      <trkpt lat="45.62299" lon="6.59958">
        <ele>1960.75</ele>
        <time>2021-06-24T11:54:31Z</time>
      </trkpt>
      <trkpt lat="45.62304" lon="6.59959">
        <ele>1960.75</ele>
        <time>2021-06-24T11:54:36Z</time>
      </trkpt>
      <trkpt lat="45.62307" lon="6.59959">
        <ele>1960.75</ele>
        <time>2021-06-24T11:54:39Z</time>
      </trkpt>
      <trkpt lat="45.62308" lon="6.59961">
        <ele>1960.75</ele>
        <time>2021-06-24T11:54:41Z</time>
      </trkpt>
      <trkpt lat="45.62313" lon="6.59962">
        <ele>1960.75</ele>
        <time>2021-06-24T11:54:45Z</time>
      </trkpt>
      <trkpt lat="45.62322" lon="6.59965">
        <ele>1960.75</ele>
        <time>2021-06-24T11:54:54Z</time>
      </trkpt>
      <trkpt lat="45.62328" lon="6.59964">
        <ele>1960.75</ele>
        <time>2021-06-24T11:55:00Z</time>
      </trkpt>
      <trkpt lat="45.62342" lon="6.59959">
        <ele>1959.3</ele>
        <time>2021-06-24T11:55:16Z</time>
      </trkpt>
      <trkpt lat="45.62354" lon="6.59959">
        <ele>1956.9</ele>
        <time>2021-06-24T11:55:30Z</time>
      </trkpt>
      <trkpt lat="45.62365" lon="6.59968">
        <ele>1953.54</ele>
        <time>2021-06-24T11:55:45Z</time>
      </trkpt>
      <trkpt lat="45.62374" lon="6.59965">
        <ele>1952.09</ele>
        <time>2021-06-24T11:55:55Z</time>
      </trkpt>
      <trkpt lat="45.62385" lon="6.5995">
        <ele>1950.65</ele>
        <time>2021-06-24T11:56:10Z</time>
      </trkpt>
      <trkpt lat="45.62395" lon="6.59939">
        <ele>1949.21</ele>
        <time>2021-06-24T11:56:24Z</time>
      </trkpt>
      <trkpt lat="45.62399" lon="6.59933">
        <ele>1948.73</ele>
        <time>2021-06-24T11:56:33Z</time>
      </trkpt>
      <trkpt lat="45.62402" lon="6.5993">
        <ele>1948.73</ele>
        <time>2021-06-24T11:56:37Z</time>
      </trkpt>
      <trkpt lat="45.62405" lon="6.59928">
        <ele>1946.81</ele>
        <time>2021-06-24T11:56:41Z</time>
      </trkpt>
      <trkpt lat="45.62413" lon="6.59924">
        <ele>1945.36</ele>
        <time>2021-06-24T11:56:52Z</time>
      </trkpt>
      <trkpt lat="45.62419" lon="6.59929">
        <ele>1943.92</ele>
        <time>2021-06-24T11:57:02Z</time>
      </trkpt>
      <trkpt lat="45.62428" lon="6.5994">
        <ele>1941.52</ele>
        <time>2021-06-24T11:57:17Z</time>
      </trkpt>
      <trkpt lat="45.62429" lon="6.59943">
        <ele>1941.04</ele>
        <time>2021-06-24T11:57:21Z</time>
      </trkpt>
      <trkpt lat="45.62435" lon="6.5995">
        <ele>1938.16</ele>
        <time>2021-06-24T11:57:31Z</time>
      </trkpt>
      <trkpt lat="45.62437" lon="6.59951">
        <ele>1937.67</ele>
        <time>2021-06-24T11:57:33Z</time>
      </trkpt>
      <trkpt lat="45.62441" lon="6.59953">
        <ele>1935.75</ele>
        <time>2021-06-24T11:57:46Z</time>
      </trkpt>
      <trkpt lat="45.62443" lon="6.59953">
        <ele>1934.79</ele>
        <time>2021-06-24T11:57:57Z</time>
      </trkpt>
      <trkpt lat="45.62454" lon="6.59953">
        <ele>1932.39</ele>
        <time>2021-06-24T11:58:10Z</time>
      </trkpt>
      <trkpt lat="45.6246" lon="6.59961">
        <ele>1930.95</ele>
        <time>2021-06-24T11:58:23Z</time>
      </trkpt>
      <trkpt lat="45.62463" lon="6.59965">
        <ele>1929.98</ele>
        <time>2021-06-24T11:58:29Z</time>
      </trkpt>
      <trkpt lat="45.62469" lon="6.59979">
        <ele>1927.1</ele>
        <time>2021-06-24T11:58:44Z</time>
      </trkpt>
      <trkpt lat="45.62473" lon="6.59982">
        <ele>1926.14</ele>
        <time>2021-06-24T11:58:49Z</time>
      </trkpt>
      <trkpt lat="45.62481" lon="6.5999">
        <ele>1925.18</ele>
        <time>2021-06-24T11:59:00Z</time>
      </trkpt>
      <trkpt lat="45.62494" lon="6.60001">
        <ele>1925.18</ele>
        <time>2021-06-24T11:59:14Z</time>
      </trkpt>
      <trkpt lat="45.62502" lon="6.60009">
        <ele>1924.22</ele>
        <time>2021-06-24T11:59:25Z</time>
      </trkpt>
      <trkpt lat="45.62521" lon="6.60011">
        <ele>1923.25</ele>
        <time>2021-06-24T11:59:42Z</time>
      </trkpt>
      <trkpt lat="45.62538" lon="6.60013">
        <ele>1922.29</ele>
        <time>2021-06-24T11:59:59Z</time>
      </trkpt>
      <trkpt lat="45.62543" lon="6.60017">
        <ele>1921.81</ele>
        <time>2021-06-24T12:00:04Z</time>
      </trkpt>
      <trkpt lat="45.62551" lon="6.60028">
        <ele>1920.37</ele>
        <time>2021-06-24T12:00:15Z</time>
      </trkpt>
      <trkpt lat="45.62556" lon="6.60034">
        <ele>1919.89</ele>
        <time>2021-06-24T12:00:22Z</time>
      </trkpt>
      <trkpt lat="45.6257" lon="6.60041">
        <ele>1919.89</ele>
        <time>2021-06-24T12:00:37Z</time>
      </trkpt>
      <trkpt lat="45.62577" lon="6.60048">
        <ele>1919.89</ele>
        <time>2021-06-24T12:00:50Z</time>
      </trkpt>
      <trkpt lat="45.62577" lon="6.60054">
        <ele>1919.89</ele>
        <time>2021-06-24T12:01:01Z</time>
      </trkpt>
      <trkpt lat="45.62578" lon="6.60064">
        <ele>1918.45</ele>
        <time>2021-06-24T12:01:13Z</time>
      </trkpt>
      <trkpt lat="45.62578" lon="6.60067">
        <ele>1917.97</ele>
        <time>2021-06-24T12:01:15Z</time>
      </trkpt>
      <trkpt lat="45.62577" lon="6.60078">
        <ele>1917.97</ele>
        <time>2021-06-24T12:01:25Z</time>
      </trkpt>
      <trkpt lat="45.62583" lon="6.60091">
        <ele>1916.53</ele>
        <time>2021-06-24T12:01:38Z</time>
      </trkpt>
      <trkpt lat="45.62588" lon="6.60093">
        <ele>1915.56</ele>
        <time>2021-06-24T12:01:46Z</time>
      </trkpt>
      <trkpt lat="45.62598" lon="6.60081">
        <ele>1913.64</ele>
        <time>2021-06-24T12:01:58Z</time>
      </trkpt>
      <trkpt lat="45.62604" lon="6.60067">
        <ele>1912.68</ele>
        <time>2021-06-24T12:02:09Z</time>
      </trkpt>
      <trkpt lat="45.62608" lon="6.6006">
        <ele>1912.2</ele>
        <time>2021-06-24T12:02:14Z</time>
      </trkpt>
      <trkpt lat="45.6262" lon="6.60044">
        <ele>1911.24</ele>
        <time>2021-06-24T12:02:29Z</time>
      </trkpt>
      <trkpt lat="45.62633" lon="6.6003">
        <ele>1909.32</ele>
        <time>2021-06-24T12:02:44Z</time>
      </trkpt>
      <trkpt lat="45.6265" lon="6.60027">
        <ele>1907.87</ele>
        <time>2021-06-24T12:02:59Z</time>
      </trkpt>
      <trkpt lat="45.62654" lon="6.60026">
        <ele>1907.87</ele>
        <time>2021-06-24T12:03:03Z</time>
      </trkpt>
      <trkpt lat="45.6267" lon="6.60028">
        <ele>1906.91</ele>
        <time>2021-06-24T12:03:18Z</time>
      </trkpt>
      <trkpt lat="45.62679" lon="6.60027">
        <ele>1906.91</ele>
        <time>2021-06-24T12:03:28Z</time>
      </trkpt>
      <trkpt lat="45.627" lon="6.60035">
        <ele>1904.99</ele>
        <time>2021-06-24T12:03:46Z</time>
      </trkpt>
      <trkpt lat="45.62715" lon="6.6005">
        <ele>1904.03</ele>
        <time>2021-06-24T12:04:01Z</time>
      </trkpt>
      <trkpt lat="45.62719" lon="6.60046">
        <ele>1900.66</ele>
        <time>2021-06-24T12:04:14Z</time>
      </trkpt>
      <trkpt lat="45.62719" lon="6.60044">
        <ele>1899.7</ele>
        <time>2021-06-24T12:04:16Z</time>
      </trkpt>
      <trkpt lat="45.62718" lon="6.60027">
        <ele>1896.34</ele>
        <time>2021-06-24T12:04:31Z</time>
      </trkpt>
      <trkpt lat="45.62716" lon="6.60023">
        <ele>1895.38</ele>
        <time>2021-06-24T12:04:37Z</time>
      </trkpt>
      <trkpt lat="45.62716" lon="6.6001">
        <ele>1892.97</ele>
        <time>2021-06-24T12:04:46Z</time>
      </trkpt>
      <trkpt lat="45.62717" lon="6.59998">
        <ele>1890.09</ele>
        <time>2021-06-24T12:04:56Z</time>
      </trkpt>
      <trkpt lat="45.62715" lon="6.59984">
        <ele>1887.21</ele>
        <time>2021-06-24T12:05:10Z</time>
      </trkpt>
      <trkpt lat="45.62712" lon="6.59973">
        <ele>1884.8</ele>
        <time>2021-06-24T12:05:22Z</time>
      </trkpt>
      <trkpt lat="45.62705" lon="6.5996">
        <ele>1880.96</ele>
        <time>2021-06-24T12:05:36Z</time>
      </trkpt>
      <trkpt lat="45.62703" lon="6.59955">
        <ele>1880.96</ele>
        <time>2021-06-24T12:05:41Z</time>
      </trkpt>
      <trkpt lat="45.62701" lon="6.59954">
        <ele>1880.96</ele>
        <time>2021-06-24T12:05:43Z</time>
      </trkpt>
      <trkpt lat="45.62695" lon="6.59941">
        <ele>1877.59</ele>
        <time>2021-06-24T12:05:55Z</time>
      </trkpt>
      <trkpt lat="45.62688" lon="6.5993">
        <ele>1874.23</ele>
        <time>2021-06-24T12:06:08Z</time>
      </trkpt>
      <trkpt lat="45.62689" lon="6.5992">
        <ele>1870.86</ele>
        <time>2021-06-24T12:06:18Z</time>
      </trkpt>
      <trkpt lat="45.62684" lon="6.59903">
        <ele>1868.46</ele>
        <time>2021-06-24T12:06:33Z</time>
      </trkpt>
      <trkpt lat="45.62683" lon="6.599">
        <ele>1867.02</ele>
        <time>2021-06-24T12:06:35Z</time>
      </trkpt>
      <trkpt lat="45.62677" lon="6.59889">
        <ele>1864.61</ele>
        <time>2021-06-24T12:06:46Z</time>
      </trkpt>
      <trkpt lat="45.62677" lon="6.59885">
        <ele>1863.17</ele>
        <time>2021-06-24T12:06:49Z</time>
      </trkpt>
      <trkpt lat="45.62684" lon="6.59879">
        <ele>1861.25</ele>
        <time>2021-06-24T12:06:57Z</time>
      </trkpt>
      <trkpt lat="45.62688" lon="6.59877">
        <ele>1859.81</ele>
        <time>2021-06-24T12:07:02Z</time>
      </trkpt>
      <trkpt lat="45.62696" lon="6.59867">
        <ele>1856.92</ele>
        <time>2021-06-24T12:07:15Z</time>
      </trkpt>
      <trkpt lat="45.62701" lon="6.59858">
        <ele>1853.56</ele>
        <time>2021-06-24T12:07:26Z</time>
      </trkpt>
      <trkpt lat="45.62702" lon="6.59856">
        <ele>1853.56</ele>
        <time>2021-06-24T12:07:28Z</time>
      </trkpt>
      <trkpt lat="45.62703" lon="6.5985">
        <ele>1852.12</ele>
        <time>2021-06-24T12:07:33Z</time>
      </trkpt>
      <trkpt lat="45.6271" lon="6.59836">
        <ele>1850.19</ele>
        <time>2021-06-24T12:07:46Z</time>
      </trkpt>
      <trkpt lat="45.62708" lon="6.59832">
        <ele>1849.23</ele>
        <time>2021-06-24T12:07:49Z</time>
      </trkpt>
      <trkpt lat="45.62708" lon="6.59813">
        <ele>1847.79</ele>
        <time>2021-06-24T12:08:01Z</time>
      </trkpt>
      <trkpt lat="45.62708" lon="6.59808">
        <ele>1846.83</ele>
        <time>2021-06-24T12:08:05Z</time>
      </trkpt>
      <trkpt lat="45.62713" lon="6.59804">
        <ele>1845.39</ele>
        <time>2021-06-24T12:08:11Z</time>
      </trkpt>
      <trkpt lat="45.62716" lon="6.59802">
        <ele>1844.91</ele>
        <time>2021-06-24T12:08:14Z</time>
      </trkpt>
      <trkpt lat="45.62719" lon="6.59801">
        <ele>1844.91</ele>
        <time>2021-06-24T12:08:29Z</time>
      </trkpt>
      <trkpt lat="45.62719" lon="6.59801">
        <ele>1844.43</ele>
        <time>2021-06-24T12:08:53Z</time>
      </trkpt>
      <trkpt lat="45.62718" lon="6.59801">
        <ele>1844.43</ele>
        <time>2021-06-24T12:09:23Z</time>
      </trkpt>
      <trkpt lat="45.6272" lon="6.59802">
        <ele>1844.43</ele>
        <time>2021-06-24T12:09:47Z</time>
      </trkpt>
      <trkpt lat="45.62728" lon="6.59799">
        <ele>1843.95</ele>
        <time>2021-06-24T12:10:01Z</time>
      </trkpt>
      <trkpt lat="45.62731" lon="6.59797">
        <ele>1843.95</ele>
        <time>2021-06-24T12:10:05Z</time>
      </trkpt>
      <trkpt lat="45.62733" lon="6.59791">
        <ele>1843.47</ele>
        <time>2021-06-24T12:10:11Z</time>
      </trkpt>
      <trkpt lat="45.62732" lon="6.59783">
        <ele>1842.5</ele>
        <time>2021-06-24T12:10:17Z</time>
      </trkpt>
      <trkpt lat="45.62728" lon="6.59764">
        <ele>1841.06</ele>
        <time>2021-06-24T12:10:32Z</time>
      </trkpt>
      <trkpt lat="45.62734" lon="6.59742">
        <ele>1839.62</ele>
        <time>2021-06-24T12:10:48Z</time>
      </trkpt>
      <trkpt lat="45.62741" lon="6.59722">
        <ele>1838.18</ele>
        <time>2021-06-24T12:11:03Z</time>
      </trkpt>
      <trkpt lat="45.62742" lon="6.59717">
        <ele>1838.18</ele>
        <time>2021-06-24T12:11:14Z</time>
      </trkpt>
      <trkpt lat="45.6275" lon="6.59693">
        <ele>1837.22</ele>
        <time>2021-06-24T12:11:30Z</time>
      </trkpt>
      <trkpt lat="45.62759" lon="6.59668">
        <ele>1836.26</ele>
        <time>2021-06-24T12:11:45Z</time>
      </trkpt>
      <trkpt lat="45.62768" lon="6.59646">
        <ele>1835.77</ele>
        <time>2021-06-24T12:12:00Z</time>
      </trkpt>
      <trkpt lat="45.62775" lon="6.59631">
        <ele>1835.29</ele>
        <time>2021-06-24T12:12:11Z</time>
      </trkpt>
      <trkpt lat="45.62787" lon="6.59614">
        <ele>1834.33</ele>
        <time>2021-06-24T12:12:26Z</time>
      </trkpt>
      <trkpt lat="45.62794" lon="6.59608">
        <ele>1834.33</ele>
        <time>2021-06-24T12:12:33Z</time>
      </trkpt>
      <trkpt lat="45.62805" lon="6.59605">
        <ele>1833.37</ele>
        <time>2021-06-24T12:12:46Z</time>
      </trkpt>
      <trkpt lat="45.62808" lon="6.59605">
        <ele>1832.89</ele>
        <time>2021-06-24T12:12:49Z</time>
      </trkpt>
      <trkpt lat="45.62819" lon="6.59599">
        <ele>1832.89</ele>
        <time>2021-06-24T12:13:01Z</time>
      </trkpt>
      <trkpt lat="45.62833" lon="6.59597">
        <ele>1830.01</ele>
        <time>2021-06-24T12:13:16Z</time>
      </trkpt>
      <trkpt lat="45.62843" lon="6.596">
        <ele>1828.08</ele>
        <time>2021-06-24T12:13:28Z</time>
      </trkpt>
      <trkpt lat="45.62848" lon="6.59603">
        <ele>1827.12</ele>
        <time>2021-06-24T12:13:34Z</time>
      </trkpt>
      <trkpt lat="45.6286" lon="6.596">
        <ele>1824.72</ele>
        <time>2021-06-24T12:13:47Z</time>
      </trkpt>
      <trkpt lat="45.62868" lon="6.59592">
        <ele>1823.28</ele>
        <time>2021-06-24T12:13:58Z</time>
      </trkpt>
      <trkpt lat="45.62878" lon="6.59587">
        <ele>1821.35</ele>
        <time>2021-06-24T12:14:10Z</time>
      </trkpt>
      <trkpt lat="45.62888" lon="6.59571">
        <ele>1819.43</ele>
        <time>2021-06-24T12:14:26Z</time>
      </trkpt>
      <trkpt lat="45.62898" lon="6.5956">
        <ele>1816.07</ele>
        <time>2021-06-24T12:14:39Z</time>
      </trkpt>
      <trkpt lat="45.62908" lon="6.59547">
        <ele>1814.15</ele>
        <time>2021-06-24T12:14:53Z</time>
      </trkpt>
      <trkpt lat="45.62918" lon="6.59534">
        <ele>1812.22</ele>
        <time>2021-06-24T12:15:07Z</time>
      </trkpt>
      <trkpt lat="45.6292" lon="6.59533">
        <ele>1811.74</ele>
        <time>2021-06-24T12:15:09Z</time>
      </trkpt>
      <trkpt lat="45.62931" lon="6.59538">
        <ele>1809.34</ele>
        <time>2021-06-24T12:15:22Z</time>
      </trkpt>
      <trkpt lat="45.62933" lon="6.59537">
        <ele>1808.86</ele>
        <time>2021-06-24T12:15:24Z</time>
      </trkpt>
      <trkpt lat="45.62935" lon="6.59534">
        <ele>1808.86</ele>
        <time>2021-06-24T12:15:27Z</time>
      </trkpt>
      <trkpt lat="45.62937" lon="6.59533">
        <ele>1807.9</ele>
        <time>2021-06-24T12:15:29Z</time>
      </trkpt>
      <trkpt lat="45.6294" lon="6.59528">
        <ele>1807.42</ele>
        <time>2021-06-24T12:15:33Z</time>
      </trkpt>
      <trkpt lat="45.62956" lon="6.5952">
        <ele>1805.49</ele>
        <time>2021-06-24T12:15:48Z</time>
      </trkpt>
      <trkpt lat="45.62958" lon="6.59519">
        <ele>1804.53</ele>
        <time>2021-06-24T12:15:50Z</time>
      </trkpt>
      <trkpt lat="45.62965" lon="6.59507">
        <ele>1803.57</ele>
        <time>2021-06-24T12:16:02Z</time>
      </trkpt>
      <trkpt lat="45.62973" lon="6.59498">
        <ele>1801.65</ele>
        <time>2021-06-24T12:16:12Z</time>
      </trkpt>
      <trkpt lat="45.62981" lon="6.59486">
        <ele>1798.28</ele>
        <time>2021-06-24T12:16:27Z</time>
      </trkpt>
      <trkpt lat="45.62983" lon="6.59481">
        <ele>1797.32</ele>
        <time>2021-06-24T12:16:31Z</time>
      </trkpt>
      <trkpt lat="45.62988" lon="6.59482">
        <ele>1796.84</ele>
        <time>2021-06-24T12:16:36Z</time>
      </trkpt>
      <trkpt lat="45.62994" lon="6.59496">
        <ele>1793.96</ele>
        <time>2021-06-24T12:16:50Z</time>
      </trkpt>
      <trkpt lat="45.62995" lon="6.59501">
        <ele>1793.96</ele>
        <time>2021-06-24T12:16:53Z</time>
      </trkpt>
      <trkpt lat="45.62993" lon="6.59519">
        <ele>1791.55</ele>
        <time>2021-06-24T12:17:05Z</time>
      </trkpt>
      <trkpt lat="45.62989" lon="6.59529">
        <ele>1790.59</ele>
        <time>2021-06-24T12:17:13Z</time>
      </trkpt>
      <trkpt lat="45.62989" lon="6.59534">
        <ele>1790.59</ele>
        <time>2021-06-24T12:17:16Z</time>
      </trkpt>
      <trkpt lat="45.62996" lon="6.59539">
        <ele>1789.15</ele>
        <time>2021-06-24T12:17:28Z</time>
      </trkpt>
      <trkpt lat="45.62998" lon="6.59538">
        <ele>1789.15</ele>
        <time>2021-06-24T12:17:30Z</time>
      </trkpt>
      <trkpt lat="45.62999" lon="6.59536">
        <ele>1789.15</ele>
        <time>2021-06-24T12:17:32Z</time>
      </trkpt>
      <trkpt lat="45.63012" lon="6.59524">
        <ele>1789.15</ele>
        <time>2021-06-24T12:17:47Z</time>
      </trkpt>
      <trkpt lat="45.63013" lon="6.59524">
        <ele>1789.63</ele>
        <time>2021-06-24T12:17:48Z</time>
      </trkpt>
      <trkpt lat="45.63017" lon="6.59524">
        <ele>1789.63</ele>
        <time>2021-06-24T12:17:52Z</time>
      </trkpt>
      <trkpt lat="45.63028" lon="6.59512">
        <ele>1786.27</ele>
        <time>2021-06-24T12:18:07Z</time>
      </trkpt>
      <trkpt lat="45.63029" lon="6.59511">
        <ele>1786.27</ele>
        <time>2021-06-24T12:18:08Z</time>
      </trkpt>
      <trkpt lat="45.63032" lon="6.59511">
        <ele>1785.79</ele>
        <time>2021-06-24T12:18:11Z</time>
      </trkpt>
      <trkpt lat="45.63038" lon="6.59508">
        <ele>1784.82</ele>
        <time>2021-06-24T12:18:17Z</time>
      </trkpt>
      <trkpt lat="45.63041" lon="6.5951">
        <ele>1783.86</ele>
        <time>2021-06-24T12:18:20Z</time>
      </trkpt>
      <trkpt lat="45.63046" lon="6.59524">
        <ele>1783.86</ele>
        <time>2021-06-24T12:18:30Z</time>
      </trkpt>
      <trkpt lat="45.63052" lon="6.59528">
        <ele>1783.86</ele>
        <time>2021-06-24T12:18:36Z</time>
      </trkpt>
      <trkpt lat="45.63056" lon="6.59532">
        <ele>1784.82</ele>
        <time>2021-06-24T12:18:41Z</time>
      </trkpt>
      <trkpt lat="45.63059" lon="6.59538">
        <ele>1785.79</ele>
        <time>2021-06-24T12:18:45Z</time>
      </trkpt>
      <trkpt lat="45.63063" lon="6.59548">
        <ele>1786.27</ele>
        <time>2021-06-24T12:18:54Z</time>
      </trkpt>
      <trkpt lat="45.63068" lon="6.59555">
        <ele>1786.75</ele>
        <time>2021-06-24T12:19:01Z</time>
      </trkpt>
      <trkpt lat="45.63072" lon="6.59557">
        <ele>1786.75</ele>
        <time>2021-06-24T12:19:05Z</time>
      </trkpt>
      <trkpt lat="45.63075" lon="6.59556">
        <ele>1786.75</ele>
        <time>2021-06-24T12:19:08Z</time>
      </trkpt>
      <trkpt lat="45.63082" lon="6.59561">
        <ele>1788.19</ele>
        <time>2021-06-24T12:19:16Z</time>
      </trkpt>
      <trkpt lat="45.63103" lon="6.59554">
        <ele>1788.19</ele>
        <time>2021-06-24T12:19:33Z</time>
      </trkpt>
      <trkpt lat="45.63107" lon="6.59557">
        <ele>1786.75</ele>
        <time>2021-06-24T12:19:37Z</time>
      </trkpt>
      <trkpt lat="45.63125" lon="6.59564">
        <ele>1786.27</ele>
        <time>2021-06-24T12:19:52Z</time>
      </trkpt>
      <trkpt lat="45.63125" lon="6.59565">
        <ele>1786.27</ele>
        <time>2021-06-24T12:19:53Z</time>
      </trkpt>
      <trkpt lat="45.63135" lon="6.59574">
        <ele>1784.82</ele>
        <time>2021-06-24T12:20:02Z</time>
      </trkpt>
      <trkpt lat="45.63142" lon="6.59574">
        <ele>1783.86</ele>
        <time>2021-06-24T12:20:09Z</time>
      </trkpt>
      <trkpt lat="45.63138" lon="6.5956">
        <ele>1783.86</ele>
        <time>2021-06-24T12:20:22Z</time>
      </trkpt>
      <trkpt lat="45.63138" lon="6.59552">
        <ele>1783.86</ele>
        <time>2021-06-24T12:20:35Z</time>
      </trkpt>
      <trkpt lat="45.63138" lon="6.59547">
        <ele>1783.86</ele>
        <time>2021-06-24T12:20:38Z</time>
      </trkpt>
      <trkpt lat="45.63142" lon="6.59537">
        <ele>1783.86</ele>
        <time>2021-06-24T12:20:44Z</time>
      </trkpt>
      <trkpt lat="45.6315" lon="6.59531">
        <ele>1784.82</ele>
        <time>2021-06-24T12:20:51Z</time>
      </trkpt>
      <trkpt lat="45.63154" lon="6.59529">
        <ele>1784.82</ele>
        <time>2021-06-24T12:20:54Z</time>
      </trkpt>
      <trkpt lat="45.63154" lon="6.59526">
        <ele>1784.82</ele>
        <time>2021-06-24T12:20:56Z</time>
      </trkpt>
      <trkpt lat="45.63156" lon="6.59514">
        <ele>1783.38</ele>
        <time>2021-06-24T12:21:04Z</time>
      </trkpt>
      <trkpt lat="45.63157" lon="6.59509">
        <ele>1783.38</ele>
        <time>2021-06-24T12:21:09Z</time>
      </trkpt>
      <trkpt lat="45.63156" lon="6.59497">
        <ele>1780.02</ele>
        <time>2021-06-24T12:21:20Z</time>
      </trkpt>
      <trkpt lat="45.63159" lon="6.59484">
        <ele>1778.1</ele>
        <time>2021-06-24T12:21:29Z</time>
      </trkpt>
      <trkpt lat="45.63163" lon="6.59482">
        <ele>1778.1</ele>
        <time>2021-06-24T12:21:33Z</time>
      </trkpt>
      <trkpt lat="45.63172" lon="6.59481">
        <ele>1775.69</ele>
        <time>2021-06-24T12:21:46Z</time>
      </trkpt>
      <trkpt lat="45.63178" lon="6.59478">
        <ele>1773.77</ele>
        <time>2021-06-24T12:21:59Z</time>
      </trkpt>
      <trkpt lat="45.6318" lon="6.5947">
        <ele>1772.81</ele>
        <time>2021-06-24T12:22:14Z</time>
      </trkpt>
      <trkpt lat="45.63187" lon="6.59459">
        <ele>1770.89</ele>
        <time>2021-06-24T12:22:26Z</time>
      </trkpt>
      <trkpt lat="45.63185" lon="6.59451">
        <ele>1770.41</ele>
        <time>2021-06-24T12:22:33Z</time>
      </trkpt>
      <trkpt lat="45.63185" lon="6.59434">
        <ele>1772.33</ele>
        <time>2021-06-24T12:22:44Z</time>
      </trkpt>
      <trkpt lat="45.63192" lon="6.59418">
        <ele>1771.85</ele>
        <time>2021-06-24T12:22:54Z</time>
      </trkpt>
      <trkpt lat="45.63196" lon="6.59394">
        <ele>1770.89</ele>
        <time>2021-06-24T12:23:09Z</time>
      </trkpt>
      <trkpt lat="45.63203" lon="6.59369">
        <ele>1770.89</ele>
        <time>2021-06-24T12:23:26Z</time>
      </trkpt>
      <trkpt lat="45.63204" lon="6.59367">
        <ele>1770.89</ele>
        <time>2021-06-24T12:23:27Z</time>
      </trkpt>
      <trkpt lat="45.63212" lon="6.59343">
        <ele>1769.92</ele>
        <time>2021-06-24T12:23:42Z</time>
      </trkpt>
      <trkpt lat="45.63217" lon="6.59322">
        <ele>1767.52</ele>
        <time>2021-06-24T12:23:56Z</time>
      </trkpt>
      <trkpt lat="45.63218" lon="6.59316">
        <ele>1766.56</ele>
        <time>2021-06-24T12:24:00Z</time>
      </trkpt>
      <trkpt lat="45.63219" lon="6.59305">
        <ele>1764.64</ele>
        <time>2021-06-24T12:24:09Z</time>
      </trkpt>
      <trkpt lat="45.63227" lon="6.59286">
        <ele>1761.75</ele>
        <time>2021-06-24T12:24:23Z</time>
      </trkpt>
      <trkpt lat="45.6323" lon="6.59282">
        <ele>1761.27</ele>
        <time>2021-06-24T12:24:27Z</time>
      </trkpt>
      <trkpt lat="45.63244" lon="6.59277">
        <ele>1760.31</ele>
        <time>2021-06-24T12:24:40Z</time>
      </trkpt>
      <trkpt lat="45.6325" lon="6.59281">
        <ele>1758.87</ele>
        <time>2021-06-24T12:24:46Z</time>
      </trkpt>
      <trkpt lat="45.63253" lon="6.59279">
        <ele>1758.87</ele>
        <time>2021-06-24T12:24:50Z</time>
      </trkpt>
      <trkpt lat="45.63255" lon="6.59266">
        <ele>1757.43</ele>
        <time>2021-06-24T12:25:02Z</time>
      </trkpt>
      <trkpt lat="45.63257" lon="6.59256">
        <ele>1754.54</ele>
        <time>2021-06-24T12:25:11Z</time>
      </trkpt>
      <trkpt lat="45.63271" lon="6.59241">
        <ele>1750.7</ele>
        <time>2021-06-24T12:25:27Z</time>
      </trkpt>
      <trkpt lat="45.63278" lon="6.59232">
        <ele>1746.85</ele>
        <time>2021-06-24T12:25:36Z</time>
      </trkpt>
      <trkpt lat="45.63279" lon="6.59227">
        <ele>1745.89</ele>
        <time>2021-06-24T12:25:39Z</time>
      </trkpt>
      <trkpt lat="45.63284" lon="6.59222">
        <ele>1743.01</ele>
        <time>2021-06-24T12:25:48Z</time>
      </trkpt>
      <trkpt lat="45.63284" lon="6.59215">
        <ele>1740.12</ele>
        <time>2021-06-24T12:25:56Z</time>
      </trkpt>
      <trkpt lat="45.63285" lon="6.59211">
        <ele>1738.68</ele>
        <time>2021-06-24T12:26:00Z</time>
      </trkpt>
      <trkpt lat="45.63286" lon="6.59205">
        <ele>1737.72</ele>
        <time>2021-06-24T12:26:05Z</time>
      </trkpt>
      <trkpt lat="45.63293" lon="6.59181">
        <ele>1735.8</ele>
        <time>2021-06-24T12:26:23Z</time>
      </trkpt>
      <trkpt lat="45.63289" lon="6.5918">
        <ele>1734.36</ele>
        <time>2021-06-24T12:26:40Z</time>
      </trkpt>
      <trkpt lat="45.63285" lon="6.59177">
        <ele>1733.39</ele>
        <time>2021-06-24T12:26:46Z</time>
      </trkpt>
      <trkpt lat="45.63283" lon="6.59165">
        <ele>1729.55</ele>
        <time>2021-06-24T12:26:59Z</time>
      </trkpt>
      <trkpt lat="45.63302" lon="6.59153">
        <ele>1726.18</ele>
        <time>2021-06-24T12:27:14Z</time>
      </trkpt>
      <trkpt lat="45.63317" lon="6.59143">
        <ele>1724.26</ele>
        <time>2021-06-24T12:27:30Z</time>
      </trkpt>
      <trkpt lat="45.63327" lon="6.59138">
        <ele>1722.34</ele>
        <time>2021-06-24T12:27:43Z</time>
      </trkpt>
      <trkpt lat="45.63341" lon="6.5913">
        <ele>1720.9</ele>
        <time>2021-06-24T12:27:56Z</time>
      </trkpt>
      <trkpt lat="45.63355" lon="6.59124">
        <ele>1718.97</ele>
        <time>2021-06-24T12:28:09Z</time>
      </trkpt>
      <trkpt lat="45.63362" lon="6.59109">
        <ele>1717.53</ele>
        <time>2021-06-24T12:28:20Z</time>
      </trkpt>
      <trkpt lat="45.63376" lon="6.59088">
        <ele>1715.61</ele>
        <time>2021-06-24T12:28:36Z</time>
      </trkpt>
      <trkpt lat="45.63395" lon="6.59075">
        <ele>1712.73</ele>
        <time>2021-06-24T12:28:53Z</time>
      </trkpt>
      <trkpt lat="45.63397" lon="6.59073">
        <ele>1712.25</ele>
        <time>2021-06-24T12:29:04Z</time>
      </trkpt>
      <trkpt lat="45.63397" lon="6.59078">
        <ele>1712.25</ele>
        <time>2021-06-24T12:29:26Z</time>
      </trkpt>
      <trkpt lat="45.63398" lon="6.59077">
        <ele>1711.76</ele>
        <time>2021-06-24T12:29:34Z</time>
      </trkpt>
      <trkpt lat="45.6341" lon="6.59055">
        <ele>1709.84</ele>
        <time>2021-06-24T12:29:49Z</time>
      </trkpt>
      <trkpt lat="45.63412" lon="6.59053">
        <ele>1709.84</ele>
        <time>2021-06-24T12:29:51Z</time>
      </trkpt>
      <trkpt lat="45.63423" lon="6.59043">
        <ele>1706.48</ele>
        <time>2021-06-24T12:30:02Z</time>
      </trkpt>
      <trkpt lat="45.63425" lon="6.59043">
        <ele>1705.52</ele>
        <time>2021-06-24T12:30:04Z</time>
      </trkpt>
      <trkpt lat="45.63435" lon="6.59045">
        <ele>1705.04</ele>
        <time>2021-06-24T12:30:11Z</time>
      </trkpt>
      <trkpt lat="45.63445" lon="6.59048">
        <ele>1705.04</ele>
        <time>2021-06-24T12:30:19Z</time>
      </trkpt>
      <trkpt lat="45.63449" lon="6.59048">
        <ele>1705.04</ele>
        <time>2021-06-24T12:30:22Z</time>
      </trkpt>
      <trkpt lat="45.63453" lon="6.59047">
        <ele>1705.04</ele>
        <time>2021-06-24T12:30:26Z</time>
      </trkpt>
      <trkpt lat="45.63456" lon="6.59045">
        <ele>1705.04</ele>
        <time>2021-06-24T12:30:29Z</time>
      </trkpt>
      <trkpt lat="45.63473" lon="6.5903">
        <ele>1702.63</ele>
        <time>2021-06-24T12:30:47Z</time>
      </trkpt>
      <trkpt lat="45.63474" lon="6.5903">
        <ele>1702.63</ele>
        <time>2021-06-24T12:30:48Z</time>
      </trkpt>
      <trkpt lat="45.63476" lon="6.59028">
        <ele>1701.67</ele>
        <time>2021-06-24T12:30:50Z</time>
      </trkpt>
      <trkpt lat="45.63488" lon="6.59009">
        <ele>1699.27</ele>
        <time>2021-06-24T12:31:06Z</time>
      </trkpt>
      <trkpt lat="45.63491" lon="6.59006">
        <ele>1698.31</ele>
        <time>2021-06-24T12:31:09Z</time>
      </trkpt>
      <trkpt lat="45.63497" lon="6.58996">
        <ele>1696.38</ele>
        <time>2021-06-24T12:31:16Z</time>
      </trkpt>
      <trkpt lat="45.63506" lon="6.58987">
        <ele>1694.94</ele>
        <time>2021-06-24T12:31:25Z</time>
      </trkpt>
      <trkpt lat="45.63518" lon="6.58967">
        <ele>1693.5</ele>
        <time>2021-06-24T12:31:41Z</time>
      </trkpt>
      <trkpt lat="45.63522" lon="6.58961">
        <ele>1693.02</ele>
        <time>2021-06-24T12:31:46Z</time>
      </trkpt>
      <trkpt lat="45.6353" lon="6.58942">
        <ele>1690.62</ele>
        <time>2021-06-24T12:32:00Z</time>
      </trkpt>
      <trkpt lat="45.63551" lon="6.58934">
        <ele>1688.69</ele>
        <time>2021-06-24T12:32:18Z</time>
      </trkpt>
      <trkpt lat="45.6355" lon="6.58938">
        <ele>1687.73</ele>
        <time>2021-06-24T12:32:31Z</time>
      </trkpt>
      <trkpt lat="45.6355" lon="6.58938">
        <ele>1687.73</ele>
        <time>2021-06-24T12:32:55Z</time>
      </trkpt>
      <trkpt lat="45.63549" lon="6.5894">
        <ele>1687.73</ele>
        <time>2021-06-24T12:33:11Z</time>
      </trkpt>
      <trkpt lat="45.63549" lon="6.58938">
        <ele>1687.73</ele>
        <time>2021-06-24T12:33:12Z</time>
      </trkpt>
      <trkpt lat="45.63551" lon="6.58935">
        <ele>1687.73</ele>
        <time>2021-06-24T12:33:14Z</time>
      </trkpt>
      <trkpt lat="45.63561" lon="6.58928">
        <ele>1686.77</ele>
        <time>2021-06-24T12:33:22Z</time>
      </trkpt>
      <trkpt lat="45.63567" lon="6.58921">
        <ele>1686.29</ele>
        <time>2021-06-24T12:33:28Z</time>
      </trkpt>
      <trkpt lat="45.63581" lon="6.58911">
        <ele>1687.73</ele>
        <time>2021-06-24T12:33:41Z</time>
      </trkpt>
      <trkpt lat="45.63584" lon="6.58909">
        <ele>1687.73</ele>
        <time>2021-06-24T12:33:44Z</time>
      </trkpt>
      <trkpt lat="45.63596" lon="6.58906">
        <ele>1686.29</ele>
        <time>2021-06-24T12:33:54Z</time>
      </trkpt>
      <trkpt lat="45.636" lon="6.58899">
        <ele>1685.81</ele>
        <time>2021-06-24T12:33:59Z</time>
      </trkpt>
      <trkpt lat="45.63606" lon="6.5889">
        <ele>1682.44</ele>
        <time>2021-06-24T12:34:07Z</time>
      </trkpt>
      <trkpt lat="45.63609" lon="6.58884">
        <ele>1681.48</ele>
        <time>2021-06-24T12:34:12Z</time>
      </trkpt>
      <trkpt lat="45.6361" lon="6.58882">
        <ele>1681</ele>
        <time>2021-06-24T12:34:14Z</time>
      </trkpt>
      <trkpt lat="45.63616" lon="6.58873">
        <ele>1678.6</ele>
        <time>2021-06-24T12:34:22Z</time>
      </trkpt>
      <trkpt lat="45.63616" lon="6.58871">
        <ele>1678.6</ele>
        <time>2021-06-24T12:34:24Z</time>
      </trkpt>
      <trkpt lat="45.63618" lon="6.58868">
        <ele>1678.6</ele>
        <time>2021-06-24T12:34:27Z</time>
      </trkpt>
      <trkpt lat="45.63622" lon="6.58866">
        <ele>1680.04</ele>
        <time>2021-06-24T12:34:40Z</time>
      </trkpt>
      <trkpt lat="45.63624" lon="6.58867">
        <ele>1680.04</ele>
        <time>2021-06-24T12:34:58Z</time>
      </trkpt>
      <trkpt lat="45.63624" lon="6.58867">
        <ele>1679.08</ele>
        <time>2021-06-24T12:35:13Z</time>
      </trkpt>
      <trkpt lat="45.63624" lon="6.58865">
        <ele>1679.08</ele>
        <time>2021-06-24T12:35:17Z</time>
      </trkpt>
      <trkpt lat="45.63623" lon="6.58867">
        <ele>1677.64</ele>
        <time>2021-06-24T12:35:27Z</time>
      </trkpt>
      <trkpt lat="45.63624" lon="6.58866">
        <ele>1677.16</ele>
        <time>2021-06-24T12:35:48Z</time>
      </trkpt>
      <trkpt lat="45.63624" lon="6.58866">
        <ele>1678.12</ele>
        <time>2021-06-24T12:36:03Z</time>
      </trkpt>
      <trkpt lat="45.63625" lon="6.58866">
        <ele>1678.12</ele>
        <time>2021-06-24T12:36:12Z</time>
      </trkpt>
      <trkpt lat="45.63627" lon="6.58864">
        <ele>1678.12</ele>
        <time>2021-06-24T12:36:15Z</time>
      </trkpt>
      <trkpt lat="45.63631" lon="6.58864">
        <ele>1676.68</ele>
        <time>2021-06-24T12:36:20Z</time>
      </trkpt>
      <trkpt lat="45.63632" lon="6.58863">
        <ele>1676.68</ele>
        <time>2021-06-24T12:36:21Z</time>
      </trkpt>
      <trkpt lat="45.6365" lon="6.58857">
        <ele>1674.27</ele>
        <time>2021-06-24T12:36:39Z</time>
      </trkpt>
      <trkpt lat="45.63655" lon="6.58854">
        <ele>1673.31</ele>
        <time>2021-06-24T12:36:44Z</time>
      </trkpt>
      <trkpt lat="45.63667" lon="6.58842">
        <ele>1669.47</ele>
        <time>2021-06-24T12:37:02Z</time>
      </trkpt>
      <trkpt lat="45.63669" lon="6.58842">
        <ele>1668.02</ele>
        <time>2021-06-24T12:37:10Z</time>
      </trkpt>
      <trkpt lat="45.63669" lon="6.58841">
        <ele>1670.91</ele>
        <time>2021-06-24T12:37:11Z</time>
      </trkpt>
      <trkpt lat="45.6367" lon="6.58841">
        <ele>1666.58</ele>
        <time>2021-06-24T12:37:12Z</time>
      </trkpt>
      <trkpt lat="45.6367" lon="6.5884">
        <ele>1671.39</ele>
        <time>2021-06-24T12:37:13Z</time>
      </trkpt>
      <trkpt lat="45.63672" lon="6.58839">
        <ele>1667.06</ele>
        <time>2021-06-24T12:37:15Z</time>
      </trkpt>
      <trkpt lat="45.63673" lon="6.58838">
        <ele>1671.39</ele>
        <time>2021-06-24T12:37:16Z</time>
      </trkpt>
      <trkpt lat="45.63675" lon="6.58836">
        <ele>1668.51</ele>
        <time>2021-06-24T12:37:18Z</time>
      </trkpt>
      <trkpt lat="45.63676" lon="6.58835">
        <ele>1668.51</ele>
        <time>2021-06-24T12:37:19Z</time>
      </trkpt>
      <trkpt lat="45.63688" lon="6.58827">
        <ele>1664.66</ele>
        <time>2021-06-24T12:37:34Z</time>
      </trkpt>
      <trkpt lat="45.63708" lon="6.58819">
        <ele>1664.18</ele>
        <time>2021-06-24T12:37:52Z</time>
      </trkpt>
      <trkpt lat="45.63711" lon="6.58818">
        <ele>1663.22</ele>
        <time>2021-06-24T12:37:55Z</time>
      </trkpt>
      <trkpt lat="45.63719" lon="6.58816">
        <ele>1662.26</ele>
        <time>2021-06-24T12:38:02Z</time>
      </trkpt>
      <trkpt lat="45.63729" lon="6.58824">
        <ele>1659.85</ele>
        <time>2021-06-24T12:38:16Z</time>
      </trkpt>
      <trkpt lat="45.63738" lon="6.58824">
        <ele>1656.97</ele>
        <time>2021-06-24T12:38:26Z</time>
      </trkpt>
      <trkpt lat="45.63745" lon="6.58827">
        <ele>1654.09</ele>
        <time>2021-06-24T12:38:39Z</time>
      </trkpt>
      <trkpt lat="45.63751" lon="6.58827">
        <ele>1652.64</ele>
        <time>2021-06-24T12:38:52Z</time>
      </trkpt>
      <trkpt lat="45.63754" lon="6.58826">
        <ele>1650.72</ele>
        <time>2021-06-24T12:39:03Z</time>
      </trkpt>
      <trkpt lat="45.63757" lon="6.5882">
        <ele>1647.84</ele>
        <time>2021-06-24T12:39:15Z</time>
      </trkpt>
      <trkpt lat="45.63758" lon="6.58815">
        <ele>1647.36</ele>
        <time>2021-06-24T12:39:19Z</time>
      </trkpt>
      <trkpt lat="45.63764" lon="6.58811">
        <ele>1647.36</ele>
        <time>2021-06-24T12:39:24Z</time>
      </trkpt>
      <trkpt lat="45.63783" lon="6.58802">
        <ele>1646.88</ele>
        <time>2021-06-24T12:39:43Z</time>
      </trkpt>
      <trkpt lat="45.63789" lon="6.58791">
        <ele>1645.91</ele>
        <time>2021-06-24T12:39:52Z</time>
      </trkpt>
      <trkpt lat="45.63795" lon="6.5878">
        <ele>1645.91</ele>
        <time>2021-06-24T12:40:01Z</time>
      </trkpt>
      <trkpt lat="45.63799" lon="6.58773">
        <ele>1645.43</ele>
        <time>2021-06-24T12:40:06Z</time>
      </trkpt>
      <trkpt lat="45.63799" lon="6.58769">
        <ele>1644.95</ele>
        <time>2021-06-24T12:40:10Z</time>
      </trkpt>
      <trkpt lat="45.63797" lon="6.58768">
        <ele>1643.99</ele>
        <time>2021-06-24T12:40:12Z</time>
      </trkpt>
      <trkpt lat="45.63786" lon="6.58771">
        <ele>1642.55</ele>
        <time>2021-06-24T12:40:23Z</time>
      </trkpt>
      <trkpt lat="45.63775" lon="6.58773">
        <ele>1639.67</ele>
        <time>2021-06-24T12:40:38Z</time>
      </trkpt>
      <trkpt lat="45.63774" lon="6.58764">
        <ele>1639.19</ele>
        <time>2021-06-24T12:40:52Z</time>
      </trkpt>
      <trkpt lat="45.63774" lon="6.58763">
        <ele>1639.19</ele>
        <time>2021-06-24T12:40:53Z</time>
      </trkpt>
      <trkpt lat="45.63778" lon="6.58742">
        <ele>1637.74</ele>
        <time>2021-06-24T12:41:07Z</time>
      </trkpt>
      <trkpt lat="45.63784" lon="6.58731">
        <ele>1635.34</ele>
        <time>2021-06-24T12:41:21Z</time>
      </trkpt>
      <trkpt lat="45.63789" lon="6.58725">
        <ele>1632.46</ele>
        <time>2021-06-24T12:41:30Z</time>
      </trkpt>
      <trkpt lat="45.63791" lon="6.58719">
        <ele>1629.57</ele>
        <time>2021-06-24T12:41:37Z</time>
      </trkpt>
      <trkpt lat="45.63795" lon="6.58708">
        <ele>1624.77</ele>
        <time>2021-06-24T12:41:52Z</time>
      </trkpt>
      <trkpt lat="45.63795" lon="6.58707">
        <ele>1629.57</ele>
        <time>2021-06-24T12:41:55Z</time>
      </trkpt>
      <trkpt lat="45.63798" lon="6.58702">
        <ele>1627.17</ele>
        <time>2021-06-24T12:42:00Z</time>
      </trkpt>
      <trkpt lat="45.63805" lon="6.58694">
        <ele>1624.28</ele>
        <time>2021-06-24T12:42:11Z</time>
      </trkpt>
      <trkpt lat="45.63815" lon="6.5868">
        <ele>1621.88</ele>
        <time>2021-06-24T12:42:25Z</time>
      </trkpt>
      <trkpt lat="45.6383" lon="6.58665">
        <ele>1618.04</ele>
        <time>2021-06-24T12:42:41Z</time>
      </trkpt>
      <trkpt lat="45.63846" lon="6.58658">
        <ele>1616.11</ele>
        <time>2021-06-24T12:42:56Z</time>
      </trkpt>
      <trkpt lat="45.63852" lon="6.58654">
        <ele>1616.11</ele>
        <time>2021-06-24T12:43:03Z</time>
      </trkpt>
      <trkpt lat="45.6386" lon="6.58651">
        <ele>1615.63</ele>
        <time>2021-06-24T12:43:10Z</time>
      </trkpt>
      <trkpt lat="45.63875" lon="6.58649">
        <ele>1614.67</ele>
        <time>2021-06-24T12:43:22Z</time>
      </trkpt>
      <trkpt lat="45.63876" lon="6.58649">
        <ele>1614.67</ele>
        <time>2021-06-24T12:43:23Z</time>
      </trkpt>
      <trkpt lat="45.63879" lon="6.58647">
        <ele>1614.19</ele>
        <time>2021-06-24T12:43:26Z</time>
      </trkpt>
      <trkpt lat="45.63896" lon="6.58642">
        <ele>1612.75</ele>
        <time>2021-06-24T12:43:42Z</time>
      </trkpt>
      <trkpt lat="45.63909" lon="6.58635">
        <ele>1611.31</ele>
        <time>2021-06-24T12:43:55Z</time>
      </trkpt>
      <trkpt lat="45.63913" lon="6.58632">
        <ele>1609.86</ele>
        <time>2021-06-24T12:43:59Z</time>
      </trkpt>
      <trkpt lat="45.63922" lon="6.58623">
        <ele>1607.94</ele>
        <time>2021-06-24T12:44:11Z</time>
      </trkpt>
      <trkpt lat="45.63924" lon="6.58622">
        <ele>1607.46</ele>
        <time>2021-06-24T12:44:13Z</time>
      </trkpt>
      <trkpt lat="45.63933" lon="6.58612">
        <ele>1605.54</ele>
        <time>2021-06-24T12:44:24Z</time>
      </trkpt>
      <trkpt lat="45.63939" lon="6.58606">
        <ele>1604.1</ele>
        <time>2021-06-24T12:44:32Z</time>
      </trkpt>
      <trkpt lat="45.63953" lon="6.58597">
        <ele>1602.17</ele>
        <time>2021-06-24T12:44:45Z</time>
      </trkpt>
      <trkpt lat="45.6396" lon="6.58592">
        <ele>1601.21</ele>
        <time>2021-06-24T12:44:53Z</time>
      </trkpt>
      <trkpt lat="45.63963" lon="6.58591">
        <ele>1600.73</ele>
        <time>2021-06-24T12:44:56Z</time>
      </trkpt>
      <trkpt lat="45.63966" lon="6.58589">
        <ele>1600.73</ele>
        <time>2021-06-24T12:44:59Z</time>
      </trkpt>
      <trkpt lat="45.63969" lon="6.58588">
        <ele>1600.25</ele>
        <time>2021-06-24T12:45:02Z</time>
      </trkpt>
      <trkpt lat="45.63981" lon="6.58581">
        <ele>1600.25</ele>
        <time>2021-06-24T12:45:12Z</time>
      </trkpt>
      <trkpt lat="45.63987" lon="6.58576">
        <ele>1600.25</ele>
        <time>2021-06-24T12:45:19Z</time>
      </trkpt>
      <trkpt lat="45.63995" lon="6.58567">
        <ele>1599.77</ele>
        <time>2021-06-24T12:45:28Z</time>
      </trkpt>
      <trkpt lat="45.64004" lon="6.58561">
        <ele>1598.81</ele>
        <time>2021-06-24T12:45:37Z</time>
      </trkpt>
      <trkpt lat="45.64021" lon="6.58561">
        <ele>1595.93</ele>
        <time>2021-06-24T12:45:52Z</time>
      </trkpt>
      <trkpt lat="45.6403" lon="6.58565">
        <ele>1594</ele>
        <time>2021-06-24T12:46:02Z</time>
      </trkpt>
      <trkpt lat="45.64034" lon="6.5857">
        <ele>1593.04</ele>
        <time>2021-06-24T12:46:14Z</time>
      </trkpt>
      <trkpt lat="45.64035" lon="6.58569">
        <ele>1593.04</ele>
        <time>2021-06-24T12:46:18Z</time>
      </trkpt>
      <trkpt lat="45.64041" lon="6.58563">
        <ele>1593.04</ele>
        <time>2021-06-24T12:46:25Z</time>
      </trkpt>
      <trkpt lat="45.6405" lon="6.58548">
        <ele>1592.56</ele>
        <time>2021-06-24T12:46:37Z</time>
      </trkpt>
      <trkpt lat="45.64054" lon="6.58539">
        <ele>1592.56</ele>
        <time>2021-06-24T12:46:44Z</time>
      </trkpt>
      <trkpt lat="45.64056" lon="6.58537">
        <ele>1592.56</ele>
        <time>2021-06-24T12:46:46Z</time>
      </trkpt>
      <trkpt lat="45.64064" lon="6.58513">
        <ele>1591.12</ele>
        <time>2021-06-24T12:47:02Z</time>
      </trkpt>
      <trkpt lat="45.64068" lon="6.58506">
        <ele>1590.64</ele>
        <time>2021-06-24T12:47:07Z</time>
      </trkpt>
      <trkpt lat="45.6407" lon="6.58505">
        <ele>1590.64</ele>
        <time>2021-06-24T12:47:09Z</time>
      </trkpt>
      <trkpt lat="45.64079" lon="6.58494">
        <ele>1589.2</ele>
        <time>2021-06-24T12:47:22Z</time>
      </trkpt>
      <trkpt lat="45.64081" lon="6.58493">
        <ele>1589.2</ele>
        <time>2021-06-24T12:47:24Z</time>
      </trkpt>
      <trkpt lat="45.64092" lon="6.58485">
        <ele>1586.79</ele>
        <time>2021-06-24T12:47:37Z</time>
      </trkpt>
      <trkpt lat="45.64092" lon="6.58484">
        <ele>1586.79</ele>
        <time>2021-06-24T12:47:38Z</time>
      </trkpt>
      <trkpt lat="45.64095" lon="6.58483">
        <ele>1586.79</ele>
        <time>2021-06-24T12:47:41Z</time>
      </trkpt>
      <trkpt lat="45.64103" lon="6.58472">
        <ele>1586.79</ele>
        <time>2021-06-24T12:47:55Z</time>
      </trkpt>
      <trkpt lat="45.64106" lon="6.58466">
        <ele>1588.24</ele>
        <time>2021-06-24T12:48:00Z</time>
      </trkpt>
      <trkpt lat="45.64108" lon="6.58461">
        <ele>1588.72</ele>
        <time>2021-06-24T12:48:04Z</time>
      </trkpt>
      <trkpt lat="45.64117" lon="6.58451">
        <ele>1589.2</ele>
        <time>2021-06-24T12:48:14Z</time>
      </trkpt>
      <trkpt lat="45.64124" lon="6.58447">
        <ele>1590.64</ele>
        <time>2021-06-24T12:48:28Z</time>
      </trkpt>
      <trkpt lat="45.64133" lon="6.58444">
        <ele>1590.64</ele>
        <time>2021-06-24T12:48:38Z</time>
      </trkpt>
      <trkpt lat="45.64147" lon="6.5844">
        <ele>1589.68</ele>
        <time>2021-06-24T12:48:53Z</time>
      </trkpt>
      <trkpt lat="45.64165" lon="6.58432">
        <ele>1588.72</ele>
        <time>2021-06-24T12:49:06Z</time>
      </trkpt>
      <trkpt lat="45.64181" lon="6.5842">
        <ele>1587.75</ele>
        <time>2021-06-24T12:49:18Z</time>
      </trkpt>
      <trkpt lat="45.64188" lon="6.58407">
        <ele>1587.27</ele>
        <time>2021-06-24T12:49:30Z</time>
      </trkpt>
      <trkpt lat="45.64192" lon="6.58387">
        <ele>1588.24</ele>
        <time>2021-06-24T12:49:43Z</time>
      </trkpt>
      <trkpt lat="45.64208" lon="6.58372">
        <ele>1585.83</ele>
        <time>2021-06-24T12:49:57Z</time>
      </trkpt>
      <trkpt lat="45.64223" lon="6.5837">
        <ele>1584.39</ele>
        <time>2021-06-24T12:50:10Z</time>
      </trkpt>
      <trkpt lat="45.64226" lon="6.58368">
        <ele>1583.43</ele>
        <time>2021-06-24T12:50:13Z</time>
      </trkpt>
      <trkpt lat="45.6423" lon="6.5836">
        <ele>1583.43</ele>
        <time>2021-06-24T12:50:19Z</time>
      </trkpt>
      <trkpt lat="45.64239" lon="6.58347">
        <ele>1581.03</ele>
        <time>2021-06-24T12:50:31Z</time>
      </trkpt>
      <trkpt lat="45.64244" lon="6.58342">
        <ele>1579.58</ele>
        <time>2021-06-24T12:50:36Z</time>
      </trkpt>
      <trkpt lat="45.64261" lon="6.58337">
        <ele>1575.74</ele>
        <time>2021-06-24T12:50:50Z</time>
      </trkpt>
      <trkpt lat="45.64269" lon="6.58337">
        <ele>1576.22</ele>
        <time>2021-06-24T12:50:56Z</time>
      </trkpt>
      <trkpt lat="45.64276" lon="6.58339">
        <ele>1575.74</ele>
        <time>2021-06-24T12:51:00Z</time>
      </trkpt>
      <trkpt lat="45.64278" lon="6.58339">
        <ele>1578.62</ele>
        <time>2021-06-24T12:51:02Z</time>
      </trkpt>
      <trkpt lat="45.6428" lon="6.58338">
        <ele>1574.78</ele>
        <time>2021-06-24T12:51:04Z</time>
      </trkpt>
      <trkpt lat="45.64281" lon="6.58338">
        <ele>1571.41</ele>
        <time>2021-06-24T12:51:05Z</time>
      </trkpt>
      <trkpt lat="45.64283" lon="6.58337">
        <ele>1579.1</ele>
        <time>2021-06-24T12:51:06Z</time>
      </trkpt>
      <trkpt lat="45.64284" lon="6.58336">
        <ele>1576.22</ele>
        <time>2021-06-24T12:51:07Z</time>
      </trkpt>
      <trkpt lat="45.64287" lon="6.58335">
        <ele>1574.78</ele>
        <time>2021-06-24T12:51:09Z</time>
      </trkpt>
      <trkpt lat="45.64294" lon="6.58333">
        <ele>1574.78</ele>
        <time>2021-06-24T12:51:24Z</time>
      </trkpt>
      <trkpt lat="45.643" lon="6.5832">
        <ele>1574.3</ele>
        <time>2021-06-24T12:51:51Z</time>
      </trkpt>
      <trkpt lat="45.64304" lon="6.58319">
        <ele>1573.33</ele>
        <time>2021-06-24T12:52:07Z</time>
      </trkpt>
      <trkpt lat="45.64317" lon="6.58314">
        <ele>1571.89</ele>
        <time>2021-06-24T12:52:21Z</time>
      </trkpt>
      <trkpt lat="45.64335" lon="6.58313">
        <ele>1569.97</ele>
        <time>2021-06-24T12:52:35Z</time>
      </trkpt>
      <trkpt lat="45.6434" lon="6.58318">
        <ele>1569.01</ele>
        <time>2021-06-24T12:52:39Z</time>
      </trkpt>
      <trkpt lat="45.64345" lon="6.58323">
        <ele>1568.53</ele>
        <time>2021-06-24T12:52:43Z</time>
      </trkpt>
      <trkpt lat="45.64346" lon="6.58323">
        <ele>1568.53</ele>
        <time>2021-06-24T12:52:44Z</time>
      </trkpt>
      <trkpt lat="45.64348" lon="6.58323">
        <ele>1568.53</ele>
        <time>2021-06-24T12:52:45Z</time>
      </trkpt>
      <trkpt lat="45.64363" lon="6.58321">
        <ele>1567.09</ele>
        <time>2021-06-24T12:52:55Z</time>
      </trkpt>
      <trkpt lat="45.64364" lon="6.58321">
        <ele>1567.09</ele>
        <time>2021-06-24T12:52:56Z</time>
      </trkpt>
      <trkpt lat="45.64367" lon="6.5832">
        <ele>1566.61</ele>
        <time>2021-06-24T12:52:58Z</time>
      </trkpt>
      <trkpt lat="45.64369" lon="6.58319">
        <ele>1566.12</ele>
        <time>2021-06-24T12:53:00Z</time>
      </trkpt>
      <trkpt lat="45.64376" lon="6.58318">
        <ele>1565.16</ele>
        <time>2021-06-24T12:53:05Z</time>
      </trkpt>
      <trkpt lat="45.64377" lon="6.58317">
        <ele>1565.16</ele>
        <time>2021-06-24T12:53:06Z</time>
      </trkpt>
      <trkpt lat="45.64379" lon="6.58316">
        <ele>1564.68</ele>
        <time>2021-06-24T12:53:07Z</time>
      </trkpt>
      <trkpt lat="45.64403" lon="6.58299">
        <ele>1562.28</ele>
        <time>2021-06-24T12:53:23Z</time>
      </trkpt>
      <trkpt lat="45.64423" lon="6.58295">
        <ele>1561.8</ele>
        <time>2021-06-24T12:53:37Z</time>
      </trkpt>
      <trkpt lat="45.64439" lon="6.58294">
        <ele>1560.84</ele>
        <time>2021-06-24T12:53:49Z</time>
      </trkpt>
      <trkpt lat="45.64455" lon="6.58295">
        <ele>1559.88</ele>
        <time>2021-06-24T12:54:02Z</time>
      </trkpt>
      <trkpt lat="45.64473" lon="6.58301">
        <ele>1559.4</ele>
        <time>2021-06-24T12:54:17Z</time>
      </trkpt>
      <trkpt lat="45.64489" lon="6.58303">
        <ele>1557.47</ele>
        <time>2021-06-24T12:54:30Z</time>
      </trkpt>
      <trkpt lat="45.64495" lon="6.58302">
        <ele>1556.99</ele>
        <time>2021-06-24T12:54:34Z</time>
      </trkpt>
      <trkpt lat="45.64497" lon="6.58302">
        <ele>1556.99</ele>
        <time>2021-06-24T12:54:35Z</time>
      </trkpt>
      <trkpt lat="45.64499" lon="6.58303">
        <ele>1556.99</ele>
        <time>2021-06-24T12:54:36Z</time>
      </trkpt>
      <trkpt lat="45.64512" lon="6.58299">
        <ele>1556.03</ele>
        <time>2021-06-24T12:54:47Z</time>
      </trkpt>
      <trkpt lat="45.64514" lon="6.58299">
        <ele>1556.03</ele>
        <time>2021-06-24T12:54:48Z</time>
      </trkpt>
      <trkpt lat="45.64526" lon="6.58298">
        <ele>1556.03</ele>
        <time>2021-06-24T12:54:58Z</time>
      </trkpt>
      <trkpt lat="45.64546" lon="6.58296">
        <ele>1557.95</ele>
        <time>2021-06-24T12:55:13Z</time>
      </trkpt>
      <trkpt lat="45.64551" lon="6.58297">
        <ele>1557.95</ele>
        <time>2021-06-24T12:55:17Z</time>
      </trkpt>
      <trkpt lat="45.64552" lon="6.58297">
        <ele>1557.95</ele>
        <time>2021-06-24T12:55:18Z</time>
      </trkpt>
      <trkpt lat="45.6456" lon="6.583">
        <ele>1557.95</ele>
        <time>2021-06-24T12:55:24Z</time>
      </trkpt>
      <trkpt lat="45.64564" lon="6.58302">
        <ele>1557.47</ele>
        <time>2021-06-24T12:55:29Z</time>
      </trkpt>
      <trkpt lat="45.64565" lon="6.58303">
        <ele>1557.47</ele>
        <time>2021-06-24T12:55:30Z</time>
      </trkpt>
      <trkpt lat="45.64579" lon="6.58306">
        <ele>1556.51</ele>
        <time>2021-06-24T12:55:39Z</time>
      </trkpt>
      <trkpt lat="45.64581" lon="6.58306">
        <ele>1556.51</ele>
        <time>2021-06-24T12:55:40Z</time>
      </trkpt>
      <trkpt lat="45.64583" lon="6.58307">
        <ele>1556.03</ele>
        <time>2021-06-24T12:55:41Z</time>
      </trkpt>
      <trkpt lat="45.64599" lon="6.58318">
        <ele>1555.07</ele>
        <time>2021-06-24T12:55:54Z</time>
      </trkpt>
      <trkpt lat="45.64617" lon="6.58323">
        <ele>1554.59</ele>
        <time>2021-06-24T12:56:07Z</time>
      </trkpt>
      <trkpt lat="45.64631" lon="6.58315">
        <ele>1554.59</ele>
        <time>2021-06-24T12:56:17Z</time>
      </trkpt>
      <trkpt lat="45.64638" lon="6.5832">
        <ele>1554.59</ele>
        <time>2021-06-24T12:56:23Z</time>
      </trkpt>
      <trkpt lat="45.64647" lon="6.5833">
        <ele>1555.55</ele>
        <time>2021-06-24T12:56:31Z</time>
      </trkpt>
      <trkpt lat="45.64653" lon="6.58337">
        <ele>1556.03</ele>
        <time>2021-06-24T12:56:37Z</time>
      </trkpt>
      <trkpt lat="45.64658" lon="6.58354">
        <ele>1557.47</ele>
        <time>2021-06-24T12:56:47Z</time>
      </trkpt>
      <trkpt lat="45.64656" lon="6.5837">
        <ele>1557.47</ele>
        <time>2021-06-24T12:56:55Z</time>
      </trkpt>
      <trkpt lat="45.64655" lon="6.58385">
        <ele>1557.47</ele>
        <time>2021-06-24T12:57:03Z</time>
      </trkpt>
      <trkpt lat="45.64661" lon="6.58394">
        <ele>1557.47</ele>
        <time>2021-06-24T12:57:10Z</time>
      </trkpt>
      <trkpt lat="45.64667" lon="6.58404">
        <ele>1557.47</ele>
        <time>2021-06-24T12:57:15Z</time>
      </trkpt>
      <trkpt lat="45.64674" lon="6.58407">
        <ele>1557.47</ele>
        <time>2021-06-24T12:57:28Z</time>
      </trkpt>
      <trkpt lat="45.64675" lon="6.58407">
        <ele>1557.47</ele>
        <time>2021-06-24T12:57:35Z</time>
      </trkpt>
      <trkpt lat="45.64676" lon="6.5841">
        <ele>1557.47</ele>
        <time>2021-06-24T12:57:38Z</time>
      </trkpt>
      <trkpt lat="45.64687" lon="6.5842">
        <ele>1557.47</ele>
        <time>2021-06-24T12:57:48Z</time>
      </trkpt>
      <trkpt lat="45.64691" lon="6.5843">
        <ele>1556.51</ele>
        <time>2021-06-24T12:57:54Z</time>
      </trkpt>
      <trkpt lat="45.64698" lon="6.58443">
        <ele>1556.03</ele>
        <time>2021-06-24T12:58:03Z</time>
      </trkpt>
      <trkpt lat="45.647" lon="6.58446">
        <ele>1556.03</ele>
        <time>2021-06-24T12:58:05Z</time>
      </trkpt>
      <trkpt lat="45.64716" lon="6.58463">
        <ele>1554.59</ele>
        <time>2021-06-24T12:58:19Z</time>
      </trkpt>
      <trkpt lat="45.6472" lon="6.58465">
        <ele>1554.59</ele>
        <time>2021-06-24T12:58:21Z</time>
      </trkpt>
      <trkpt lat="45.64729" lon="6.58477">
        <ele>1554.59</ele>
        <time>2021-06-24T12:58:29Z</time>
      </trkpt>
      <trkpt lat="45.64731" lon="6.58477">
        <ele>1554.11</ele>
        <time>2021-06-24T12:58:31Z</time>
      </trkpt>
      <trkpt lat="45.64733" lon="6.58483">
        <ele>1554.11</ele>
        <time>2021-06-24T12:58:45Z</time>
      </trkpt>
      <trkpt lat="45.64746" lon="6.58486">
        <ele>1553.15</ele>
        <time>2021-06-24T12:58:57Z</time>
      </trkpt>
      <trkpt lat="45.64766" lon="6.58473">
        <ele>1552.67</ele>
        <time>2021-06-24T12:59:13Z</time>
      </trkpt>
      <trkpt lat="45.6478" lon="6.58453">
        <ele>1551.71</ele>
        <time>2021-06-24T12:59:28Z</time>
      </trkpt>
      <trkpt lat="45.64795" lon="6.58434">
        <ele>1551.71</ele>
        <time>2021-06-24T12:59:44Z</time>
      </trkpt>
      <trkpt lat="45.648" lon="6.58427">
        <ele>1551.71</ele>
        <time>2021-06-24T12:59:55Z</time>
      </trkpt>
      <trkpt lat="45.64808" lon="6.58416">
        <ele>1551.22</ele>
        <time>2021-06-24T13:00:10Z</time>
      </trkpt>
      <trkpt lat="45.64811" lon="6.58411">
        <ele>1551.22</ele>
        <time>2021-06-24T13:00:19Z</time>
      </trkpt>
      <trkpt lat="45.64815" lon="6.58408">
        <ele>1551.22</ele>
        <time>2021-06-24T13:00:24Z</time>
      </trkpt>
      <trkpt lat="45.64835" lon="6.58395">
        <ele>1552.67</ele>
        <time>2021-06-24T13:00:41Z</time>
      </trkpt>
      <trkpt lat="45.64856" lon="6.58389">
        <ele>1554.59</ele>
        <time>2021-06-24T13:00:58Z</time>
      </trkpt>
      <trkpt lat="45.64873" lon="6.58388">
        <ele>1555.55</ele>
        <time>2021-06-24T13:01:12Z</time>
      </trkpt>
      <trkpt lat="45.64889" lon="6.58388">
        <ele>1556.99</ele>
        <time>2021-06-24T13:01:26Z</time>
      </trkpt>
      <trkpt lat="45.6491" lon="6.58393">
        <ele>1558.92</ele>
        <time>2021-06-24T13:01:43Z</time>
      </trkpt>
      <trkpt lat="45.64918" lon="6.58395">
        <ele>1559.4</ele>
        <time>2021-06-24T13:01:50Z</time>
      </trkpt>
      <trkpt lat="45.64926" lon="6.58397">
        <ele>1560.36</ele>
        <time>2021-06-24T13:01:56Z</time>
      </trkpt>
      <trkpt lat="45.64935" lon="6.58405">
        <ele>1561.32</ele>
        <time>2021-06-24T13:02:08Z</time>
      </trkpt>
      <trkpt lat="45.64953" lon="6.58403">
        <ele>1562.28</ele>
        <time>2021-06-24T13:02:24Z</time>
      </trkpt>
      <trkpt lat="45.64971" lon="6.58397">
        <ele>1564.2</ele>
        <time>2021-06-24T13:02:39Z</time>
      </trkpt>
      <trkpt lat="45.64989" lon="6.58392">
        <ele>1566.12</ele>
        <time>2021-06-24T13:02:54Z</time>
      </trkpt>
      <trkpt lat="45.65003" lon="6.58396">
        <ele>1567.09</ele>
        <time>2021-06-24T13:03:06Z</time>
      </trkpt>
      <trkpt lat="45.65004" lon="6.58397">
        <ele>1567.09</ele>
        <time>2021-06-24T13:03:07Z</time>
      </trkpt>
      <trkpt lat="45.65007" lon="6.584">
        <ele>1567.09</ele>
        <time>2021-06-24T13:03:10Z</time>
      </trkpt>
      <trkpt lat="45.6501" lon="6.58408">
        <ele>1567.09</ele>
        <time>2021-06-24T13:03:15Z</time>
      </trkpt>
      <trkpt lat="45.65016" lon="6.58421">
        <ele>1567.57</ele>
        <time>2021-06-24T13:03:23Z</time>
      </trkpt>
      <trkpt lat="45.6502" lon="6.58428">
        <ele>1567.57</ele>
        <time>2021-06-24T13:03:28Z</time>
      </trkpt>
      <trkpt lat="45.65022" lon="6.58431">
        <ele>1567.57</ele>
        <time>2021-06-24T13:03:30Z</time>
      </trkpt>
      <trkpt lat="45.65035" lon="6.58446">
        <ele>1567.57</ele>
        <time>2021-06-24T13:03:44Z</time>
      </trkpt>
      <trkpt lat="45.65043" lon="6.58445">
        <ele>1567.57</ele>
        <time>2021-06-24T13:03:55Z</time>
      </trkpt>
      <trkpt lat="45.65053" lon="6.58442">
        <ele>1567.57</ele>
        <time>2021-06-24T13:04:09Z</time>
      </trkpt>
      <trkpt lat="45.65056" lon="6.58433">
        <ele>1566.12</ele>
        <time>2021-06-24T13:04:23Z</time>
      </trkpt>
      <trkpt lat="45.65068" lon="6.58405">
        <ele>1566.12</ele>
        <time>2021-06-24T13:04:40Z</time>
      </trkpt>
      <trkpt lat="45.65078" lon="6.58376">
        <ele>1565.16</ele>
        <time>2021-06-24T13:04:57Z</time>
      </trkpt>
      <trkpt lat="45.65081" lon="6.58341">
        <ele>1565.16</ele>
        <time>2021-06-24T13:05:15Z</time>
      </trkpt>
      <trkpt lat="45.65089" lon="6.58313">
        <ele>1563.24</ele>
        <time>2021-06-24T13:05:32Z</time>
      </trkpt>
      <trkpt lat="45.65091" lon="6.5831">
        <ele>1563.24</ele>
        <time>2021-06-24T13:05:34Z</time>
      </trkpt>
      <trkpt lat="45.65096" lon="6.58304">
        <ele>1562.76</ele>
        <time>2021-06-24T13:05:39Z</time>
      </trkpt>
      <trkpt lat="45.65111" lon="6.58278">
        <ele>1562.28</ele>
        <time>2021-06-24T13:05:54Z</time>
      </trkpt>
      <trkpt lat="45.65114" lon="6.58269">
        <ele>1562.76</ele>
        <time>2021-06-24T13:05:59Z</time>
      </trkpt>
      <trkpt lat="45.65121" lon="6.58234">
        <ele>1562.76</ele>
        <time>2021-06-24T13:06:16Z</time>
      </trkpt>
      <trkpt lat="45.65114" lon="6.58202">
        <ele>1564.68</ele>
        <time>2021-06-24T13:06:33Z</time>
      </trkpt>
      <trkpt lat="45.65109" lon="6.5816">
        <ele>1566.61</ele>
        <time>2021-06-24T13:06:53Z</time>
      </trkpt>
      <trkpt lat="45.65102" lon="6.58136">
        <ele>1568.05</ele>
        <time>2021-06-24T13:07:06Z</time>
      </trkpt>
      <trkpt lat="45.65106" lon="6.58131">
        <ele>1568.53</ele>
        <time>2021-06-24T13:07:12Z</time>
      </trkpt>
      <trkpt lat="45.65113" lon="6.58123">
        <ele>1569.97</ele>
        <time>2021-06-24T13:07:24Z</time>
      </trkpt>
      <trkpt lat="45.65112" lon="6.58122">
        <ele>1569.97</ele>
        <time>2021-06-24T13:07:47Z</time>
      </trkpt>
      <trkpt lat="45.65111" lon="6.58124">
        <ele>1569.97</ele>
        <time>2021-06-24T13:08:05Z</time>
      </trkpt>
      <trkpt lat="45.65111" lon="6.58128">
        <ele>1569.97</ele>
        <time>2021-06-24T13:08:20Z</time>
      </trkpt>
    </trkseg>
  </trk>
</gpx>